<?xml version="1.0" encoding="UTF-8" standalone="no" ?>
<gpx xmlns="http://www.topografix.com/GPX/1/1" xmlns:xsi="http://www.w3.org/2001/XMLSchema-instance" xsi:schemaLocation="http://www.topografix.com/GPX/1/1 http://www.topografix.com/GPX/1/1/gpx.xsd" version="1.1" creator="VisuGPX - https://www.visugpx.com">
  <metadata>
    <name>Forêt Fbleau 18-11-21</name>
    <desc><![CDATA[Boucle en Forêt, sans difficulté, au départ du parking du cimetière de morêt sur Loing.]]></desc>
  </metadata>
  <trk>
    <name><![CDATA[Forêt Fbleau 18-11-21]]></name>
    <trkseg>
      <trkpt lat="48.36856" lon="2.80523">
        <ele>88.400001525879</ele>
        <time>2021-11-18T12:43:13Z</time>
      </trkpt>
      <trkpt lat="48.36856" lon="2.80527">
        <ele>88.599998474121</ele>
        <time>2021-11-18T12:43:18Z</time>
      </trkpt>
      <trkpt lat="48.36857" lon="2.8053">
        <ele>88.599998474121</ele>
        <time>2021-11-18T12:43:23Z</time>
      </trkpt>
      <trkpt lat="48.36857" lon="2.80532">
        <ele>88.199996948242</ele>
        <time>2021-11-18T12:43:28Z</time>
      </trkpt>
      <trkpt lat="48.36855" lon="2.80531">
        <ele>88.199996948242</ele>
        <time>2021-11-18T12:43:33Z</time>
      </trkpt>
      <trkpt lat="48.36855" lon="2.80534">
        <ele>88.400001525879</ele>
        <time>2021-11-18T12:43:38Z</time>
      </trkpt>
      <trkpt lat="48.36855" lon="2.80531">
        <ele>88.400001525879</ele>
        <time>2021-11-18T12:43:43Z</time>
      </trkpt>
      <trkpt lat="48.36855" lon="2.8053">
        <ele>88.199996948242</ele>
        <time>2021-11-18T12:43:48Z</time>
      </trkpt>
      <trkpt lat="48.36853" lon="2.80541">
        <ele>88.400001525879</ele>
        <time>2021-11-18T12:43:53Z</time>
      </trkpt>
      <trkpt lat="48.36852" lon="2.80541">
        <ele>88.400001525879</ele>
        <time>2021-11-18T12:43:58Z</time>
      </trkpt>
      <trkpt lat="48.3685" lon="2.8054">
        <ele>88.199996948242</ele>
        <time>2021-11-18T12:44:03Z</time>
      </trkpt>
      <trkpt lat="48.36848" lon="2.80535">
        <ele>88.400001525879</ele>
        <time>2021-11-18T12:44:08Z</time>
      </trkpt>
      <trkpt lat="48.36846" lon="2.8053">
        <ele>88.400001525879</ele>
        <time>2021-11-18T12:44:13Z</time>
      </trkpt>
      <trkpt lat="48.36844" lon="2.80525">
        <ele>88.599998474121</ele>
        <time>2021-11-18T12:44:18Z</time>
      </trkpt>
      <trkpt lat="48.36839" lon="2.80521">
        <ele>88.599998474121</ele>
        <time>2021-11-18T12:44:23Z</time>
      </trkpt>
      <trkpt lat="48.36836" lon="2.80516">
        <ele>88.800003051758</ele>
        <time>2021-11-18T12:44:28Z</time>
      </trkpt>
      <trkpt lat="48.36832" lon="2.80512">
        <ele>89</ele>
        <time>2021-11-18T12:44:33Z</time>
      </trkpt>
      <trkpt lat="48.36829" lon="2.80505">
        <ele>89.199996948242</ele>
        <time>2021-11-18T12:44:38Z</time>
      </trkpt>
      <trkpt lat="48.36825" lon="2.80499">
        <ele>89.400001525879</ele>
        <time>2021-11-18T12:44:43Z</time>
      </trkpt>
      <trkpt lat="48.36815" lon="2.80494">
        <ele>89.599998474121</ele>
        <time>2021-11-18T12:44:48Z</time>
      </trkpt>
      <trkpt lat="48.3681" lon="2.80493">
        <ele>90</ele>
        <time>2021-11-18T12:44:53Z</time>
      </trkpt>
      <trkpt lat="48.36806" lon="2.8049">
        <ele>90</ele>
        <time>2021-11-18T12:44:58Z</time>
      </trkpt>
      <trkpt lat="48.36804" lon="2.80487">
        <ele>90.199996948242</ele>
        <time>2021-11-18T12:45:03Z</time>
      </trkpt>
      <trkpt lat="48.36801" lon="2.80487">
        <ele>90.199996948242</ele>
        <time>2021-11-18T12:45:08Z</time>
      </trkpt>
      <trkpt lat="48.36799" lon="2.80487">
        <ele>90.400001525879</ele>
        <time>2021-11-18T12:45:13Z</time>
      </trkpt>
      <trkpt lat="48.36798" lon="2.80488">
        <ele>90.599998474121</ele>
        <time>2021-11-18T12:45:18Z</time>
      </trkpt>
      <trkpt lat="48.36794" lon="2.80488">
        <ele>90.800003051758</ele>
        <time>2021-11-18T12:45:23Z</time>
      </trkpt>
      <trkpt lat="48.3679" lon="2.80489">
        <ele>91</ele>
        <time>2021-11-18T12:45:28Z</time>
      </trkpt>
      <trkpt lat="48.3679" lon="2.80489">
        <ele>91</ele>
        <time>2021-11-18T12:45:33Z</time>
      </trkpt>
      <trkpt lat="48.3679" lon="2.80493">
        <ele>91</ele>
        <time>2021-11-18T12:45:38Z</time>
      </trkpt>
      <trkpt lat="48.36789" lon="2.80496">
        <ele>91</ele>
        <time>2021-11-18T12:45:43Z</time>
      </trkpt>
      <trkpt lat="48.36789" lon="2.805">
        <ele>91</ele>
        <time>2021-11-18T12:45:48Z</time>
      </trkpt>
      <trkpt lat="48.36788" lon="2.80506">
        <ele>91</ele>
        <time>2021-11-18T12:45:53Z</time>
      </trkpt>
      <trkpt lat="48.36786" lon="2.80513">
        <ele>91</ele>
        <time>2021-11-18T12:45:58Z</time>
      </trkpt>
      <trkpt lat="48.36784" lon="2.80514">
        <ele>91.199996948242</ele>
        <time>2021-11-18T12:46:03Z</time>
      </trkpt>
      <trkpt lat="48.36783" lon="2.80516">
        <ele>91.199996948242</ele>
        <time>2021-11-18T12:46:08Z</time>
      </trkpt>
      <trkpt lat="48.36782" lon="2.80517">
        <ele>91</ele>
        <time>2021-11-18T12:46:13Z</time>
      </trkpt>
      <trkpt lat="48.36779" lon="2.80517">
        <ele>91.199996948242</ele>
        <time>2021-11-18T12:46:18Z</time>
      </trkpt>
      <trkpt lat="48.36776" lon="2.80519">
        <ele>91.199996948242</ele>
        <time>2021-11-18T12:46:23Z</time>
      </trkpt>
      <trkpt lat="48.36774" lon="2.80524">
        <ele>91.199996948242</ele>
        <time>2021-11-18T12:46:28Z</time>
      </trkpt>
      <trkpt lat="48.3677" lon="2.80534">
        <ele>91</ele>
        <time>2021-11-18T12:46:33Z</time>
      </trkpt>
      <trkpt lat="48.36751" lon="2.80558">
        <ele>91</ele>
        <time>2021-11-18T12:46:38Z</time>
      </trkpt>
      <trkpt lat="48.36744" lon="2.8056">
        <ele>91</ele>
        <time>2021-11-18T12:46:43Z</time>
      </trkpt>
      <trkpt lat="48.3674" lon="2.80562">
        <ele>91</ele>
        <time>2021-11-18T12:46:48Z</time>
      </trkpt>
      <trkpt lat="48.36738" lon="2.80562">
        <ele>91</ele>
        <time>2021-11-18T12:46:53Z</time>
      </trkpt>
      <trkpt lat="48.36736" lon="2.80565">
        <ele>91</ele>
        <time>2021-11-18T12:46:58Z</time>
      </trkpt>
      <trkpt lat="48.36734" lon="2.80564">
        <ele>91</ele>
        <time>2021-11-18T12:47:03Z</time>
      </trkpt>
      <trkpt lat="48.36737" lon="2.80577">
        <ele>91</ele>
        <time>2021-11-18T12:47:08Z</time>
      </trkpt>
      <trkpt lat="48.36741" lon="2.80586">
        <ele>91</ele>
        <time>2021-11-18T12:47:13Z</time>
      </trkpt>
      <trkpt lat="48.36744" lon="2.80595">
        <ele>91</ele>
        <time>2021-11-18T12:47:18Z</time>
      </trkpt>
      <trkpt lat="48.36747" lon="2.80603">
        <ele>91</ele>
        <time>2021-11-18T12:47:23Z</time>
      </trkpt>
      <trkpt lat="48.36752" lon="2.80609">
        <ele>90.199996948242</ele>
        <time>2021-11-18T12:47:28Z</time>
      </trkpt>
      <trkpt lat="48.36756" lon="2.80615">
        <ele>90</ele>
        <time>2021-11-18T12:47:33Z</time>
      </trkpt>
      <trkpt lat="48.36758" lon="2.80622">
        <ele>89.800003051758</ele>
        <time>2021-11-18T12:47:38Z</time>
      </trkpt>
      <trkpt lat="48.36762" lon="2.80629">
        <ele>89.599998474121</ele>
        <time>2021-11-18T12:47:43Z</time>
      </trkpt>
      <trkpt lat="48.36764" lon="2.80635">
        <ele>89.400001525879</ele>
        <time>2021-11-18T12:47:48Z</time>
      </trkpt>
      <trkpt lat="48.36763" lon="2.80646">
        <ele>89</ele>
        <time>2021-11-18T12:47:53Z</time>
      </trkpt>
      <trkpt lat="48.36761" lon="2.80657">
        <ele>88.800003051758</ele>
        <time>2021-11-18T12:47:58Z</time>
      </trkpt>
      <trkpt lat="48.36756" lon="2.80666">
        <ele>89</ele>
        <time>2021-11-18T12:48:03Z</time>
      </trkpt>
      <trkpt lat="48.36749" lon="2.8068">
        <ele>88.800003051758</ele>
        <time>2021-11-18T12:48:08Z</time>
      </trkpt>
      <trkpt lat="48.36738" lon="2.80709">
        <ele>88.800003051758</ele>
        <time>2021-11-18T12:48:13Z</time>
      </trkpt>
      <trkpt lat="48.36733" lon="2.80718">
        <ele>88.800003051758</ele>
        <time>2021-11-18T12:48:18Z</time>
      </trkpt>
      <trkpt lat="48.36729" lon="2.80727">
        <ele>88.599998474121</ele>
        <time>2021-11-18T12:48:23Z</time>
      </trkpt>
      <trkpt lat="48.36725" lon="2.80735">
        <ele>88.400001525879</ele>
        <time>2021-11-18T12:48:28Z</time>
      </trkpt>
      <trkpt lat="48.36722" lon="2.80742">
        <ele>88.400001525879</ele>
        <time>2021-11-18T12:48:33Z</time>
      </trkpt>
      <trkpt lat="48.3672" lon="2.80751">
        <ele>88.400001525879</ele>
        <time>2021-11-18T12:48:38Z</time>
      </trkpt>
      <trkpt lat="48.36718" lon="2.80759">
        <ele>88.199996948242</ele>
        <time>2021-11-18T12:48:43Z</time>
      </trkpt>
      <trkpt lat="48.36716" lon="2.80766">
        <ele>88</ele>
        <time>2021-11-18T12:48:48Z</time>
      </trkpt>
      <trkpt lat="48.36714" lon="2.80772">
        <ele>88</ele>
        <time>2021-11-18T12:48:53Z</time>
      </trkpt>
      <trkpt lat="48.36711" lon="2.80779">
        <ele>87.800003051758</ele>
        <time>2021-11-18T12:48:58Z</time>
      </trkpt>
      <trkpt lat="48.36707" lon="2.80787">
        <ele>87.800003051758</ele>
        <time>2021-11-18T12:49:03Z</time>
      </trkpt>
      <trkpt lat="48.36703" lon="2.80793">
        <ele>87.800003051758</ele>
        <time>2021-11-18T12:49:08Z</time>
      </trkpt>
      <trkpt lat="48.367" lon="2.80801">
        <ele>87.800003051758</ele>
        <time>2021-11-18T12:49:13Z</time>
      </trkpt>
      <trkpt lat="48.36698" lon="2.80807">
        <ele>87.800003051758</ele>
        <time>2021-11-18T12:49:18Z</time>
      </trkpt>
      <trkpt lat="48.36695" lon="2.80812">
        <ele>87.599998474121</ele>
        <time>2021-11-18T12:49:23Z</time>
      </trkpt>
      <trkpt lat="48.36692" lon="2.80815">
        <ele>87.599998474121</ele>
        <time>2021-11-18T12:49:28Z</time>
      </trkpt>
      <trkpt lat="48.36688" lon="2.80814">
        <ele>87.800003051758</ele>
        <time>2021-11-18T12:49:33Z</time>
      </trkpt>
      <trkpt lat="48.36683" lon="2.80811">
        <ele>87.800003051758</ele>
        <time>2021-11-18T12:49:38Z</time>
      </trkpt>
      <trkpt lat="48.36679" lon="2.80806">
        <ele>87.800003051758</ele>
        <time>2021-11-18T12:49:43Z</time>
      </trkpt>
      <trkpt lat="48.36675" lon="2.80801">
        <ele>87.800003051758</ele>
        <time>2021-11-18T12:49:48Z</time>
      </trkpt>
      <trkpt lat="48.36673" lon="2.80794">
        <ele>87.800003051758</ele>
        <time>2021-11-18T12:49:53Z</time>
      </trkpt>
      <trkpt lat="48.3667" lon="2.80789">
        <ele>88</ele>
        <time>2021-11-18T12:49:58Z</time>
      </trkpt>
      <trkpt lat="48.36666" lon="2.80784">
        <ele>88</ele>
        <time>2021-11-18T12:50:03Z</time>
      </trkpt>
      <trkpt lat="48.36664" lon="2.8078">
        <ele>88</ele>
        <time>2021-11-18T12:50:08Z</time>
      </trkpt>
      <trkpt lat="48.36663" lon="2.80779">
        <ele>88</ele>
        <time>2021-11-18T12:50:13Z</time>
      </trkpt>
      <trkpt lat="48.36661" lon="2.8078">
        <ele>88</ele>
        <time>2021-11-18T12:50:18Z</time>
      </trkpt>
      <trkpt lat="48.36655" lon="2.8078">
        <ele>88</ele>
        <time>2021-11-18T12:50:23Z</time>
      </trkpt>
      <trkpt lat="48.36653" lon="2.8078">
        <ele>88</ele>
        <time>2021-11-18T12:50:28Z</time>
      </trkpt>
      <trkpt lat="48.36651" lon="2.80781">
        <ele>88</ele>
        <time>2021-11-18T12:50:33Z</time>
      </trkpt>
      <trkpt lat="48.36648" lon="2.80781">
        <ele>88</ele>
        <time>2021-11-18T12:50:38Z</time>
      </trkpt>
      <trkpt lat="48.36646" lon="2.80782">
        <ele>88</ele>
        <time>2021-11-18T12:50:43Z</time>
      </trkpt>
      <trkpt lat="48.36646" lon="2.80783">
        <ele>87.800003051758</ele>
        <time>2021-11-18T12:50:48Z</time>
      </trkpt>
      <trkpt lat="48.36646" lon="2.80782">
        <ele>87.400001525879</ele>
        <time>2021-11-18T12:50:53Z</time>
      </trkpt>
      <trkpt lat="48.36645" lon="2.80784">
        <ele>85.800003051758</ele>
        <time>2021-11-18T12:50:58Z</time>
      </trkpt>
      <trkpt lat="48.36642" lon="2.80787">
        <ele>84.400001525879</ele>
        <time>2021-11-18T12:51:03Z</time>
      </trkpt>
      <trkpt lat="48.36634" lon="2.80783">
        <ele>84.199996948242</ele>
        <time>2021-11-18T12:51:08Z</time>
      </trkpt>
      <trkpt lat="48.36627" lon="2.80778">
        <ele>84.199996948242</ele>
        <time>2021-11-18T12:51:13Z</time>
      </trkpt>
      <trkpt lat="48.36621" lon="2.80777">
        <ele>84</ele>
        <time>2021-11-18T12:51:18Z</time>
      </trkpt>
      <trkpt lat="48.36615" lon="2.80775">
        <ele>84</ele>
        <time>2021-11-18T12:51:23Z</time>
      </trkpt>
      <trkpt lat="48.36609" lon="2.80773">
        <ele>83.800003051758</ele>
        <time>2021-11-18T12:51:28Z</time>
      </trkpt>
      <trkpt lat="48.36604" lon="2.80771">
        <ele>83.599998474121</ele>
        <time>2021-11-18T12:51:33Z</time>
      </trkpt>
      <trkpt lat="48.36598" lon="2.80768">
        <ele>83.599998474121</ele>
        <time>2021-11-18T12:51:38Z</time>
      </trkpt>
      <trkpt lat="48.36592" lon="2.80763">
        <ele>83.599998474121</ele>
        <time>2021-11-18T12:51:43Z</time>
      </trkpt>
      <trkpt lat="48.36586" lon="2.80761">
        <ele>83.400001525879</ele>
        <time>2021-11-18T12:51:48Z</time>
      </trkpt>
      <trkpt lat="48.36579" lon="2.80758">
        <ele>83.199996948242</ele>
        <time>2021-11-18T12:51:53Z</time>
      </trkpt>
      <trkpt lat="48.36574" lon="2.80755">
        <ele>83.199996948242</ele>
        <time>2021-11-18T12:51:58Z</time>
      </trkpt>
      <trkpt lat="48.36569" lon="2.80752">
        <ele>83.199996948242</ele>
        <time>2021-11-18T12:52:03Z</time>
      </trkpt>
      <trkpt lat="48.36565" lon="2.80747">
        <ele>83</ele>
        <time>2021-11-18T12:52:08Z</time>
      </trkpt>
      <trkpt lat="48.3656" lon="2.80744">
        <ele>82.800003051758</ele>
        <time>2021-11-18T12:52:13Z</time>
      </trkpt>
      <trkpt lat="48.36557" lon="2.80741">
        <ele>82.800003051758</ele>
        <time>2021-11-18T12:52:18Z</time>
      </trkpt>
      <trkpt lat="48.36553" lon="2.80737">
        <ele>82.599998474121</ele>
        <time>2021-11-18T12:52:23Z</time>
      </trkpt>
      <trkpt lat="48.3655" lon="2.80736">
        <ele>82.599998474121</ele>
        <time>2021-11-18T12:52:28Z</time>
      </trkpt>
      <trkpt lat="48.36546" lon="2.80735">
        <ele>82.599998474121</ele>
        <time>2021-11-18T12:52:33Z</time>
      </trkpt>
      <trkpt lat="48.3654" lon="2.80734">
        <ele>82.599998474121</ele>
        <time>2021-11-18T12:52:38Z</time>
      </trkpt>
      <trkpt lat="48.36536" lon="2.80733">
        <ele>82.599998474121</ele>
        <time>2021-11-18T12:52:42Z</time>
      </trkpt>
      <trkpt lat="48.36532" lon="2.80733">
        <ele>82.400001525879</ele>
        <time>2021-11-18T12:52:48Z</time>
      </trkpt>
      <trkpt lat="48.36519" lon="2.8072">
        <ele>82.400001525879</ele>
        <time>2021-11-18T12:52:53Z</time>
      </trkpt>
      <trkpt lat="48.36513" lon="2.80709">
        <ele>82</ele>
        <time>2021-11-18T12:52:58Z</time>
      </trkpt>
      <trkpt lat="48.36511" lon="2.80701">
        <ele>81.800003051758</ele>
        <time>2021-11-18T12:53:03Z</time>
      </trkpt>
      <trkpt lat="48.36506" lon="2.80695">
        <ele>81.800003051758</ele>
        <time>2021-11-18T12:53:08Z</time>
      </trkpt>
      <trkpt lat="48.36498" lon="2.80691">
        <ele>81.800003051758</ele>
        <time>2021-11-18T12:53:13Z</time>
      </trkpt>
      <trkpt lat="48.3649" lon="2.8069">
        <ele>81.599998474121</ele>
        <time>2021-11-18T12:53:18Z</time>
      </trkpt>
      <trkpt lat="48.36486" lon="2.80689">
        <ele>81.400001525879</ele>
        <time>2021-11-18T12:53:23Z</time>
      </trkpt>
      <trkpt lat="48.36485" lon="2.80688">
        <ele>81.199996948242</ele>
        <time>2021-11-18T12:53:28Z</time>
      </trkpt>
      <trkpt lat="48.36482" lon="2.8069">
        <ele>81</ele>
        <time>2021-11-18T12:53:33Z</time>
      </trkpt>
      <trkpt lat="48.36478" lon="2.8069">
        <ele>81</ele>
        <time>2021-11-18T12:53:38Z</time>
      </trkpt>
      <trkpt lat="48.36471" lon="2.80688">
        <ele>81</ele>
        <time>2021-11-18T12:53:43Z</time>
      </trkpt>
      <trkpt lat="48.36468" lon="2.80686">
        <ele>80.599998474121</ele>
        <time>2021-11-18T12:53:48Z</time>
      </trkpt>
      <trkpt lat="48.36465" lon="2.80683">
        <ele>80.400001525879</ele>
        <time>2021-11-18T12:53:53Z</time>
      </trkpt>
      <trkpt lat="48.36462" lon="2.80679">
        <ele>79.800003051758</ele>
        <time>2021-11-18T12:53:58Z</time>
      </trkpt>
      <trkpt lat="48.36459" lon="2.80673">
        <ele>79.599998474121</ele>
        <time>2021-11-18T12:54:03Z</time>
      </trkpt>
      <trkpt lat="48.36455" lon="2.80669">
        <ele>79.400001525879</ele>
        <time>2021-11-18T12:54:08Z</time>
      </trkpt>
      <trkpt lat="48.36451" lon="2.80666">
        <ele>79</ele>
        <time>2021-11-18T12:54:13Z</time>
      </trkpt>
      <trkpt lat="48.36446" lon="2.80663">
        <ele>78.800003051758</ele>
        <time>2021-11-18T12:54:18Z</time>
      </trkpt>
      <trkpt lat="48.36443" lon="2.80655">
        <ele>78.400001525879</ele>
        <time>2021-11-18T12:54:23Z</time>
      </trkpt>
      <trkpt lat="48.36439" lon="2.80648">
        <ele>78.199996948242</ele>
        <time>2021-11-18T12:54:28Z</time>
      </trkpt>
      <trkpt lat="48.36435" lon="2.80641">
        <ele>77.800003051758</ele>
        <time>2021-11-18T12:54:33Z</time>
      </trkpt>
      <trkpt lat="48.36435" lon="2.80632">
        <ele>77.400001525879</ele>
        <time>2021-11-18T12:54:38Z</time>
      </trkpt>
      <trkpt lat="48.36433" lon="2.80625">
        <ele>77.199996948242</ele>
        <time>2021-11-18T12:54:43Z</time>
      </trkpt>
      <trkpt lat="48.36431" lon="2.8062">
        <ele>77</ele>
        <time>2021-11-18T12:54:48Z</time>
      </trkpt>
      <trkpt lat="48.36428" lon="2.80612">
        <ele>76.599998474121</ele>
        <time>2021-11-18T12:54:53Z</time>
      </trkpt>
      <trkpt lat="48.36425" lon="2.80605">
        <ele>76.400001525879</ele>
        <time>2021-11-18T12:54:58Z</time>
      </trkpt>
      <trkpt lat="48.36421" lon="2.80602">
        <ele>76.199996948242</ele>
        <time>2021-11-18T12:55:03Z</time>
      </trkpt>
      <trkpt lat="48.36417" lon="2.80601">
        <ele>76</ele>
        <time>2021-11-18T12:55:08Z</time>
      </trkpt>
      <trkpt lat="48.36415" lon="2.80597">
        <ele>75.800003051758</ele>
        <time>2021-11-18T12:55:13Z</time>
      </trkpt>
      <trkpt lat="48.36412" lon="2.80591">
        <ele>75.599998474121</ele>
        <time>2021-11-18T12:55:18Z</time>
      </trkpt>
      <trkpt lat="48.36411" lon="2.80588">
        <ele>75.400001525879</ele>
        <time>2021-11-18T12:55:23Z</time>
      </trkpt>
      <trkpt lat="48.3641" lon="2.80586">
        <ele>75.199996948242</ele>
        <time>2021-11-18T12:55:28Z</time>
      </trkpt>
      <trkpt lat="48.36405" lon="2.80582">
        <ele>75</ele>
        <time>2021-11-18T12:55:33Z</time>
      </trkpt>
      <trkpt lat="48.36401" lon="2.80575">
        <ele>75</ele>
        <time>2021-11-18T12:55:38Z</time>
      </trkpt>
      <trkpt lat="48.36397" lon="2.80569">
        <ele>74.800003051758</ele>
        <time>2021-11-18T12:55:43Z</time>
      </trkpt>
      <trkpt lat="48.36396" lon="2.80562">
        <ele>74.800003051758</ele>
        <time>2021-11-18T12:55:48Z</time>
      </trkpt>
      <trkpt lat="48.36394" lon="2.80556">
        <ele>74.800003051758</ele>
        <time>2021-11-18T12:55:53Z</time>
      </trkpt>
      <trkpt lat="48.36391" lon="2.80548">
        <ele>74.599998474121</ele>
        <time>2021-11-18T12:55:58Z</time>
      </trkpt>
      <trkpt lat="48.36386" lon="2.80539">
        <ele>74.599998474121</ele>
        <time>2021-11-18T12:56:03Z</time>
      </trkpt>
      <trkpt lat="48.36383" lon="2.80533">
        <ele>74.599998474121</ele>
        <time>2021-11-18T12:56:08Z</time>
      </trkpt>
      <trkpt lat="48.36377" lon="2.80526">
        <ele>74.599998474121</ele>
        <time>2021-11-18T12:56:13Z</time>
      </trkpt>
      <trkpt lat="48.3637" lon="2.80519">
        <ele>74.599998474121</ele>
        <time>2021-11-18T12:56:18Z</time>
      </trkpt>
      <trkpt lat="48.36366" lon="2.80511">
        <ele>74.400001525879</ele>
        <time>2021-11-18T12:56:23Z</time>
      </trkpt>
      <trkpt lat="48.36363" lon="2.80505">
        <ele>74.400001525879</ele>
        <time>2021-11-18T12:56:28Z</time>
      </trkpt>
      <trkpt lat="48.36362" lon="2.80502">
        <ele>74.400001525879</ele>
        <time>2021-11-18T12:56:33Z</time>
      </trkpt>
      <trkpt lat="48.36357" lon="2.80497">
        <ele>74.400001525879</ele>
        <time>2021-11-18T12:56:38Z</time>
      </trkpt>
      <trkpt lat="48.36351" lon="2.80489">
        <ele>74.400001525879</ele>
        <time>2021-11-18T12:56:43Z</time>
      </trkpt>
      <trkpt lat="48.36345" lon="2.8048">
        <ele>74.400001525879</ele>
        <time>2021-11-18T12:56:48Z</time>
      </trkpt>
      <trkpt lat="48.3634" lon="2.80474">
        <ele>74.400001525879</ele>
        <time>2021-11-18T12:56:53Z</time>
      </trkpt>
      <trkpt lat="48.36336" lon="2.8047">
        <ele>74.400001525879</ele>
        <time>2021-11-18T12:56:58Z</time>
      </trkpt>
      <trkpt lat="48.36335" lon="2.80467">
        <ele>74.199996948242</ele>
        <time>2021-11-18T12:57:03Z</time>
      </trkpt>
      <trkpt lat="48.3633" lon="2.80459">
        <ele>74.199996948242</ele>
        <time>2021-11-18T12:57:08Z</time>
      </trkpt>
      <trkpt lat="48.36325" lon="2.8045">
        <ele>74.199996948242</ele>
        <time>2021-11-18T12:57:13Z</time>
      </trkpt>
      <trkpt lat="48.36322" lon="2.80446">
        <ele>74.400001525879</ele>
        <time>2021-11-18T12:57:18Z</time>
      </trkpt>
      <trkpt lat="48.36319" lon="2.80441">
        <ele>74.199996948242</ele>
        <time>2021-11-18T12:57:23Z</time>
      </trkpt>
      <trkpt lat="48.36315" lon="2.80434">
        <ele>74.199996948242</ele>
        <time>2021-11-18T12:57:28Z</time>
      </trkpt>
      <trkpt lat="48.3631" lon="2.80426">
        <ele>74.199996948242</ele>
        <time>2021-11-18T12:57:33Z</time>
      </trkpt>
      <trkpt lat="48.36306" lon="2.80419">
        <ele>74.199996948242</ele>
        <time>2021-11-18T12:57:38Z</time>
      </trkpt>
      <trkpt lat="48.36304" lon="2.80414">
        <ele>74.199996948242</ele>
        <time>2021-11-18T12:57:43Z</time>
      </trkpt>
      <trkpt lat="48.36301" lon="2.80409">
        <ele>74.400001525879</ele>
        <time>2021-11-18T12:57:48Z</time>
      </trkpt>
      <trkpt lat="48.36297" lon="2.80405">
        <ele>74.400001525879</ele>
        <time>2021-11-18T12:57:53Z</time>
      </trkpt>
      <trkpt lat="48.36293" lon="2.80399">
        <ele>74.400001525879</ele>
        <time>2021-11-18T12:57:58Z</time>
      </trkpt>
      <trkpt lat="48.36288" lon="2.80392">
        <ele>74.599998474121</ele>
        <time>2021-11-18T12:58:03Z</time>
      </trkpt>
      <trkpt lat="48.36284" lon="2.80383">
        <ele>74.599998474121</ele>
        <time>2021-11-18T12:58:08Z</time>
      </trkpt>
      <trkpt lat="48.36282" lon="2.80378">
        <ele>74.800003051758</ele>
        <time>2021-11-18T12:58:13Z</time>
      </trkpt>
      <trkpt lat="48.3628" lon="2.8037">
        <ele>74.800003051758</ele>
        <time>2021-11-18T12:58:18Z</time>
      </trkpt>
      <trkpt lat="48.36277" lon="2.80364">
        <ele>75</ele>
        <time>2021-11-18T12:58:23Z</time>
      </trkpt>
      <trkpt lat="48.36272" lon="2.80357">
        <ele>75</ele>
        <time>2021-11-18T12:58:28Z</time>
      </trkpt>
      <trkpt lat="48.36272" lon="2.80353">
        <ele>75</ele>
        <time>2021-11-18T12:58:33Z</time>
      </trkpt>
      <trkpt lat="48.36269" lon="2.80347">
        <ele>75.199996948242</ele>
        <time>2021-11-18T12:58:38Z</time>
      </trkpt>
      <trkpt lat="48.36267" lon="2.8034">
        <ele>75</ele>
        <time>2021-11-18T12:58:43Z</time>
      </trkpt>
      <trkpt lat="48.36263" lon="2.80333">
        <ele>75</ele>
        <time>2021-11-18T12:58:48Z</time>
      </trkpt>
      <trkpt lat="48.36261" lon="2.80329">
        <ele>75.199996948242</ele>
        <time>2021-11-18T12:58:53Z</time>
      </trkpt>
      <trkpt lat="48.36256" lon="2.80321">
        <ele>75.199996948242</ele>
        <time>2021-11-18T12:58:58Z</time>
      </trkpt>
      <trkpt lat="48.36251" lon="2.80311">
        <ele>75.199996948242</ele>
        <time>2021-11-18T12:59:03Z</time>
      </trkpt>
      <trkpt lat="48.36248" lon="2.80303">
        <ele>75.199996948242</ele>
        <time>2021-11-18T12:59:08Z</time>
      </trkpt>
      <trkpt lat="48.36245" lon="2.80295">
        <ele>75.199996948242</ele>
        <time>2021-11-18T12:59:13Z</time>
      </trkpt>
      <trkpt lat="48.36243" lon="2.80289">
        <ele>75.199996948242</ele>
        <time>2021-11-18T12:59:18Z</time>
      </trkpt>
      <trkpt lat="48.36241" lon="2.80282">
        <ele>75.400001525879</ele>
        <time>2021-11-18T12:59:23Z</time>
      </trkpt>
      <trkpt lat="48.36238" lon="2.80275">
        <ele>75.199996948242</ele>
        <time>2021-11-18T12:59:28Z</time>
      </trkpt>
      <trkpt lat="48.36236" lon="2.80268">
        <ele>75.199996948242</ele>
        <time>2021-11-18T12:59:33Z</time>
      </trkpt>
      <trkpt lat="48.36234" lon="2.80261">
        <ele>75.400001525879</ele>
        <time>2021-11-18T12:59:38Z</time>
      </trkpt>
      <trkpt lat="48.36231" lon="2.80253">
        <ele>75.400001525879</ele>
        <time>2021-11-18T12:59:43Z</time>
      </trkpt>
      <trkpt lat="48.36228" lon="2.80247">
        <ele>75.400001525879</ele>
        <time>2021-11-18T12:59:48Z</time>
      </trkpt>
      <trkpt lat="48.36226" lon="2.80241">
        <ele>75.199996948242</ele>
        <time>2021-11-18T12:59:53Z</time>
      </trkpt>
      <trkpt lat="48.36225" lon="2.80235">
        <ele>75.199996948242</ele>
        <time>2021-11-18T12:59:58Z</time>
      </trkpt>
      <trkpt lat="48.36224" lon="2.8023">
        <ele>75.400001525879</ele>
        <time>2021-11-18T13:00:03Z</time>
      </trkpt>
      <trkpt lat="48.36222" lon="2.80224">
        <ele>75.400001525879</ele>
        <time>2021-11-18T13:00:08Z</time>
      </trkpt>
      <trkpt lat="48.36222" lon="2.80219">
        <ele>75.400001525879</ele>
        <time>2021-11-18T13:00:13Z</time>
      </trkpt>
      <trkpt lat="48.36222" lon="2.80218">
        <ele>75.599998474121</ele>
        <time>2021-11-18T13:00:18Z</time>
      </trkpt>
      <trkpt lat="48.36223" lon="2.80216">
        <ele>75.400001525879</ele>
        <time>2021-11-18T13:00:23Z</time>
      </trkpt>
      <trkpt lat="48.36222" lon="2.80216">
        <ele>75.400001525879</ele>
        <time>2021-11-18T13:00:28Z</time>
      </trkpt>
      <trkpt lat="48.36222" lon="2.80216">
        <ele>75.599998474121</ele>
        <time>2021-11-18T13:00:33Z</time>
      </trkpt>
      <trkpt lat="48.36223" lon="2.80216">
        <ele>75.599998474121</ele>
        <time>2021-11-18T13:00:38Z</time>
      </trkpt>
      <trkpt lat="48.36223" lon="2.80216">
        <ele>75.599998474121</ele>
        <time>2021-11-18T13:00:43Z</time>
      </trkpt>
      <trkpt lat="48.36224" lon="2.80215">
        <ele>75.599998474121</ele>
        <time>2021-11-18T13:00:48Z</time>
      </trkpt>
      <trkpt lat="48.36225" lon="2.80214">
        <ele>75.400001525879</ele>
        <time>2021-11-18T13:00:53Z</time>
      </trkpt>
      <trkpt lat="48.36226" lon="2.80214">
        <ele>75.400001525879</ele>
        <time>2021-11-18T13:00:58Z</time>
      </trkpt>
      <trkpt lat="48.36227" lon="2.80213">
        <ele>75.400001525879</ele>
        <time>2021-11-18T13:01:03Z</time>
      </trkpt>
      <trkpt lat="48.36227" lon="2.80212">
        <ele>75.400001525879</ele>
        <time>2021-11-18T13:01:08Z</time>
      </trkpt>
      <trkpt lat="48.36226" lon="2.80211">
        <ele>75.400001525879</ele>
        <time>2021-11-18T13:01:13Z</time>
      </trkpt>
      <trkpt lat="48.36224" lon="2.80208">
        <ele>75.400001525879</ele>
        <time>2021-11-18T13:01:18Z</time>
      </trkpt>
      <trkpt lat="48.36224" lon="2.80207">
        <ele>75.400001525879</ele>
        <time>2021-11-18T13:01:23Z</time>
      </trkpt>
      <trkpt lat="48.36225" lon="2.80206">
        <ele>75.400001525879</ele>
        <time>2021-11-18T13:01:28Z</time>
      </trkpt>
      <trkpt lat="48.36224" lon="2.80205">
        <ele>75.400001525879</ele>
        <time>2021-11-18T13:01:33Z</time>
      </trkpt>
      <trkpt lat="48.36223" lon="2.80205">
        <ele>75.400001525879</ele>
        <time>2021-11-18T13:01:38Z</time>
      </trkpt>
      <trkpt lat="48.36221" lon="2.80204">
        <ele>75.400001525879</ele>
        <time>2021-11-18T13:01:43Z</time>
      </trkpt>
      <trkpt lat="48.36216" lon="2.802">
        <ele>75.400001525879</ele>
        <time>2021-11-18T13:01:48Z</time>
      </trkpt>
      <trkpt lat="48.36214" lon="2.80201">
        <ele>75.400001525879</ele>
        <time>2021-11-18T13:01:53Z</time>
      </trkpt>
      <trkpt lat="48.36213" lon="2.802">
        <ele>75.400001525879</ele>
        <time>2021-11-18T13:01:58Z</time>
      </trkpt>
      <trkpt lat="48.36212" lon="2.80199">
        <ele>75.400001525879</ele>
        <time>2021-11-18T13:02:03Z</time>
      </trkpt>
      <trkpt lat="48.36212" lon="2.80199">
        <ele>75.400001525879</ele>
        <time>2021-11-18T13:02:08Z</time>
      </trkpt>
      <trkpt lat="48.36211" lon="2.80199">
        <ele>75.400001525879</ele>
        <time>2021-11-18T13:02:13Z</time>
      </trkpt>
      <trkpt lat="48.36211" lon="2.80198">
        <ele>75.400001525879</ele>
        <time>2021-11-18T13:02:18Z</time>
      </trkpt>
      <trkpt lat="48.36212" lon="2.802">
        <ele>75.400001525879</ele>
        <time>2021-11-18T13:02:23Z</time>
      </trkpt>
      <trkpt lat="48.36211" lon="2.802">
        <ele>75.400001525879</ele>
        <time>2021-11-18T13:02:28Z</time>
      </trkpt>
      <trkpt lat="48.36211" lon="2.80199">
        <ele>75.400001525879</ele>
        <time>2021-11-18T13:02:33Z</time>
      </trkpt>
      <trkpt lat="48.36211" lon="2.80198">
        <ele>75.400001525879</ele>
        <time>2021-11-18T13:02:38Z</time>
      </trkpt>
      <trkpt lat="48.36211" lon="2.80199">
        <ele>75.400001525879</ele>
        <time>2021-11-18T13:02:43Z</time>
      </trkpt>
      <trkpt lat="48.3621" lon="2.802">
        <ele>75.400001525879</ele>
        <time>2021-11-18T13:02:48Z</time>
      </trkpt>
      <trkpt lat="48.3621" lon="2.80201">
        <ele>75.400001525879</ele>
        <time>2021-11-18T13:02:53Z</time>
      </trkpt>
      <trkpt lat="48.3621" lon="2.80201">
        <ele>75.400001525879</ele>
        <time>2021-11-18T13:02:58Z</time>
      </trkpt>
      <trkpt lat="48.36212" lon="2.802">
        <ele>75.400001525879</ele>
        <time>2021-11-18T13:03:03Z</time>
      </trkpt>
      <trkpt lat="48.36213" lon="2.80198">
        <ele>75.400001525879</ele>
        <time>2021-11-18T13:03:08Z</time>
      </trkpt>
      <trkpt lat="48.36213" lon="2.80195">
        <ele>75.400001525879</ele>
        <time>2021-11-18T13:03:13Z</time>
      </trkpt>
      <trkpt lat="48.36209" lon="2.80189">
        <ele>75.400001525879</ele>
        <time>2021-11-18T13:03:18Z</time>
      </trkpt>
      <trkpt lat="48.36208" lon="2.80184">
        <ele>75.400001525879</ele>
        <time>2021-11-18T13:03:23Z</time>
      </trkpt>
      <trkpt lat="48.36207" lon="2.8018">
        <ele>75.400001525879</ele>
        <time>2021-11-18T13:03:28Z</time>
      </trkpt>
      <trkpt lat="48.36207" lon="2.80175">
        <ele>75.400001525879</ele>
        <time>2021-11-18T13:03:33Z</time>
      </trkpt>
      <trkpt lat="48.36204" lon="2.8017">
        <ele>75.400001525879</ele>
        <time>2021-11-18T13:03:38Z</time>
      </trkpt>
      <trkpt lat="48.36203" lon="2.80165">
        <ele>75.400001525879</ele>
        <time>2021-11-18T13:03:43Z</time>
      </trkpt>
      <trkpt lat="48.362" lon="2.8016">
        <ele>75.400001525879</ele>
        <time>2021-11-18T13:03:48Z</time>
      </trkpt>
      <trkpt lat="48.36197" lon="2.80152">
        <ele>75.400001525879</ele>
        <time>2021-11-18T13:03:53Z</time>
      </trkpt>
      <trkpt lat="48.36195" lon="2.80147">
        <ele>76</ele>
        <time>2021-11-18T13:03:58Z</time>
      </trkpt>
      <trkpt lat="48.36192" lon="2.8014">
        <ele>76.199996948242</ele>
        <time>2021-11-18T13:04:03Z</time>
      </trkpt>
      <trkpt lat="48.3619" lon="2.80134">
        <ele>76.400001525879</ele>
        <time>2021-11-18T13:04:08Z</time>
      </trkpt>
      <trkpt lat="48.3619" lon="2.80128">
        <ele>76.400001525879</ele>
        <time>2021-11-18T13:04:13Z</time>
      </trkpt>
      <trkpt lat="48.36189" lon="2.80122">
        <ele>76.599998474121</ele>
        <time>2021-11-18T13:04:18Z</time>
      </trkpt>
      <trkpt lat="48.3619" lon="2.80116">
        <ele>76.800003051758</ele>
        <time>2021-11-18T13:04:23Z</time>
      </trkpt>
      <trkpt lat="48.36189" lon="2.80112">
        <ele>76.800003051758</ele>
        <time>2021-11-18T13:04:28Z</time>
      </trkpt>
      <trkpt lat="48.36185" lon="2.80103">
        <ele>77</ele>
        <time>2021-11-18T13:04:33Z</time>
      </trkpt>
      <trkpt lat="48.36181" lon="2.80096">
        <ele>77.199996948242</ele>
        <time>2021-11-18T13:04:38Z</time>
      </trkpt>
      <trkpt lat="48.36179" lon="2.80088">
        <ele>77.400001525879</ele>
        <time>2021-11-18T13:04:43Z</time>
      </trkpt>
      <trkpt lat="48.36177" lon="2.80081">
        <ele>77.599998474121</ele>
        <time>2021-11-18T13:04:48Z</time>
      </trkpt>
      <trkpt lat="48.36176" lon="2.80074">
        <ele>78</ele>
        <time>2021-11-18T13:04:53Z</time>
      </trkpt>
      <trkpt lat="48.36175" lon="2.80069">
        <ele>78</ele>
        <time>2021-11-18T13:04:58Z</time>
      </trkpt>
      <trkpt lat="48.36172" lon="2.80061">
        <ele>78.199996948242</ele>
        <time>2021-11-18T13:05:03Z</time>
      </trkpt>
      <trkpt lat="48.36169" lon="2.80054">
        <ele>78.400001525879</ele>
        <time>2021-11-18T13:05:08Z</time>
      </trkpt>
      <trkpt lat="48.36165" lon="2.80045">
        <ele>78.400001525879</ele>
        <time>2021-11-18T13:05:13Z</time>
      </trkpt>
      <trkpt lat="48.36163" lon="2.80037">
        <ele>78.599998474121</ele>
        <time>2021-11-18T13:05:18Z</time>
      </trkpt>
      <trkpt lat="48.36161" lon="2.80032">
        <ele>78.599998474121</ele>
        <time>2021-11-18T13:05:23Z</time>
      </trkpt>
      <trkpt lat="48.36158" lon="2.80025">
        <ele>78.599998474121</ele>
        <time>2021-11-18T13:05:28Z</time>
      </trkpt>
      <trkpt lat="48.36157" lon="2.80023">
        <ele>78.800003051758</ele>
        <time>2021-11-18T13:05:33Z</time>
      </trkpt>
      <trkpt lat="48.36156" lon="2.80019">
        <ele>78.800003051758</ele>
        <time>2021-11-18T13:05:38Z</time>
      </trkpt>
      <trkpt lat="48.36153" lon="2.80008">
        <ele>78.800003051758</ele>
        <time>2021-11-18T13:05:43Z</time>
      </trkpt>
      <trkpt lat="48.3615" lon="2.79996">
        <ele>79</ele>
        <time>2021-11-18T13:05:48Z</time>
      </trkpt>
      <trkpt lat="48.36148" lon="2.79987">
        <ele>79</ele>
        <time>2021-11-18T13:05:53Z</time>
      </trkpt>
      <trkpt lat="48.36146" lon="2.79981">
        <ele>79</ele>
        <time>2021-11-18T13:05:58Z</time>
      </trkpt>
      <trkpt lat="48.36144" lon="2.79975">
        <ele>79.199996948242</ele>
        <time>2021-11-18T13:06:03Z</time>
      </trkpt>
      <trkpt lat="48.36141" lon="2.79966">
        <ele>79.400001525879</ele>
        <time>2021-11-18T13:06:08Z</time>
      </trkpt>
      <trkpt lat="48.36139" lon="2.79961">
        <ele>79.599998474121</ele>
        <time>2021-11-18T13:06:13Z</time>
      </trkpt>
      <trkpt lat="48.36137" lon="2.79956">
        <ele>79.599998474121</ele>
        <time>2021-11-18T13:06:18Z</time>
      </trkpt>
      <trkpt lat="48.36134" lon="2.79949">
        <ele>79.800003051758</ele>
        <time>2021-11-18T13:06:23Z</time>
      </trkpt>
      <trkpt lat="48.36132" lon="2.79938">
        <ele>79.800003051758</ele>
        <time>2021-11-18T13:06:28Z</time>
      </trkpt>
      <trkpt lat="48.36129" lon="2.79931">
        <ele>79.599998474121</ele>
        <time>2021-11-18T13:06:33Z</time>
      </trkpt>
      <trkpt lat="48.36127" lon="2.79925">
        <ele>79.599998474121</ele>
        <time>2021-11-18T13:06:38Z</time>
      </trkpt>
      <trkpt lat="48.36125" lon="2.79919">
        <ele>79.400001525879</ele>
        <time>2021-11-18T13:06:43Z</time>
      </trkpt>
      <trkpt lat="48.36123" lon="2.79913">
        <ele>79.400001525879</ele>
        <time>2021-11-18T13:06:48Z</time>
      </trkpt>
      <trkpt lat="48.36122" lon="2.79909">
        <ele>79.400001525879</ele>
        <time>2021-11-18T13:06:53Z</time>
      </trkpt>
      <trkpt lat="48.36121" lon="2.79904">
        <ele>79.400001525879</ele>
        <time>2021-11-18T13:06:58Z</time>
      </trkpt>
      <trkpt lat="48.36119" lon="2.79897">
        <ele>79.400001525879</ele>
        <time>2021-11-18T13:07:03Z</time>
      </trkpt>
      <trkpt lat="48.36116" lon="2.79886">
        <ele>79.400001525879</ele>
        <time>2021-11-18T13:07:08Z</time>
      </trkpt>
      <trkpt lat="48.36114" lon="2.79879">
        <ele>79.199996948242</ele>
        <time>2021-11-18T13:07:13Z</time>
      </trkpt>
      <trkpt lat="48.36112" lon="2.7987">
        <ele>79.199996948242</ele>
        <time>2021-11-18T13:07:18Z</time>
      </trkpt>
      <trkpt lat="48.36111" lon="2.79863">
        <ele>79.199996948242</ele>
        <time>2021-11-18T13:07:23Z</time>
      </trkpt>
      <trkpt lat="48.3611" lon="2.79857">
        <ele>79.400001525879</ele>
        <time>2021-11-18T13:07:28Z</time>
      </trkpt>
      <trkpt lat="48.36107" lon="2.79852">
        <ele>79.400001525879</ele>
        <time>2021-11-18T13:07:33Z</time>
      </trkpt>
      <trkpt lat="48.36106" lon="2.79846">
        <ele>79.400001525879</ele>
        <time>2021-11-18T13:07:38Z</time>
      </trkpt>
      <trkpt lat="48.36104" lon="2.79839">
        <ele>79.400001525879</ele>
        <time>2021-11-18T13:07:43Z</time>
      </trkpt>
      <trkpt lat="48.36102" lon="2.79834">
        <ele>79.199996948242</ele>
        <time>2021-11-18T13:07:48Z</time>
      </trkpt>
      <trkpt lat="48.36099" lon="2.79826">
        <ele>79.199996948242</ele>
        <time>2021-11-18T13:07:53Z</time>
      </trkpt>
      <trkpt lat="48.36099" lon="2.79821">
        <ele>79.199996948242</ele>
        <time>2021-11-18T13:07:58Z</time>
      </trkpt>
      <trkpt lat="48.36098" lon="2.79817">
        <ele>79.199996948242</ele>
        <time>2021-11-18T13:08:03Z</time>
      </trkpt>
      <trkpt lat="48.36095" lon="2.79808">
        <ele>79.199996948242</ele>
        <time>2021-11-18T13:08:08Z</time>
      </trkpt>
      <trkpt lat="48.36092" lon="2.798">
        <ele>79.199996948242</ele>
        <time>2021-11-18T13:08:13Z</time>
      </trkpt>
      <trkpt lat="48.36088" lon="2.7979">
        <ele>79.199996948242</ele>
        <time>2021-11-18T13:08:18Z</time>
      </trkpt>
      <trkpt lat="48.36083" lon="2.79781">
        <ele>79</ele>
        <time>2021-11-18T13:08:23Z</time>
      </trkpt>
      <trkpt lat="48.3608" lon="2.79774">
        <ele>78.800003051758</ele>
        <time>2021-11-18T13:08:28Z</time>
      </trkpt>
      <trkpt lat="48.36077" lon="2.79767">
        <ele>78.599998474121</ele>
        <time>2021-11-18T13:08:33Z</time>
      </trkpt>
      <trkpt lat="48.36074" lon="2.79758">
        <ele>78.400001525879</ele>
        <time>2021-11-18T13:08:38Z</time>
      </trkpt>
      <trkpt lat="48.36072" lon="2.7975">
        <ele>78.400001525879</ele>
        <time>2021-11-18T13:08:43Z</time>
      </trkpt>
      <trkpt lat="48.36069" lon="2.79741">
        <ele>78.199996948242</ele>
        <time>2021-11-18T13:08:48Z</time>
      </trkpt>
      <trkpt lat="48.36065" lon="2.79732">
        <ele>78</ele>
        <time>2021-11-18T13:08:53Z</time>
      </trkpt>
      <trkpt lat="48.36063" lon="2.79725">
        <ele>78</ele>
        <time>2021-11-18T13:08:58Z</time>
      </trkpt>
      <trkpt lat="48.36062" lon="2.79717">
        <ele>77.800003051758</ele>
        <time>2021-11-18T13:09:03Z</time>
      </trkpt>
      <trkpt lat="48.36061" lon="2.79709">
        <ele>77.800003051758</ele>
        <time>2021-11-18T13:09:08Z</time>
      </trkpt>
      <trkpt lat="48.36059" lon="2.79701">
        <ele>77.800003051758</ele>
        <time>2021-11-18T13:09:13Z</time>
      </trkpt>
      <trkpt lat="48.36056" lon="2.79693">
        <ele>77.599998474121</ele>
        <time>2021-11-18T13:09:18Z</time>
      </trkpt>
      <trkpt lat="48.36054" lon="2.79687">
        <ele>77.599998474121</ele>
        <time>2021-11-18T13:09:23Z</time>
      </trkpt>
      <trkpt lat="48.36051" lon="2.79682">
        <ele>77.400001525879</ele>
        <time>2021-11-18T13:09:28Z</time>
      </trkpt>
      <trkpt lat="48.36049" lon="2.79675">
        <ele>77</ele>
        <time>2021-11-18T13:09:33Z</time>
      </trkpt>
      <trkpt lat="48.36048" lon="2.7967">
        <ele>77</ele>
        <time>2021-11-18T13:09:38Z</time>
      </trkpt>
      <trkpt lat="48.36046" lon="2.79665">
        <ele>77</ele>
        <time>2021-11-18T13:09:43Z</time>
      </trkpt>
      <trkpt lat="48.36044" lon="2.79658">
        <ele>76.800003051758</ele>
        <time>2021-11-18T13:09:48Z</time>
      </trkpt>
      <trkpt lat="48.36042" lon="2.79649">
        <ele>76.599998474121</ele>
        <time>2021-11-18T13:09:53Z</time>
      </trkpt>
      <trkpt lat="48.36039" lon="2.79642">
        <ele>76.400001525879</ele>
        <time>2021-11-18T13:09:58Z</time>
      </trkpt>
      <trkpt lat="48.36036" lon="2.79635">
        <ele>76</ele>
        <time>2021-11-18T13:10:03Z</time>
      </trkpt>
      <trkpt lat="48.36033" lon="2.79627">
        <ele>75.800003051758</ele>
        <time>2021-11-18T13:10:08Z</time>
      </trkpt>
      <trkpt lat="48.3603" lon="2.7962">
        <ele>75.599998474121</ele>
        <time>2021-11-18T13:10:13Z</time>
      </trkpt>
      <trkpt lat="48.36028" lon="2.79613">
        <ele>75.400001525879</ele>
        <time>2021-11-18T13:10:18Z</time>
      </trkpt>
      <trkpt lat="48.36027" lon="2.79605">
        <ele>75</ele>
        <time>2021-11-18T13:10:23Z</time>
      </trkpt>
      <trkpt lat="48.36025" lon="2.79598">
        <ele>74.800003051758</ele>
        <time>2021-11-18T13:10:28Z</time>
      </trkpt>
      <trkpt lat="48.36024" lon="2.7959">
        <ele>74.599998474121</ele>
        <time>2021-11-18T13:10:33Z</time>
      </trkpt>
      <trkpt lat="48.36022" lon="2.79583">
        <ele>74.400001525879</ele>
        <time>2021-11-18T13:10:38Z</time>
      </trkpt>
      <trkpt lat="48.3602" lon="2.79576">
        <ele>74.199996948242</ele>
        <time>2021-11-18T13:10:43Z</time>
      </trkpt>
      <trkpt lat="48.36018" lon="2.79569">
        <ele>74.199996948242</ele>
        <time>2021-11-18T13:10:48Z</time>
      </trkpt>
      <trkpt lat="48.36015" lon="2.79558">
        <ele>74</ele>
        <time>2021-11-18T13:10:53Z</time>
      </trkpt>
      <trkpt lat="48.36013" lon="2.79551">
        <ele>74</ele>
        <time>2021-11-18T13:10:58Z</time>
      </trkpt>
      <trkpt lat="48.3601" lon="2.79544">
        <ele>73.800003051758</ele>
        <time>2021-11-18T13:11:03Z</time>
      </trkpt>
      <trkpt lat="48.36007" lon="2.79536">
        <ele>73.599998474121</ele>
        <time>2021-11-18T13:11:08Z</time>
      </trkpt>
      <trkpt lat="48.36003" lon="2.79527">
        <ele>73.400001525879</ele>
        <time>2021-11-18T13:11:13Z</time>
      </trkpt>
      <trkpt lat="48.36" lon="2.7952">
        <ele>73.199996948242</ele>
        <time>2021-11-18T13:11:18Z</time>
      </trkpt>
      <trkpt lat="48.35997" lon="2.79514">
        <ele>73</ele>
        <time>2021-11-18T13:11:23Z</time>
      </trkpt>
      <trkpt lat="48.35995" lon="2.79508">
        <ele>72.800003051758</ele>
        <time>2021-11-18T13:11:28Z</time>
      </trkpt>
      <trkpt lat="48.35993" lon="2.79501">
        <ele>72.800003051758</ele>
        <time>2021-11-18T13:11:33Z</time>
      </trkpt>
      <trkpt lat="48.3599" lon="2.79492">
        <ele>72.599998474121</ele>
        <time>2021-11-18T13:11:38Z</time>
      </trkpt>
      <trkpt lat="48.35987" lon="2.79486">
        <ele>72.400001525879</ele>
        <time>2021-11-18T13:11:43Z</time>
      </trkpt>
      <trkpt lat="48.35983" lon="2.79477">
        <ele>72.400001525879</ele>
        <time>2021-11-18T13:11:48Z</time>
      </trkpt>
      <trkpt lat="48.35981" lon="2.7947">
        <ele>72.199996948242</ele>
        <time>2021-11-18T13:11:53Z</time>
      </trkpt>
      <trkpt lat="48.35981" lon="2.79464">
        <ele>72.199996948242</ele>
        <time>2021-11-18T13:11:58Z</time>
      </trkpt>
      <trkpt lat="48.35978" lon="2.79456">
        <ele>72.199996948242</ele>
        <time>2021-11-18T13:12:03Z</time>
      </trkpt>
      <trkpt lat="48.35977" lon="2.7945">
        <ele>72.199996948242</ele>
        <time>2021-11-18T13:12:08Z</time>
      </trkpt>
      <trkpt lat="48.35975" lon="2.79444">
        <ele>72.199996948242</ele>
        <time>2021-11-18T13:12:13Z</time>
      </trkpt>
      <trkpt lat="48.35974" lon="2.79437">
        <ele>72.199996948242</ele>
        <time>2021-11-18T13:12:18Z</time>
      </trkpt>
      <trkpt lat="48.35974" lon="2.79431">
        <ele>72.199996948242</ele>
        <time>2021-11-18T13:12:23Z</time>
      </trkpt>
      <trkpt lat="48.35974" lon="2.79424">
        <ele>72.199996948242</ele>
        <time>2021-11-18T13:12:28Z</time>
      </trkpt>
      <trkpt lat="48.35972" lon="2.79418">
        <ele>72.199996948242</ele>
        <time>2021-11-18T13:12:33Z</time>
      </trkpt>
      <trkpt lat="48.35969" lon="2.7941">
        <ele>72.199996948242</ele>
        <time>2021-11-18T13:12:38Z</time>
      </trkpt>
      <trkpt lat="48.35966" lon="2.79403">
        <ele>72.400001525879</ele>
        <time>2021-11-18T13:12:43Z</time>
      </trkpt>
      <trkpt lat="48.35963" lon="2.79397">
        <ele>72.400001525879</ele>
        <time>2021-11-18T13:12:48Z</time>
      </trkpt>
      <trkpt lat="48.35962" lon="2.79392">
        <ele>72.400001525879</ele>
        <time>2021-11-18T13:12:53Z</time>
      </trkpt>
      <trkpt lat="48.35959" lon="2.79386">
        <ele>72.599998474121</ele>
        <time>2021-11-18T13:12:58Z</time>
      </trkpt>
      <trkpt lat="48.35959" lon="2.79379">
        <ele>72.599998474121</ele>
        <time>2021-11-18T13:13:03Z</time>
      </trkpt>
      <trkpt lat="48.35956" lon="2.7937">
        <ele>72.800003051758</ele>
        <time>2021-11-18T13:13:08Z</time>
      </trkpt>
      <trkpt lat="48.35952" lon="2.79361">
        <ele>73.199996948242</ele>
        <time>2021-11-18T13:13:13Z</time>
      </trkpt>
      <trkpt lat="48.35949" lon="2.79352">
        <ele>73.400001525879</ele>
        <time>2021-11-18T13:13:18Z</time>
      </trkpt>
      <trkpt lat="48.35948" lon="2.79345">
        <ele>73.400001525879</ele>
        <time>2021-11-18T13:13:23Z</time>
      </trkpt>
      <trkpt lat="48.35946" lon="2.79338">
        <ele>73.199996948242</ele>
        <time>2021-11-18T13:13:28Z</time>
      </trkpt>
      <trkpt lat="48.35944" lon="2.79331">
        <ele>72.599998474121</ele>
        <time>2021-11-18T13:13:33Z</time>
      </trkpt>
      <trkpt lat="48.35942" lon="2.79324">
        <ele>72.199996948242</ele>
        <time>2021-11-18T13:13:38Z</time>
      </trkpt>
      <trkpt lat="48.3594" lon="2.79316">
        <ele>72</ele>
        <time>2021-11-18T13:13:43Z</time>
      </trkpt>
      <trkpt lat="48.35939" lon="2.79309">
        <ele>72</ele>
        <time>2021-11-18T13:13:48Z</time>
      </trkpt>
      <trkpt lat="48.35938" lon="2.79304">
        <ele>72</ele>
        <time>2021-11-18T13:13:53Z</time>
      </trkpt>
      <trkpt lat="48.35936" lon="2.79297">
        <ele>72</ele>
        <time>2021-11-18T13:13:58Z</time>
      </trkpt>
      <trkpt lat="48.35934" lon="2.79292">
        <ele>72.199996948242</ele>
        <time>2021-11-18T13:14:03Z</time>
      </trkpt>
      <trkpt lat="48.35931" lon="2.79285">
        <ele>72.199996948242</ele>
        <time>2021-11-18T13:14:08Z</time>
      </trkpt>
      <trkpt lat="48.35928" lon="2.79277">
        <ele>72.400001525879</ele>
        <time>2021-11-18T13:14:13Z</time>
      </trkpt>
      <trkpt lat="48.35926" lon="2.79271">
        <ele>72.400001525879</ele>
        <time>2021-11-18T13:14:18Z</time>
      </trkpt>
      <trkpt lat="48.35923" lon="2.79266">
        <ele>72.599998474121</ele>
        <time>2021-11-18T13:14:23Z</time>
      </trkpt>
      <trkpt lat="48.35921" lon="2.79259">
        <ele>72.599998474121</ele>
        <time>2021-11-18T13:14:28Z</time>
      </trkpt>
      <trkpt lat="48.35919" lon="2.79251">
        <ele>72.800003051758</ele>
        <time>2021-11-18T13:14:33Z</time>
      </trkpt>
      <trkpt lat="48.35918" lon="2.79243">
        <ele>73</ele>
        <time>2021-11-18T13:14:38Z</time>
      </trkpt>
      <trkpt lat="48.35915" lon="2.79238">
        <ele>73.199996948242</ele>
        <time>2021-11-18T13:14:43Z</time>
      </trkpt>
      <trkpt lat="48.35912" lon="2.79232">
        <ele>73.400001525879</ele>
        <time>2021-11-18T13:14:48Z</time>
      </trkpt>
      <trkpt lat="48.35909" lon="2.79228">
        <ele>73.800003051758</ele>
        <time>2021-11-18T13:14:53Z</time>
      </trkpt>
      <trkpt lat="48.35904" lon="2.79223">
        <ele>73.800003051758</ele>
        <time>2021-11-18T13:14:58Z</time>
      </trkpt>
      <trkpt lat="48.359" lon="2.79219">
        <ele>74</ele>
        <time>2021-11-18T13:15:03Z</time>
      </trkpt>
      <trkpt lat="48.35895" lon="2.79214">
        <ele>74.199996948242</ele>
        <time>2021-11-18T13:15:08Z</time>
      </trkpt>
      <trkpt lat="48.3589" lon="2.79209">
        <ele>74.599998474121</ele>
        <time>2021-11-18T13:15:13Z</time>
      </trkpt>
      <trkpt lat="48.35883" lon="2.79204">
        <ele>75</ele>
        <time>2021-11-18T13:15:18Z</time>
      </trkpt>
      <trkpt lat="48.35879" lon="2.792">
        <ele>75.199996948242</ele>
        <time>2021-11-18T13:15:23Z</time>
      </trkpt>
      <trkpt lat="48.35876" lon="2.79196">
        <ele>75.400001525879</ele>
        <time>2021-11-18T13:15:28Z</time>
      </trkpt>
      <trkpt lat="48.35873" lon="2.79192">
        <ele>75.599998474121</ele>
        <time>2021-11-18T13:15:33Z</time>
      </trkpt>
      <trkpt lat="48.35868" lon="2.79185">
        <ele>75.800003051758</ele>
        <time>2021-11-18T13:15:38Z</time>
      </trkpt>
      <trkpt lat="48.35865" lon="2.7918">
        <ele>76</ele>
        <time>2021-11-18T13:15:43Z</time>
      </trkpt>
      <trkpt lat="48.3586" lon="2.79178">
        <ele>76.199996948242</ele>
        <time>2021-11-18T13:15:48Z</time>
      </trkpt>
      <trkpt lat="48.35855" lon="2.79176">
        <ele>76.400001525879</ele>
        <time>2021-11-18T13:15:53Z</time>
      </trkpt>
      <trkpt lat="48.35851" lon="2.79172">
        <ele>76.400001525879</ele>
        <time>2021-11-18T13:15:58Z</time>
      </trkpt>
      <trkpt lat="48.35845" lon="2.79167">
        <ele>76.599998474121</ele>
        <time>2021-11-18T13:16:03Z</time>
      </trkpt>
      <trkpt lat="48.3584" lon="2.79161">
        <ele>76.800003051758</ele>
        <time>2021-11-18T13:16:08Z</time>
      </trkpt>
      <trkpt lat="48.35838" lon="2.79158">
        <ele>77</ele>
        <time>2021-11-18T13:16:13Z</time>
      </trkpt>
      <trkpt lat="48.35834" lon="2.79154">
        <ele>77.400001525879</ele>
        <time>2021-11-18T13:16:18Z</time>
      </trkpt>
      <trkpt lat="48.35828" lon="2.79148">
        <ele>77.400001525879</ele>
        <time>2021-11-18T13:16:23Z</time>
      </trkpt>
      <trkpt lat="48.35822" lon="2.79143">
        <ele>77.400001525879</ele>
        <time>2021-11-18T13:16:28Z</time>
      </trkpt>
      <trkpt lat="48.35818" lon="2.79139">
        <ele>77.599998474121</ele>
        <time>2021-11-18T13:16:33Z</time>
      </trkpt>
      <trkpt lat="48.35814" lon="2.79136">
        <ele>78</ele>
        <time>2021-11-18T13:16:38Z</time>
      </trkpt>
      <trkpt lat="48.35811" lon="2.79133">
        <ele>78</ele>
        <time>2021-11-18T13:16:43Z</time>
      </trkpt>
      <trkpt lat="48.35806" lon="2.79128">
        <ele>78.199996948242</ele>
        <time>2021-11-18T13:16:48Z</time>
      </trkpt>
      <trkpt lat="48.35801" lon="2.79123">
        <ele>78.199996948242</ele>
        <time>2021-11-18T13:16:53Z</time>
      </trkpt>
      <trkpt lat="48.35795" lon="2.79117">
        <ele>78.400001525879</ele>
        <time>2021-11-18T13:16:58Z</time>
      </trkpt>
      <trkpt lat="48.3579" lon="2.79114">
        <ele>78.400001525879</ele>
        <time>2021-11-18T13:17:03Z</time>
      </trkpt>
      <trkpt lat="48.35789" lon="2.79115">
        <ele>78.599998474121</ele>
        <time>2021-11-18T13:17:08Z</time>
      </trkpt>
      <trkpt lat="48.35788" lon="2.79115">
        <ele>78.599998474121</ele>
        <time>2021-11-18T13:17:13Z</time>
      </trkpt>
      <trkpt lat="48.35789" lon="2.79115">
        <ele>78.599998474121</ele>
        <time>2021-11-18T13:17:18Z</time>
      </trkpt>
      <trkpt lat="48.35788" lon="2.79113">
        <ele>78.400001525879</ele>
        <time>2021-11-18T13:17:23Z</time>
      </trkpt>
      <trkpt lat="48.3579" lon="2.79108">
        <ele>78.400001525879</ele>
        <time>2021-11-18T13:17:28Z</time>
      </trkpt>
      <trkpt lat="48.35791" lon="2.79102">
        <ele>78.800003051758</ele>
        <time>2021-11-18T13:17:33Z</time>
      </trkpt>
      <trkpt lat="48.35793" lon="2.79099">
        <ele>79</ele>
        <time>2021-11-18T13:17:38Z</time>
      </trkpt>
      <trkpt lat="48.35795" lon="2.79095">
        <ele>79.199996948242</ele>
        <time>2021-11-18T13:17:43Z</time>
      </trkpt>
      <trkpt lat="48.35796" lon="2.79089">
        <ele>79.199996948242</ele>
        <time>2021-11-18T13:17:48Z</time>
      </trkpt>
      <trkpt lat="48.35799" lon="2.79083">
        <ele>79.199996948242</ele>
        <time>2021-11-18T13:17:53Z</time>
      </trkpt>
      <trkpt lat="48.358" lon="2.79076">
        <ele>79.199996948242</ele>
        <time>2021-11-18T13:17:58Z</time>
      </trkpt>
      <trkpt lat="48.35801" lon="2.79069">
        <ele>79.400001525879</ele>
        <time>2021-11-18T13:18:03Z</time>
      </trkpt>
      <trkpt lat="48.35803" lon="2.79062">
        <ele>79.599998474121</ele>
        <time>2021-11-18T13:18:08Z</time>
      </trkpt>
      <trkpt lat="48.35805" lon="2.79056">
        <ele>79.599998474121</ele>
        <time>2021-11-18T13:18:13Z</time>
      </trkpt>
      <trkpt lat="48.35809" lon="2.79049">
        <ele>79.599998474121</ele>
        <time>2021-11-18T13:18:18Z</time>
      </trkpt>
      <trkpt lat="48.35809" lon="2.79041">
        <ele>79.599998474121</ele>
        <time>2021-11-18T13:18:23Z</time>
      </trkpt>
      <trkpt lat="48.3581" lon="2.79034">
        <ele>79.800003051758</ele>
        <time>2021-11-18T13:18:28Z</time>
      </trkpt>
      <trkpt lat="48.35809" lon="2.79025">
        <ele>79.800003051758</ele>
        <time>2021-11-18T13:18:33Z</time>
      </trkpt>
      <trkpt lat="48.35811" lon="2.79018">
        <ele>80</ele>
        <time>2021-11-18T13:18:38Z</time>
      </trkpt>
      <trkpt lat="48.35813" lon="2.79012">
        <ele>80</ele>
        <time>2021-11-18T13:18:43Z</time>
      </trkpt>
      <trkpt lat="48.35813" lon="2.79006">
        <ele>80.199996948242</ele>
        <time>2021-11-18T13:18:48Z</time>
      </trkpt>
      <trkpt lat="48.35815" lon="2.79">
        <ele>80.199996948242</ele>
        <time>2021-11-18T13:18:53Z</time>
      </trkpt>
      <trkpt lat="48.35815" lon="2.78991">
        <ele>80.199996948242</ele>
        <time>2021-11-18T13:18:58Z</time>
      </trkpt>
      <trkpt lat="48.35815" lon="2.78983">
        <ele>80.199996948242</ele>
        <time>2021-11-18T13:19:03Z</time>
      </trkpt>
      <trkpt lat="48.35816" lon="2.78976">
        <ele>80.199996948242</ele>
        <time>2021-11-18T13:19:08Z</time>
      </trkpt>
      <trkpt lat="48.35818" lon="2.78965">
        <ele>80.199996948242</ele>
        <time>2021-11-18T13:19:13Z</time>
      </trkpt>
      <trkpt lat="48.35821" lon="2.78959">
        <ele>80.400001525879</ele>
        <time>2021-11-18T13:19:18Z</time>
      </trkpt>
      <trkpt lat="48.35821" lon="2.78951">
        <ele>80.400001525879</ele>
        <time>2021-11-18T13:19:23Z</time>
      </trkpt>
      <trkpt lat="48.35821" lon="2.78943">
        <ele>80.400001525879</ele>
        <time>2021-11-18T13:19:28Z</time>
      </trkpt>
      <trkpt lat="48.35823" lon="2.78938">
        <ele>80.400001525879</ele>
        <time>2021-11-18T13:19:33Z</time>
      </trkpt>
      <trkpt lat="48.35824" lon="2.78931">
        <ele>80.400001525879</ele>
        <time>2021-11-18T13:19:38Z</time>
      </trkpt>
      <trkpt lat="48.35822" lon="2.78922">
        <ele>80.400001525879</ele>
        <time>2021-11-18T13:19:43Z</time>
      </trkpt>
      <trkpt lat="48.35824" lon="2.78914">
        <ele>80.400001525879</ele>
        <time>2021-11-18T13:19:48Z</time>
      </trkpt>
      <trkpt lat="48.35826" lon="2.78906">
        <ele>80.400001525879</ele>
        <time>2021-11-18T13:19:53Z</time>
      </trkpt>
      <trkpt lat="48.35828" lon="2.78898">
        <ele>80.400001525879</ele>
        <time>2021-11-18T13:19:58Z</time>
      </trkpt>
      <trkpt lat="48.35829" lon="2.78891">
        <ele>80.400001525879</ele>
        <time>2021-11-18T13:20:03Z</time>
      </trkpt>
      <trkpt lat="48.35832" lon="2.78884">
        <ele>80.400001525879</ele>
        <time>2021-11-18T13:20:08Z</time>
      </trkpt>
      <trkpt lat="48.35833" lon="2.78875">
        <ele>80.400001525879</ele>
        <time>2021-11-18T13:20:13Z</time>
      </trkpt>
      <trkpt lat="48.35833" lon="2.78867">
        <ele>80.400001525879</ele>
        <time>2021-11-18T13:20:18Z</time>
      </trkpt>
      <trkpt lat="48.35834" lon="2.78858">
        <ele>80.400001525879</ele>
        <time>2021-11-18T13:20:23Z</time>
      </trkpt>
      <trkpt lat="48.35834" lon="2.78851">
        <ele>80.400001525879</ele>
        <time>2021-11-18T13:20:28Z</time>
      </trkpt>
      <trkpt lat="48.35835" lon="2.78842">
        <ele>80.599998474121</ele>
        <time>2021-11-18T13:20:33Z</time>
      </trkpt>
      <trkpt lat="48.35837" lon="2.78835">
        <ele>80.599998474121</ele>
        <time>2021-11-18T13:20:38Z</time>
      </trkpt>
      <trkpt lat="48.35838" lon="2.7883">
        <ele>80.599998474121</ele>
        <time>2021-11-18T13:20:43Z</time>
      </trkpt>
      <trkpt lat="48.35839" lon="2.78821">
        <ele>80.599998474121</ele>
        <time>2021-11-18T13:20:48Z</time>
      </trkpt>
      <trkpt lat="48.3584" lon="2.78815">
        <ele>80.599998474121</ele>
        <time>2021-11-18T13:20:53Z</time>
      </trkpt>
      <trkpt lat="48.3584" lon="2.78805">
        <ele>80.800003051758</ele>
        <time>2021-11-18T13:20:58Z</time>
      </trkpt>
      <trkpt lat="48.35841" lon="2.78796">
        <ele>80.800003051758</ele>
        <time>2021-11-18T13:21:03Z</time>
      </trkpt>
      <trkpt lat="48.35841" lon="2.78789">
        <ele>80.800003051758</ele>
        <time>2021-11-18T13:21:08Z</time>
      </trkpt>
      <trkpt lat="48.35842" lon="2.78781">
        <ele>81</ele>
        <time>2021-11-18T13:21:13Z</time>
      </trkpt>
      <trkpt lat="48.35844" lon="2.78774">
        <ele>81.199996948242</ele>
        <time>2021-11-18T13:21:18Z</time>
      </trkpt>
      <trkpt lat="48.35844" lon="2.78769">
        <ele>81.199996948242</ele>
        <time>2021-11-18T13:21:23Z</time>
      </trkpt>
      <trkpt lat="48.35844" lon="2.7876">
        <ele>81</ele>
        <time>2021-11-18T13:21:28Z</time>
      </trkpt>
      <trkpt lat="48.35843" lon="2.78751">
        <ele>81</ele>
        <time>2021-11-18T13:21:33Z</time>
      </trkpt>
      <trkpt lat="48.35845" lon="2.78742">
        <ele>80.800003051758</ele>
        <time>2021-11-18T13:21:38Z</time>
      </trkpt>
      <trkpt lat="48.35845" lon="2.78733">
        <ele>80.800003051758</ele>
        <time>2021-11-18T13:21:43Z</time>
      </trkpt>
      <trkpt lat="48.35847" lon="2.78726">
        <ele>80.599998474121</ele>
        <time>2021-11-18T13:21:48Z</time>
      </trkpt>
      <trkpt lat="48.35848" lon="2.7872">
        <ele>80.400001525879</ele>
        <time>2021-11-18T13:21:53Z</time>
      </trkpt>
      <trkpt lat="48.3585" lon="2.78713">
        <ele>80.199996948242</ele>
        <time>2021-11-18T13:21:58Z</time>
      </trkpt>
      <trkpt lat="48.3585" lon="2.78704">
        <ele>80.199996948242</ele>
        <time>2021-11-18T13:22:03Z</time>
      </trkpt>
      <trkpt lat="48.35852" lon="2.78696">
        <ele>80</ele>
        <time>2021-11-18T13:22:08Z</time>
      </trkpt>
      <trkpt lat="48.35856" lon="2.7869">
        <ele>80</ele>
        <time>2021-11-18T13:22:13Z</time>
      </trkpt>
      <trkpt lat="48.35859" lon="2.78683">
        <ele>80</ele>
        <time>2021-11-18T13:22:18Z</time>
      </trkpt>
      <trkpt lat="48.35862" lon="2.78675">
        <ele>80</ele>
        <time>2021-11-18T13:22:23Z</time>
      </trkpt>
      <trkpt lat="48.35863" lon="2.78667">
        <ele>79.800003051758</ele>
        <time>2021-11-18T13:22:28Z</time>
      </trkpt>
      <trkpt lat="48.35864" lon="2.7866">
        <ele>79.800003051758</ele>
        <time>2021-11-18T13:22:33Z</time>
      </trkpt>
      <trkpt lat="48.35866" lon="2.78654">
        <ele>79.599998474121</ele>
        <time>2021-11-18T13:22:38Z</time>
      </trkpt>
      <trkpt lat="48.35868" lon="2.78645">
        <ele>79.400001525879</ele>
        <time>2021-11-18T13:22:43Z</time>
      </trkpt>
      <trkpt lat="48.35867" lon="2.78637">
        <ele>79.199996948242</ele>
        <time>2021-11-18T13:22:48Z</time>
      </trkpt>
      <trkpt lat="48.35867" lon="2.7863">
        <ele>79</ele>
        <time>2021-11-18T13:22:53Z</time>
      </trkpt>
      <trkpt lat="48.35866" lon="2.78628">
        <ele>79</ele>
        <time>2021-11-18T13:22:58Z</time>
      </trkpt>
      <trkpt lat="48.35865" lon="2.78626">
        <ele>79.199996948242</ele>
        <time>2021-11-18T13:23:03Z</time>
      </trkpt>
      <trkpt lat="48.35863" lon="2.78622">
        <ele>79.199996948242</ele>
        <time>2021-11-18T13:23:08Z</time>
      </trkpt>
      <trkpt lat="48.35861" lon="2.7862">
        <ele>79</ele>
        <time>2021-11-18T13:23:13Z</time>
      </trkpt>
      <trkpt lat="48.35858" lon="2.78617">
        <ele>79</ele>
        <time>2021-11-18T13:23:18Z</time>
      </trkpt>
      <trkpt lat="48.3585" lon="2.78609">
        <ele>78.800003051758</ele>
        <time>2021-11-18T13:23:23Z</time>
      </trkpt>
      <trkpt lat="48.35844" lon="2.78604">
        <ele>78.800003051758</ele>
        <time>2021-11-18T13:23:28Z</time>
      </trkpt>
      <trkpt lat="48.35836" lon="2.78603">
        <ele>79.199996948242</ele>
        <time>2021-11-18T13:23:33Z</time>
      </trkpt>
      <trkpt lat="48.35832" lon="2.78602">
        <ele>79.199996948242</ele>
        <time>2021-11-18T13:23:38Z</time>
      </trkpt>
      <trkpt lat="48.35828" lon="2.78604">
        <ele>79.199996948242</ele>
        <time>2021-11-18T13:23:43Z</time>
      </trkpt>
      <trkpt lat="48.35827" lon="2.78604">
        <ele>79.199996948242</ele>
        <time>2021-11-18T13:23:48Z</time>
      </trkpt>
      <trkpt lat="48.35823" lon="2.78604">
        <ele>79.400001525879</ele>
        <time>2021-11-18T13:23:53Z</time>
      </trkpt>
      <trkpt lat="48.35817" lon="2.786">
        <ele>79.400001525879</ele>
        <time>2021-11-18T13:23:58Z</time>
      </trkpt>
      <trkpt lat="48.3581" lon="2.78597">
        <ele>79.400001525879</ele>
        <time>2021-11-18T13:24:03Z</time>
      </trkpt>
      <trkpt lat="48.35803" lon="2.78595">
        <ele>79.400001525879</ele>
        <time>2021-11-18T13:24:08Z</time>
      </trkpt>
      <trkpt lat="48.35798" lon="2.78591">
        <ele>79.400001525879</ele>
        <time>2021-11-18T13:24:13Z</time>
      </trkpt>
      <trkpt lat="48.35791" lon="2.78589">
        <ele>79.800003051758</ele>
        <time>2021-11-18T13:24:18Z</time>
      </trkpt>
      <trkpt lat="48.35787" lon="2.78586">
        <ele>80.199996948242</ele>
        <time>2021-11-18T13:24:23Z</time>
      </trkpt>
      <trkpt lat="48.35782" lon="2.78585">
        <ele>80.599998474121</ele>
        <time>2021-11-18T13:24:28Z</time>
      </trkpt>
      <trkpt lat="48.35774" lon="2.78579">
        <ele>81</ele>
        <time>2021-11-18T13:24:33Z</time>
      </trkpt>
      <trkpt lat="48.35769" lon="2.78577">
        <ele>81.199996948242</ele>
        <time>2021-11-18T13:24:38Z</time>
      </trkpt>
      <trkpt lat="48.35763" lon="2.78574">
        <ele>81.400001525879</ele>
        <time>2021-11-18T13:24:43Z</time>
      </trkpt>
      <trkpt lat="48.35759" lon="2.78573">
        <ele>81.599998474121</ele>
        <time>2021-11-18T13:24:48Z</time>
      </trkpt>
      <trkpt lat="48.35753" lon="2.78572">
        <ele>81.800003051758</ele>
        <time>2021-11-18T13:24:53Z</time>
      </trkpt>
      <trkpt lat="48.35748" lon="2.78572">
        <ele>81.800003051758</ele>
        <time>2021-11-18T13:24:58Z</time>
      </trkpt>
      <trkpt lat="48.35744" lon="2.78571">
        <ele>82</ele>
        <time>2021-11-18T13:25:03Z</time>
      </trkpt>
      <trkpt lat="48.3574" lon="2.7857">
        <ele>82.199996948242</ele>
        <time>2021-11-18T13:25:08Z</time>
      </trkpt>
      <trkpt lat="48.35734" lon="2.78568">
        <ele>82.199996948242</ele>
        <time>2021-11-18T13:25:13Z</time>
      </trkpt>
      <trkpt lat="48.35732" lon="2.78567">
        <ele>82.400001525879</ele>
        <time>2021-11-18T13:25:18Z</time>
      </trkpt>
      <trkpt lat="48.35728" lon="2.78564">
        <ele>82.400001525879</ele>
        <time>2021-11-18T13:25:23Z</time>
      </trkpt>
      <trkpt lat="48.35723" lon="2.78564">
        <ele>82.599998474121</ele>
        <time>2021-11-18T13:25:28Z</time>
      </trkpt>
      <trkpt lat="48.35717" lon="2.78562">
        <ele>82.800003051758</ele>
        <time>2021-11-18T13:25:33Z</time>
      </trkpt>
      <trkpt lat="48.35711" lon="2.78559">
        <ele>82.800003051758</ele>
        <time>2021-11-18T13:25:38Z</time>
      </trkpt>
      <trkpt lat="48.35706" lon="2.7856">
        <ele>83.199996948242</ele>
        <time>2021-11-18T13:25:43Z</time>
      </trkpt>
      <trkpt lat="48.35704" lon="2.78558">
        <ele>83.400001525879</ele>
        <time>2021-11-18T13:25:48Z</time>
      </trkpt>
      <trkpt lat="48.35701" lon="2.78554">
        <ele>83.400001525879</ele>
        <time>2021-11-18T13:25:53Z</time>
      </trkpt>
      <trkpt lat="48.35695" lon="2.78549">
        <ele>83.800003051758</ele>
        <time>2021-11-18T13:25:58Z</time>
      </trkpt>
      <trkpt lat="48.35691" lon="2.78548">
        <ele>83.800003051758</ele>
        <time>2021-11-18T13:26:03Z</time>
      </trkpt>
      <trkpt lat="48.35684" lon="2.78545">
        <ele>83.800003051758</ele>
        <time>2021-11-18T13:26:08Z</time>
      </trkpt>
      <trkpt lat="48.3568" lon="2.78544">
        <ele>83.599998474121</ele>
        <time>2021-11-18T13:26:13Z</time>
      </trkpt>
      <trkpt lat="48.35676" lon="2.78544">
        <ele>83.599998474121</ele>
        <time>2021-11-18T13:26:18Z</time>
      </trkpt>
      <trkpt lat="48.35672" lon="2.78542">
        <ele>83.599998474121</ele>
        <time>2021-11-18T13:26:23Z</time>
      </trkpt>
      <trkpt lat="48.35667" lon="2.78543">
        <ele>83.800003051758</ele>
        <time>2021-11-18T13:26:28Z</time>
      </trkpt>
      <trkpt lat="48.3566" lon="2.78542">
        <ele>83.800003051758</ele>
        <time>2021-11-18T13:26:33Z</time>
      </trkpt>
      <trkpt lat="48.35653" lon="2.78537">
        <ele>83.800003051758</ele>
        <time>2021-11-18T13:26:38Z</time>
      </trkpt>
      <trkpt lat="48.35648" lon="2.78537">
        <ele>83.800003051758</ele>
        <time>2021-11-18T13:26:43Z</time>
      </trkpt>
      <trkpt lat="48.35643" lon="2.78536">
        <ele>83.800003051758</ele>
        <time>2021-11-18T13:26:48Z</time>
      </trkpt>
      <trkpt lat="48.35641" lon="2.78536">
        <ele>83.800003051758</ele>
        <time>2021-11-18T13:26:53Z</time>
      </trkpt>
      <trkpt lat="48.35636" lon="2.78536">
        <ele>83.800003051758</ele>
        <time>2021-11-18T13:26:58Z</time>
      </trkpt>
      <trkpt lat="48.3563" lon="2.78533">
        <ele>83.800003051758</ele>
        <time>2021-11-18T13:27:03Z</time>
      </trkpt>
      <trkpt lat="48.35625" lon="2.78531">
        <ele>83.800003051758</ele>
        <time>2021-11-18T13:27:08Z</time>
      </trkpt>
      <trkpt lat="48.35619" lon="2.78527">
        <ele>84</ele>
        <time>2021-11-18T13:27:13Z</time>
      </trkpt>
      <trkpt lat="48.35616" lon="2.78526">
        <ele>84</ele>
        <time>2021-11-18T13:27:18Z</time>
      </trkpt>
      <trkpt lat="48.35614" lon="2.78524">
        <ele>84</ele>
        <time>2021-11-18T13:27:23Z</time>
      </trkpt>
      <trkpt lat="48.35608" lon="2.78523">
        <ele>84.199996948242</ele>
        <time>2021-11-18T13:27:28Z</time>
      </trkpt>
      <trkpt lat="48.35601" lon="2.7852">
        <ele>84</ele>
        <time>2021-11-18T13:27:33Z</time>
      </trkpt>
      <trkpt lat="48.35593" lon="2.78518">
        <ele>84</ele>
        <time>2021-11-18T13:27:38Z</time>
      </trkpt>
      <trkpt lat="48.35587" lon="2.78518">
        <ele>84</ele>
        <time>2021-11-18T13:27:43Z</time>
      </trkpt>
      <trkpt lat="48.35582" lon="2.78513">
        <ele>84</ele>
        <time>2021-11-18T13:27:48Z</time>
      </trkpt>
      <trkpt lat="48.35576" lon="2.78511">
        <ele>84</ele>
        <time>2021-11-18T13:27:53Z</time>
      </trkpt>
      <trkpt lat="48.35572" lon="2.78508">
        <ele>83.800003051758</ele>
        <time>2021-11-18T13:27:58Z</time>
      </trkpt>
      <trkpt lat="48.35567" lon="2.78507">
        <ele>83.800003051758</ele>
        <time>2021-11-18T13:28:03Z</time>
      </trkpt>
      <trkpt lat="48.35561" lon="2.78507">
        <ele>83.599998474121</ele>
        <time>2021-11-18T13:28:08Z</time>
      </trkpt>
      <trkpt lat="48.35555" lon="2.78506">
        <ele>83.599998474121</ele>
        <time>2021-11-18T13:28:13Z</time>
      </trkpt>
      <trkpt lat="48.35549" lon="2.78505">
        <ele>83.400001525879</ele>
        <time>2021-11-18T13:28:18Z</time>
      </trkpt>
      <trkpt lat="48.35545" lon="2.78502">
        <ele>83.400001525879</ele>
        <time>2021-11-18T13:28:23Z</time>
      </trkpt>
      <trkpt lat="48.35542" lon="2.785">
        <ele>83.599998474121</ele>
        <time>2021-11-18T13:28:28Z</time>
      </trkpt>
      <trkpt lat="48.35536" lon="2.78497">
        <ele>83.599998474121</ele>
        <time>2021-11-18T13:28:33Z</time>
      </trkpt>
      <trkpt lat="48.3553" lon="2.78495">
        <ele>83.599998474121</ele>
        <time>2021-11-18T13:28:38Z</time>
      </trkpt>
      <trkpt lat="48.35525" lon="2.78492">
        <ele>83.400001525879</ele>
        <time>2021-11-18T13:28:43Z</time>
      </trkpt>
      <trkpt lat="48.35521" lon="2.7849">
        <ele>83.400001525879</ele>
        <time>2021-11-18T13:28:48Z</time>
      </trkpt>
      <trkpt lat="48.35516" lon="2.78488">
        <ele>83.400001525879</ele>
        <time>2021-11-18T13:28:53Z</time>
      </trkpt>
      <trkpt lat="48.35511" lon="2.78486">
        <ele>83.199996948242</ele>
        <time>2021-11-18T13:28:58Z</time>
      </trkpt>
      <trkpt lat="48.35504" lon="2.78484">
        <ele>83.199996948242</ele>
        <time>2021-11-18T13:29:03Z</time>
      </trkpt>
      <trkpt lat="48.35497" lon="2.7848">
        <ele>83</ele>
        <time>2021-11-18T13:29:08Z</time>
      </trkpt>
      <trkpt lat="48.35493" lon="2.78475">
        <ele>83.199996948242</ele>
        <time>2021-11-18T13:29:13Z</time>
      </trkpt>
      <trkpt lat="48.35489" lon="2.78472">
        <ele>83</ele>
        <time>2021-11-18T13:29:18Z</time>
      </trkpt>
      <trkpt lat="48.35484" lon="2.78471">
        <ele>82.800003051758</ele>
        <time>2021-11-18T13:29:23Z</time>
      </trkpt>
      <trkpt lat="48.35481" lon="2.78471">
        <ele>82.800003051758</ele>
        <time>2021-11-18T13:29:28Z</time>
      </trkpt>
      <trkpt lat="48.35476" lon="2.7847">
        <ele>82.800003051758</ele>
        <time>2021-11-18T13:29:33Z</time>
      </trkpt>
      <trkpt lat="48.35471" lon="2.78467">
        <ele>82.599998474121</ele>
        <time>2021-11-18T13:29:38Z</time>
      </trkpt>
      <trkpt lat="48.35467" lon="2.78465">
        <ele>82.400001525879</ele>
        <time>2021-11-18T13:29:43Z</time>
      </trkpt>
      <trkpt lat="48.35461" lon="2.78464">
        <ele>82.400001525879</ele>
        <time>2021-11-18T13:29:48Z</time>
      </trkpt>
      <trkpt lat="48.35455" lon="2.78464">
        <ele>82.199996948242</ele>
        <time>2021-11-18T13:29:53Z</time>
      </trkpt>
      <trkpt lat="48.35449" lon="2.78465">
        <ele>82.199996948242</ele>
        <time>2021-11-18T13:29:58Z</time>
      </trkpt>
      <trkpt lat="48.35444" lon="2.7846">
        <ele>82.199996948242</ele>
        <time>2021-11-18T13:30:03Z</time>
      </trkpt>
      <trkpt lat="48.35439" lon="2.78457">
        <ele>82</ele>
        <time>2021-11-18T13:30:08Z</time>
      </trkpt>
      <trkpt lat="48.35435" lon="2.78455">
        <ele>82</ele>
        <time>2021-11-18T13:30:13Z</time>
      </trkpt>
      <trkpt lat="48.35431" lon="2.78454">
        <ele>81.800003051758</ele>
        <time>2021-11-18T13:30:18Z</time>
      </trkpt>
      <trkpt lat="48.35425" lon="2.78453">
        <ele>81.800003051758</ele>
        <time>2021-11-18T13:30:23Z</time>
      </trkpt>
      <trkpt lat="48.35418" lon="2.78452">
        <ele>81.599998474121</ele>
        <time>2021-11-18T13:30:28Z</time>
      </trkpt>
      <trkpt lat="48.35413" lon="2.78448">
        <ele>81.199996948242</ele>
        <time>2021-11-18T13:30:33Z</time>
      </trkpt>
      <trkpt lat="48.35408" lon="2.78446">
        <ele>81</ele>
        <time>2021-11-18T13:30:38Z</time>
      </trkpt>
      <trkpt lat="48.35403" lon="2.78445">
        <ele>80.800003051758</ele>
        <time>2021-11-18T13:30:43Z</time>
      </trkpt>
      <trkpt lat="48.35398" lon="2.78444">
        <ele>80.599998474121</ele>
        <time>2021-11-18T13:30:48Z</time>
      </trkpt>
      <trkpt lat="48.35395" lon="2.78441">
        <ele>80.599998474121</ele>
        <time>2021-11-18T13:30:53Z</time>
      </trkpt>
      <trkpt lat="48.35393" lon="2.7844">
        <ele>80.400001525879</ele>
        <time>2021-11-18T13:30:58Z</time>
      </trkpt>
      <trkpt lat="48.35393" lon="2.78438">
        <ele>80.400001525879</ele>
        <time>2021-11-18T13:31:03Z</time>
      </trkpt>
      <trkpt lat="48.35392" lon="2.78436">
        <ele>80.599998474121</ele>
        <time>2021-11-18T13:31:08Z</time>
      </trkpt>
      <trkpt lat="48.35391" lon="2.78436">
        <ele>80.599998474121</ele>
        <time>2021-11-18T13:31:13Z</time>
      </trkpt>
      <trkpt lat="48.35387" lon="2.78438">
        <ele>80.599998474121</ele>
        <time>2021-11-18T13:31:18Z</time>
      </trkpt>
      <trkpt lat="48.35386" lon="2.78439">
        <ele>80.400001525879</ele>
        <time>2021-11-18T13:31:23Z</time>
      </trkpt>
      <trkpt lat="48.35387" lon="2.78438">
        <ele>80.400001525879</ele>
        <time>2021-11-18T13:31:28Z</time>
      </trkpt>
      <trkpt lat="48.35389" lon="2.78438">
        <ele>80.800003051758</ele>
        <time>2021-11-18T13:31:33Z</time>
      </trkpt>
      <trkpt lat="48.35392" lon="2.78435">
        <ele>80.800003051758</ele>
        <time>2021-11-18T13:31:38Z</time>
      </trkpt>
      <trkpt lat="48.35392" lon="2.78434">
        <ele>80.800003051758</ele>
        <time>2021-11-18T13:31:43Z</time>
      </trkpt>
      <trkpt lat="48.35391" lon="2.78435">
        <ele>80.800003051758</ele>
        <time>2021-11-18T13:31:48Z</time>
      </trkpt>
      <trkpt lat="48.35391" lon="2.78438">
        <ele>80.800003051758</ele>
        <time>2021-11-18T13:31:53Z</time>
      </trkpt>
      <trkpt lat="48.35392" lon="2.78441">
        <ele>80.599998474121</ele>
        <time>2021-11-18T13:31:58Z</time>
      </trkpt>
      <trkpt lat="48.35391" lon="2.78442">
        <ele>80.599998474121</ele>
        <time>2021-11-18T13:32:03Z</time>
      </trkpt>
      <trkpt lat="48.3539" lon="2.78441">
        <ele>80.599998474121</ele>
        <time>2021-11-18T13:32:08Z</time>
      </trkpt>
      <trkpt lat="48.35391" lon="2.78442">
        <ele>80.599998474121</ele>
        <time>2021-11-18T13:32:13Z</time>
      </trkpt>
      <trkpt lat="48.3539" lon="2.78442">
        <ele>80.599998474121</ele>
        <time>2021-11-18T13:32:18Z</time>
      </trkpt>
      <trkpt lat="48.3539" lon="2.78439">
        <ele>80.800003051758</ele>
        <time>2021-11-18T13:32:23Z</time>
      </trkpt>
      <trkpt lat="48.3539" lon="2.78439">
        <ele>81</ele>
        <time>2021-11-18T13:32:28Z</time>
      </trkpt>
      <trkpt lat="48.35389" lon="2.78437">
        <ele>81</ele>
        <time>2021-11-18T13:32:33Z</time>
      </trkpt>
      <trkpt lat="48.35388" lon="2.78436">
        <ele>80.800003051758</ele>
        <time>2021-11-18T13:32:38Z</time>
      </trkpt>
      <trkpt lat="48.3539" lon="2.78435">
        <ele>80.800003051758</ele>
        <time>2021-11-18T13:32:43Z</time>
      </trkpt>
      <trkpt lat="48.35391" lon="2.78437">
        <ele>80.800003051758</ele>
        <time>2021-11-18T13:32:48Z</time>
      </trkpt>
      <trkpt lat="48.35391" lon="2.78436">
        <ele>80.599998474121</ele>
        <time>2021-11-18T13:32:53Z</time>
      </trkpt>
      <trkpt lat="48.35388" lon="2.78434">
        <ele>80.599998474121</ele>
        <time>2021-11-18T13:32:58Z</time>
      </trkpt>
      <trkpt lat="48.35382" lon="2.78432">
        <ele>80.400001525879</ele>
        <time>2021-11-18T13:33:03Z</time>
      </trkpt>
      <trkpt lat="48.35379" lon="2.78432">
        <ele>80.199996948242</ele>
        <time>2021-11-18T13:33:08Z</time>
      </trkpt>
      <trkpt lat="48.35375" lon="2.78434">
        <ele>80.199996948242</ele>
        <time>2021-11-18T13:33:13Z</time>
      </trkpt>
      <trkpt lat="48.35371" lon="2.78434">
        <ele>80.199996948242</ele>
        <time>2021-11-18T13:33:18Z</time>
      </trkpt>
      <trkpt lat="48.35368" lon="2.78432">
        <ele>80</ele>
        <time>2021-11-18T13:33:23Z</time>
      </trkpt>
      <trkpt lat="48.35363" lon="2.7843">
        <ele>80</ele>
        <time>2021-11-18T13:33:28Z</time>
      </trkpt>
      <trkpt lat="48.35359" lon="2.78428">
        <ele>79.800003051758</ele>
        <time>2021-11-18T13:33:33Z</time>
      </trkpt>
      <trkpt lat="48.35355" lon="2.78428">
        <ele>79.599998474121</ele>
        <time>2021-11-18T13:33:38Z</time>
      </trkpt>
      <trkpt lat="48.35351" lon="2.78428">
        <ele>79.400001525879</ele>
        <time>2021-11-18T13:33:43Z</time>
      </trkpt>
      <trkpt lat="48.35346" lon="2.78425">
        <ele>79.400001525879</ele>
        <time>2021-11-18T13:33:48Z</time>
      </trkpt>
      <trkpt lat="48.35341" lon="2.78424">
        <ele>79.199996948242</ele>
        <time>2021-11-18T13:33:53Z</time>
      </trkpt>
      <trkpt lat="48.35336" lon="2.78423">
        <ele>79.400001525879</ele>
        <time>2021-11-18T13:33:58Z</time>
      </trkpt>
      <trkpt lat="48.35331" lon="2.78421">
        <ele>79.400001525879</ele>
        <time>2021-11-18T13:34:03Z</time>
      </trkpt>
      <trkpt lat="48.35326" lon="2.78419">
        <ele>79.400001525879</ele>
        <time>2021-11-18T13:34:08Z</time>
      </trkpt>
      <trkpt lat="48.35326" lon="2.78414">
        <ele>79.599998474121</ele>
        <time>2021-11-18T13:34:13Z</time>
      </trkpt>
      <trkpt lat="48.35326" lon="2.78405">
        <ele>79.599998474121</ele>
        <time>2021-11-18T13:34:18Z</time>
      </trkpt>
      <trkpt lat="48.35326" lon="2.78397">
        <ele>79.599998474121</ele>
        <time>2021-11-18T13:34:23Z</time>
      </trkpt>
      <trkpt lat="48.35327" lon="2.7839">
        <ele>79.599998474121</ele>
        <time>2021-11-18T13:34:28Z</time>
      </trkpt>
      <trkpt lat="48.35328" lon="2.78384">
        <ele>79.599998474121</ele>
        <time>2021-11-18T13:34:33Z</time>
      </trkpt>
      <trkpt lat="48.35328" lon="2.78378">
        <ele>79.599998474121</ele>
        <time>2021-11-18T13:34:38Z</time>
      </trkpt>
      <trkpt lat="48.35331" lon="2.78367">
        <ele>79.800003051758</ele>
        <time>2021-11-18T13:34:43Z</time>
      </trkpt>
      <trkpt lat="48.35334" lon="2.78357">
        <ele>79.599998474121</ele>
        <time>2021-11-18T13:34:48Z</time>
      </trkpt>
      <trkpt lat="48.35337" lon="2.78351">
        <ele>80</ele>
        <time>2021-11-18T13:34:53Z</time>
      </trkpt>
      <trkpt lat="48.35338" lon="2.78347">
        <ele>80</ele>
        <time>2021-11-18T13:34:58Z</time>
      </trkpt>
      <trkpt lat="48.3534" lon="2.78342">
        <ele>80.199996948242</ele>
        <time>2021-11-18T13:35:03Z</time>
      </trkpt>
      <trkpt lat="48.35339" lon="2.78334">
        <ele>80.400001525879</ele>
        <time>2021-11-18T13:35:08Z</time>
      </trkpt>
      <trkpt lat="48.35339" lon="2.78329">
        <ele>80.400001525879</ele>
        <time>2021-11-18T13:35:13Z</time>
      </trkpt>
      <trkpt lat="48.35341" lon="2.78322">
        <ele>80.599998474121</ele>
        <time>2021-11-18T13:35:18Z</time>
      </trkpt>
      <trkpt lat="48.3534" lon="2.78313">
        <ele>80.800003051758</ele>
        <time>2021-11-18T13:35:23Z</time>
      </trkpt>
      <trkpt lat="48.35342" lon="2.78308">
        <ele>81</ele>
        <time>2021-11-18T13:35:28Z</time>
      </trkpt>
      <trkpt lat="48.35343" lon="2.78301">
        <ele>81.199996948242</ele>
        <time>2021-11-18T13:35:33Z</time>
      </trkpt>
      <trkpt lat="48.35345" lon="2.78294">
        <ele>81.400001525879</ele>
        <time>2021-11-18T13:35:38Z</time>
      </trkpt>
      <trkpt lat="48.35346" lon="2.78286">
        <ele>81.599998474121</ele>
        <time>2021-11-18T13:35:43Z</time>
      </trkpt>
      <trkpt lat="48.35346" lon="2.78276">
        <ele>81.800003051758</ele>
        <time>2021-11-18T13:35:48Z</time>
      </trkpt>
      <trkpt lat="48.35347" lon="2.78271">
        <ele>82</ele>
        <time>2021-11-18T13:35:53Z</time>
      </trkpt>
      <trkpt lat="48.35347" lon="2.78266">
        <ele>82</ele>
        <time>2021-11-18T13:35:58Z</time>
      </trkpt>
      <trkpt lat="48.35348" lon="2.78259">
        <ele>82.199996948242</ele>
        <time>2021-11-18T13:36:03Z</time>
      </trkpt>
      <trkpt lat="48.3535" lon="2.78251">
        <ele>82.199996948242</ele>
        <time>2021-11-18T13:36:08Z</time>
      </trkpt>
      <trkpt lat="48.35351" lon="2.78241">
        <ele>82.400001525879</ele>
        <time>2021-11-18T13:36:13Z</time>
      </trkpt>
      <trkpt lat="48.35353" lon="2.78232">
        <ele>82.599998474121</ele>
        <time>2021-11-18T13:36:18Z</time>
      </trkpt>
      <trkpt lat="48.35353" lon="2.78224">
        <ele>82.800003051758</ele>
        <time>2021-11-18T13:36:23Z</time>
      </trkpt>
      <trkpt lat="48.35355" lon="2.78216">
        <ele>82.800003051758</ele>
        <time>2021-11-18T13:36:28Z</time>
      </trkpt>
      <trkpt lat="48.35356" lon="2.78208">
        <ele>82.800003051758</ele>
        <time>2021-11-18T13:36:33Z</time>
      </trkpt>
      <trkpt lat="48.35357" lon="2.782">
        <ele>82.800003051758</ele>
        <time>2021-11-18T13:36:38Z</time>
      </trkpt>
      <trkpt lat="48.35357" lon="2.78194">
        <ele>82.800003051758</ele>
        <time>2021-11-18T13:36:43Z</time>
      </trkpt>
      <trkpt lat="48.35359" lon="2.78187">
        <ele>82.800003051758</ele>
        <time>2021-11-18T13:36:48Z</time>
      </trkpt>
      <trkpt lat="48.3536" lon="2.7818">
        <ele>82.800003051758</ele>
        <time>2021-11-18T13:36:53Z</time>
      </trkpt>
      <trkpt lat="48.35362" lon="2.78171">
        <ele>82.599998474121</ele>
        <time>2021-11-18T13:36:58Z</time>
      </trkpt>
      <trkpt lat="48.35361" lon="2.78164">
        <ele>82.599998474121</ele>
        <time>2021-11-18T13:37:03Z</time>
      </trkpt>
      <trkpt lat="48.35362" lon="2.78157">
        <ele>82.599998474121</ele>
        <time>2021-11-18T13:37:08Z</time>
      </trkpt>
      <trkpt lat="48.35362" lon="2.78148">
        <ele>82.599998474121</ele>
        <time>2021-11-18T13:37:13Z</time>
      </trkpt>
      <trkpt lat="48.35362" lon="2.78138">
        <ele>82.599998474121</ele>
        <time>2021-11-18T13:37:18Z</time>
      </trkpt>
      <trkpt lat="48.35362" lon="2.7813">
        <ele>82.800003051758</ele>
        <time>2021-11-18T13:37:23Z</time>
      </trkpt>
      <trkpt lat="48.35361" lon="2.78123">
        <ele>83</ele>
        <time>2021-11-18T13:37:28Z</time>
      </trkpt>
      <trkpt lat="48.35363" lon="2.78117">
        <ele>83.199996948242</ele>
        <time>2021-11-18T13:37:33Z</time>
      </trkpt>
      <trkpt lat="48.35363" lon="2.7811">
        <ele>83.400001525879</ele>
        <time>2021-11-18T13:37:38Z</time>
      </trkpt>
      <trkpt lat="48.35364" lon="2.78104">
        <ele>83.400001525879</ele>
        <time>2021-11-18T13:37:43Z</time>
      </trkpt>
      <trkpt lat="48.35364" lon="2.78097">
        <ele>83.400001525879</ele>
        <time>2021-11-18T13:37:48Z</time>
      </trkpt>
      <trkpt lat="48.35365" lon="2.78091">
        <ele>83.400001525879</ele>
        <time>2021-11-18T13:37:53Z</time>
      </trkpt>
      <trkpt lat="48.35367" lon="2.78081">
        <ele>83.599998474121</ele>
        <time>2021-11-18T13:37:58Z</time>
      </trkpt>
      <trkpt lat="48.35367" lon="2.78073">
        <ele>83.599998474121</ele>
        <time>2021-11-18T13:38:03Z</time>
      </trkpt>
      <trkpt lat="48.35369" lon="2.78066">
        <ele>83.599998474121</ele>
        <time>2021-11-18T13:38:08Z</time>
      </trkpt>
      <trkpt lat="48.35369" lon="2.78058">
        <ele>83.599998474121</ele>
        <time>2021-11-18T13:38:13Z</time>
      </trkpt>
      <trkpt lat="48.3537" lon="2.78051">
        <ele>83.599998474121</ele>
        <time>2021-11-18T13:38:18Z</time>
      </trkpt>
      <trkpt lat="48.35374" lon="2.78043">
        <ele>83.400001525879</ele>
        <time>2021-11-18T13:38:23Z</time>
      </trkpt>
      <trkpt lat="48.35376" lon="2.78034">
        <ele>83.199996948242</ele>
        <time>2021-11-18T13:38:28Z</time>
      </trkpt>
      <trkpt lat="48.35375" lon="2.78026">
        <ele>83.199996948242</ele>
        <time>2021-11-18T13:38:33Z</time>
      </trkpt>
      <trkpt lat="48.35379" lon="2.78019">
        <ele>83.199996948242</ele>
        <time>2021-11-18T13:38:38Z</time>
      </trkpt>
      <trkpt lat="48.35379" lon="2.7801">
        <ele>83.199996948242</ele>
        <time>2021-11-18T13:38:43Z</time>
      </trkpt>
      <trkpt lat="48.3538" lon="2.78001">
        <ele>83.199996948242</ele>
        <time>2021-11-18T13:38:48Z</time>
      </trkpt>
      <trkpt lat="48.3538" lon="2.77995">
        <ele>83.400001525879</ele>
        <time>2021-11-18T13:38:53Z</time>
      </trkpt>
      <trkpt lat="48.3538" lon="2.77988">
        <ele>83.400001525879</ele>
        <time>2021-11-18T13:38:58Z</time>
      </trkpt>
      <trkpt lat="48.35381" lon="2.77985">
        <ele>83.400001525879</ele>
        <time>2021-11-18T13:39:03Z</time>
      </trkpt>
      <trkpt lat="48.35382" lon="2.77976">
        <ele>83.400001525879</ele>
        <time>2021-11-18T13:39:08Z</time>
      </trkpt>
      <trkpt lat="48.35382" lon="2.77968">
        <ele>83.599998474121</ele>
        <time>2021-11-18T13:39:13Z</time>
      </trkpt>
      <trkpt lat="48.35383" lon="2.77959">
        <ele>83.800003051758</ele>
        <time>2021-11-18T13:39:18Z</time>
      </trkpt>
      <trkpt lat="48.35385" lon="2.77952">
        <ele>84.199996948242</ele>
        <time>2021-11-18T13:39:23Z</time>
      </trkpt>
      <trkpt lat="48.35386" lon="2.77946">
        <ele>84.199996948242</ele>
        <time>2021-11-18T13:39:28Z</time>
      </trkpt>
      <trkpt lat="48.35388" lon="2.7794">
        <ele>84.400001525879</ele>
        <time>2021-11-18T13:39:33Z</time>
      </trkpt>
      <trkpt lat="48.35389" lon="2.77933">
        <ele>84.199996948242</ele>
        <time>2021-11-18T13:39:38Z</time>
      </trkpt>
      <trkpt lat="48.35389" lon="2.77925">
        <ele>83.800003051758</ele>
        <time>2021-11-18T13:39:43Z</time>
      </trkpt>
      <trkpt lat="48.35389" lon="2.77916">
        <ele>83.599998474121</ele>
        <time>2021-11-18T13:39:48Z</time>
      </trkpt>
      <trkpt lat="48.35388" lon="2.77906">
        <ele>83.599998474121</ele>
        <time>2021-11-18T13:39:53Z</time>
      </trkpt>
      <trkpt lat="48.3539" lon="2.77894">
        <ele>83.599998474121</ele>
        <time>2021-11-18T13:39:58Z</time>
      </trkpt>
      <trkpt lat="48.35391" lon="2.77883">
        <ele>83.599998474121</ele>
        <time>2021-11-18T13:40:03Z</time>
      </trkpt>
      <trkpt lat="48.3539" lon="2.77875">
        <ele>84</ele>
        <time>2021-11-18T13:40:08Z</time>
      </trkpt>
      <trkpt lat="48.35391" lon="2.77869">
        <ele>84</ele>
        <time>2021-11-18T13:40:13Z</time>
      </trkpt>
      <trkpt lat="48.35392" lon="2.77861">
        <ele>84.400001525879</ele>
        <time>2021-11-18T13:40:18Z</time>
      </trkpt>
      <trkpt lat="48.35393" lon="2.77852">
        <ele>84.400001525879</ele>
        <time>2021-11-18T13:40:23Z</time>
      </trkpt>
      <trkpt lat="48.35393" lon="2.77843">
        <ele>84.400001525879</ele>
        <time>2021-11-18T13:40:28Z</time>
      </trkpt>
      <trkpt lat="48.35395" lon="2.77836">
        <ele>84</ele>
        <time>2021-11-18T13:40:33Z</time>
      </trkpt>
      <trkpt lat="48.35399" lon="2.77828">
        <ele>83.800003051758</ele>
        <time>2021-11-18T13:40:38Z</time>
      </trkpt>
      <trkpt lat="48.35401" lon="2.77823">
        <ele>83.599998474121</ele>
        <time>2021-11-18T13:40:43Z</time>
      </trkpt>
      <trkpt lat="48.35404" lon="2.77815">
        <ele>83.400001525879</ele>
        <time>2021-11-18T13:40:48Z</time>
      </trkpt>
      <trkpt lat="48.35405" lon="2.77807">
        <ele>83</ele>
        <time>2021-11-18T13:40:53Z</time>
      </trkpt>
      <trkpt lat="48.35407" lon="2.77799">
        <ele>82.800003051758</ele>
        <time>2021-11-18T13:40:58Z</time>
      </trkpt>
      <trkpt lat="48.35409" lon="2.77791">
        <ele>82.599998474121</ele>
        <time>2021-11-18T13:41:03Z</time>
      </trkpt>
      <trkpt lat="48.35408" lon="2.77781">
        <ele>82.400001525879</ele>
        <time>2021-11-18T13:41:08Z</time>
      </trkpt>
      <trkpt lat="48.35407" lon="2.77772">
        <ele>82.199996948242</ele>
        <time>2021-11-18T13:41:13Z</time>
      </trkpt>
      <trkpt lat="48.35407" lon="2.77764">
        <ele>82</ele>
        <time>2021-11-18T13:41:18Z</time>
      </trkpt>
      <trkpt lat="48.35407" lon="2.77757">
        <ele>82</ele>
        <time>2021-11-18T13:41:23Z</time>
      </trkpt>
      <trkpt lat="48.35408" lon="2.7775">
        <ele>81.800003051758</ele>
        <time>2021-11-18T13:41:28Z</time>
      </trkpt>
      <trkpt lat="48.35408" lon="2.77745">
        <ele>81.599998474121</ele>
        <time>2021-11-18T13:41:33Z</time>
      </trkpt>
      <trkpt lat="48.3541" lon="2.77741">
        <ele>81.400001525879</ele>
        <time>2021-11-18T13:41:38Z</time>
      </trkpt>
      <trkpt lat="48.35411" lon="2.7773">
        <ele>81.400001525879</ele>
        <time>2021-11-18T13:41:43Z</time>
      </trkpt>
      <trkpt lat="48.35412" lon="2.7772">
        <ele>81.199996948242</ele>
        <time>2021-11-18T13:41:48Z</time>
      </trkpt>
      <trkpt lat="48.35412" lon="2.77709">
        <ele>81</ele>
        <time>2021-11-18T13:41:53Z</time>
      </trkpt>
      <trkpt lat="48.35411" lon="2.77698">
        <ele>81</ele>
        <time>2021-11-18T13:41:58Z</time>
      </trkpt>
      <trkpt lat="48.35412" lon="2.77689">
        <ele>80.800003051758</ele>
        <time>2021-11-18T13:42:03Z</time>
      </trkpt>
      <trkpt lat="48.35412" lon="2.77684">
        <ele>80.800003051758</ele>
        <time>2021-11-18T13:42:08Z</time>
      </trkpt>
      <trkpt lat="48.35408" lon="2.77681">
        <ele>81</ele>
        <time>2021-11-18T13:42:13Z</time>
      </trkpt>
      <trkpt lat="48.35401" lon="2.7768">
        <ele>81</ele>
        <time>2021-11-18T13:42:18Z</time>
      </trkpt>
      <trkpt lat="48.35396" lon="2.77682">
        <ele>81.199996948242</ele>
        <time>2021-11-18T13:42:23Z</time>
      </trkpt>
      <trkpt lat="48.3539" lon="2.77683">
        <ele>81.400001525879</ele>
        <time>2021-11-18T13:42:28Z</time>
      </trkpt>
      <trkpt lat="48.35386" lon="2.77685">
        <ele>81.599998474121</ele>
        <time>2021-11-18T13:42:33Z</time>
      </trkpt>
      <trkpt lat="48.35383" lon="2.77686">
        <ele>81.800003051758</ele>
        <time>2021-11-18T13:42:38Z</time>
      </trkpt>
      <trkpt lat="48.35378" lon="2.77687">
        <ele>82</ele>
        <time>2021-11-18T13:42:43Z</time>
      </trkpt>
      <trkpt lat="48.35372" lon="2.77691">
        <ele>82.199996948242</ele>
        <time>2021-11-18T13:42:48Z</time>
      </trkpt>
      <trkpt lat="48.35367" lon="2.77692">
        <ele>82.400001525879</ele>
        <time>2021-11-18T13:42:53Z</time>
      </trkpt>
      <trkpt lat="48.35362" lon="2.77693">
        <ele>82.599998474121</ele>
        <time>2021-11-18T13:42:58Z</time>
      </trkpt>
      <trkpt lat="48.35357" lon="2.77695">
        <ele>83</ele>
        <time>2021-11-18T13:43:03Z</time>
      </trkpt>
      <trkpt lat="48.35354" lon="2.77696">
        <ele>83.400001525879</ele>
        <time>2021-11-18T13:43:08Z</time>
      </trkpt>
      <trkpt lat="48.35349" lon="2.77697">
        <ele>83.800003051758</ele>
        <time>2021-11-18T13:43:13Z</time>
      </trkpt>
      <trkpt lat="48.35343" lon="2.77698">
        <ele>84</ele>
        <time>2021-11-18T13:43:18Z</time>
      </trkpt>
      <trkpt lat="48.35339" lon="2.777">
        <ele>84.599998474121</ele>
        <time>2021-11-18T13:43:23Z</time>
      </trkpt>
      <trkpt lat="48.35336" lon="2.77703">
        <ele>85</ele>
        <time>2021-11-18T13:43:28Z</time>
      </trkpt>
      <trkpt lat="48.35332" lon="2.77704">
        <ele>85.400001525879</ele>
        <time>2021-11-18T13:43:33Z</time>
      </trkpt>
      <trkpt lat="48.35327" lon="2.77706">
        <ele>85.800003051758</ele>
        <time>2021-11-18T13:43:38Z</time>
      </trkpt>
      <trkpt lat="48.35323" lon="2.77706">
        <ele>86.599998474121</ele>
        <time>2021-11-18T13:43:43Z</time>
      </trkpt>
      <trkpt lat="48.35319" lon="2.77707">
        <ele>87.199996948242</ele>
        <time>2021-11-18T13:43:48Z</time>
      </trkpt>
      <trkpt lat="48.35313" lon="2.7771">
        <ele>87.800003051758</ele>
        <time>2021-11-18T13:43:53Z</time>
      </trkpt>
      <trkpt lat="48.35308" lon="2.77712">
        <ele>88.199996948242</ele>
        <time>2021-11-18T13:43:58Z</time>
      </trkpt>
      <trkpt lat="48.35304" lon="2.77713">
        <ele>88.800003051758</ele>
        <time>2021-11-18T13:44:03Z</time>
      </trkpt>
      <trkpt lat="48.35302" lon="2.77714">
        <ele>89.400001525879</ele>
        <time>2021-11-18T13:44:08Z</time>
      </trkpt>
      <trkpt lat="48.35301" lon="2.77714">
        <ele>90.199996948242</ele>
        <time>2021-11-18T13:44:13Z</time>
      </trkpt>
      <trkpt lat="48.35299" lon="2.77717">
        <ele>90.800003051758</ele>
        <time>2021-11-18T13:44:18Z</time>
      </trkpt>
      <trkpt lat="48.35292" lon="2.77723">
        <ele>91.199996948242</ele>
        <time>2021-11-18T13:44:23Z</time>
      </trkpt>
      <trkpt lat="48.35287" lon="2.7773">
        <ele>91.800003051758</ele>
        <time>2021-11-18T13:44:28Z</time>
      </trkpt>
      <trkpt lat="48.35283" lon="2.77735">
        <ele>92.199996948242</ele>
        <time>2021-11-18T13:44:33Z</time>
      </trkpt>
      <trkpt lat="48.35284" lon="2.77735">
        <ele>92.400001525879</ele>
        <time>2021-11-18T13:44:38Z</time>
      </trkpt>
      <trkpt lat="48.35284" lon="2.77735">
        <ele>92.599998474121</ele>
        <time>2021-11-18T13:44:43Z</time>
      </trkpt>
      <trkpt lat="48.35283" lon="2.77736">
        <ele>92.599998474121</ele>
        <time>2021-11-18T13:44:48Z</time>
      </trkpt>
      <trkpt lat="48.35282" lon="2.77735">
        <ele>92.599998474121</ele>
        <time>2021-11-18T13:44:53Z</time>
      </trkpt>
      <trkpt lat="48.35283" lon="2.77735">
        <ele>92.599998474121</ele>
        <time>2021-11-18T13:44:58Z</time>
      </trkpt>
      <trkpt lat="48.35283" lon="2.77736">
        <ele>92.599998474121</ele>
        <time>2021-11-18T13:45:03Z</time>
      </trkpt>
      <trkpt lat="48.35282" lon="2.77737">
        <ele>92.599998474121</ele>
        <time>2021-11-18T13:45:08Z</time>
      </trkpt>
      <trkpt lat="48.3528" lon="2.77736">
        <ele>92.599998474121</ele>
        <time>2021-11-18T13:45:13Z</time>
      </trkpt>
      <trkpt lat="48.3528" lon="2.77737">
        <ele>92.599998474121</ele>
        <time>2021-11-18T13:45:18Z</time>
      </trkpt>
      <trkpt lat="48.35281" lon="2.77738">
        <ele>92.599998474121</ele>
        <time>2021-11-18T13:45:23Z</time>
      </trkpt>
      <trkpt lat="48.35281" lon="2.77738">
        <ele>92.599998474121</ele>
        <time>2021-11-18T13:45:28Z</time>
      </trkpt>
      <trkpt lat="48.3528" lon="2.77737">
        <ele>92.599998474121</ele>
        <time>2021-11-18T13:45:33Z</time>
      </trkpt>
      <trkpt lat="48.35279" lon="2.77738">
        <ele>92.599998474121</ele>
        <time>2021-11-18T13:45:38Z</time>
      </trkpt>
      <trkpt lat="48.35278" lon="2.77738">
        <ele>92.599998474121</ele>
        <time>2021-11-18T13:45:43Z</time>
      </trkpt>
      <trkpt lat="48.35277" lon="2.77738">
        <ele>92.599998474121</ele>
        <time>2021-11-18T13:45:48Z</time>
      </trkpt>
      <trkpt lat="48.35276" lon="2.77737">
        <ele>92.599998474121</ele>
        <time>2021-11-18T13:45:53Z</time>
      </trkpt>
      <trkpt lat="48.35274" lon="2.77736">
        <ele>92.599998474121</ele>
        <time>2021-11-18T13:45:58Z</time>
      </trkpt>
      <trkpt lat="48.35273" lon="2.77735">
        <ele>92.599998474121</ele>
        <time>2021-11-18T13:46:03Z</time>
      </trkpt>
      <trkpt lat="48.35273" lon="2.77736">
        <ele>92.800003051758</ele>
        <time>2021-11-18T13:46:08Z</time>
      </trkpt>
      <trkpt lat="48.35274" lon="2.77738">
        <ele>92.800003051758</ele>
        <time>2021-11-18T13:46:13Z</time>
      </trkpt>
      <trkpt lat="48.35273" lon="2.77739">
        <ele>92.800003051758</ele>
        <time>2021-11-18T13:46:18Z</time>
      </trkpt>
      <trkpt lat="48.3527" lon="2.77736">
        <ele>92.800003051758</ele>
        <time>2021-11-18T13:46:23Z</time>
      </trkpt>
      <trkpt lat="48.35269" lon="2.77737">
        <ele>92.800003051758</ele>
        <time>2021-11-18T13:46:28Z</time>
      </trkpt>
      <trkpt lat="48.35268" lon="2.77738">
        <ele>92.800003051758</ele>
        <time>2021-11-18T13:46:33Z</time>
      </trkpt>
      <trkpt lat="48.35268" lon="2.77739">
        <ele>92.800003051758</ele>
        <time>2021-11-18T13:46:38Z</time>
      </trkpt>
      <trkpt lat="48.35269" lon="2.77741">
        <ele>92.800003051758</ele>
        <time>2021-11-18T13:46:43Z</time>
      </trkpt>
      <trkpt lat="48.35271" lon="2.77741">
        <ele>92.800003051758</ele>
        <time>2021-11-18T13:46:48Z</time>
      </trkpt>
      <trkpt lat="48.35273" lon="2.77741">
        <ele>92.800003051758</ele>
        <time>2021-11-18T13:46:53Z</time>
      </trkpt>
      <trkpt lat="48.35276" lon="2.77741">
        <ele>92.800003051758</ele>
        <time>2021-11-18T13:46:58Z</time>
      </trkpt>
      <trkpt lat="48.35278" lon="2.77738">
        <ele>92.800003051758</ele>
        <time>2021-11-18T13:47:03Z</time>
      </trkpt>
      <trkpt lat="48.35278" lon="2.77738">
        <ele>92.800003051758</ele>
        <time>2021-11-18T13:47:08Z</time>
      </trkpt>
      <trkpt lat="48.35278" lon="2.77738">
        <ele>92.800003051758</ele>
        <time>2021-11-18T13:47:13Z</time>
      </trkpt>
      <trkpt lat="48.35278" lon="2.7774">
        <ele>92.800003051758</ele>
        <time>2021-11-18T13:47:18Z</time>
      </trkpt>
      <trkpt lat="48.35279" lon="2.77741">
        <ele>92.800003051758</ele>
        <time>2021-11-18T13:47:23Z</time>
      </trkpt>
      <trkpt lat="48.35279" lon="2.77742">
        <ele>92.800003051758</ele>
        <time>2021-11-18T13:47:28Z</time>
      </trkpt>
      <trkpt lat="48.35282" lon="2.7775">
        <ele>92.800003051758</ele>
        <time>2021-11-18T13:47:33Z</time>
      </trkpt>
      <trkpt lat="48.3528" lon="2.77751">
        <ele>92.400001525879</ele>
        <time>2021-11-18T13:47:38Z</time>
      </trkpt>
      <trkpt lat="48.35273" lon="2.77749">
        <ele>92</ele>
        <time>2021-11-18T13:47:43Z</time>
      </trkpt>
      <trkpt lat="48.35267" lon="2.77749">
        <ele>91.400001525879</ele>
        <time>2021-11-18T13:47:48Z</time>
      </trkpt>
      <trkpt lat="48.35263" lon="2.77748">
        <ele>91</ele>
        <time>2021-11-18T13:47:53Z</time>
      </trkpt>
      <trkpt lat="48.35259" lon="2.77749">
        <ele>90.800003051758</ele>
        <time>2021-11-18T13:47:58Z</time>
      </trkpt>
      <trkpt lat="48.35255" lon="2.77753">
        <ele>90.599998474121</ele>
        <time>2021-11-18T13:48:03Z</time>
      </trkpt>
      <trkpt lat="48.35251" lon="2.77756">
        <ele>90.199996948242</ele>
        <time>2021-11-18T13:48:08Z</time>
      </trkpt>
      <trkpt lat="48.35248" lon="2.77759">
        <ele>89.800003051758</ele>
        <time>2021-11-18T13:48:13Z</time>
      </trkpt>
      <trkpt lat="48.35245" lon="2.77759">
        <ele>89.599998474121</ele>
        <time>2021-11-18T13:48:18Z</time>
      </trkpt>
      <trkpt lat="48.35238" lon="2.77759">
        <ele>89.199996948242</ele>
        <time>2021-11-18T13:48:23Z</time>
      </trkpt>
      <trkpt lat="48.35233" lon="2.77762">
        <ele>89</ele>
        <time>2021-11-18T13:48:28Z</time>
      </trkpt>
      <trkpt lat="48.35228" lon="2.77763">
        <ele>88.599998474121</ele>
        <time>2021-11-18T13:48:33Z</time>
      </trkpt>
      <trkpt lat="48.35225" lon="2.77766">
        <ele>88.199996948242</ele>
        <time>2021-11-18T13:48:38Z</time>
      </trkpt>
      <trkpt lat="48.35221" lon="2.77766">
        <ele>88</ele>
        <time>2021-11-18T13:48:43Z</time>
      </trkpt>
      <trkpt lat="48.35218" lon="2.77768">
        <ele>88</ele>
        <time>2021-11-18T13:48:48Z</time>
      </trkpt>
      <trkpt lat="48.35215" lon="2.77769">
        <ele>87.800003051758</ele>
        <time>2021-11-18T13:48:53Z</time>
      </trkpt>
      <trkpt lat="48.35211" lon="2.7777">
        <ele>87.400001525879</ele>
        <time>2021-11-18T13:48:58Z</time>
      </trkpt>
      <trkpt lat="48.35207" lon="2.77769">
        <ele>87.199996948242</ele>
        <time>2021-11-18T13:49:03Z</time>
      </trkpt>
      <trkpt lat="48.35205" lon="2.77764">
        <ele>86.800003051758</ele>
        <time>2021-11-18T13:49:08Z</time>
      </trkpt>
      <trkpt lat="48.35206" lon="2.77759">
        <ele>86.800003051758</ele>
        <time>2021-11-18T13:49:13Z</time>
      </trkpt>
      <trkpt lat="48.35207" lon="2.77752">
        <ele>86.800003051758</ele>
        <time>2021-11-18T13:49:18Z</time>
      </trkpt>
      <trkpt lat="48.35207" lon="2.77746">
        <ele>86.800003051758</ele>
        <time>2021-11-18T13:49:23Z</time>
      </trkpt>
      <trkpt lat="48.35207" lon="2.77742">
        <ele>86.800003051758</ele>
        <time>2021-11-18T13:49:28Z</time>
      </trkpt>
      <trkpt lat="48.35208" lon="2.77736">
        <ele>86.599998474121</ele>
        <time>2021-11-18T13:49:33Z</time>
      </trkpt>
      <trkpt lat="48.35208" lon="2.77728">
        <ele>86.599998474121</ele>
        <time>2021-11-18T13:49:38Z</time>
      </trkpt>
      <trkpt lat="48.35208" lon="2.77722">
        <ele>86.599998474121</ele>
        <time>2021-11-18T13:49:43Z</time>
      </trkpt>
      <trkpt lat="48.35209" lon="2.77714">
        <ele>86.599998474121</ele>
        <time>2021-11-18T13:49:48Z</time>
      </trkpt>
      <trkpt lat="48.35209" lon="2.77709">
        <ele>86.400001525879</ele>
        <time>2021-11-18T13:49:53Z</time>
      </trkpt>
      <trkpt lat="48.3521" lon="2.77702">
        <ele>86.400001525879</ele>
        <time>2021-11-18T13:49:58Z</time>
      </trkpt>
      <trkpt lat="48.35209" lon="2.77695">
        <ele>86.199996948242</ele>
        <time>2021-11-18T13:50:03Z</time>
      </trkpt>
      <trkpt lat="48.35208" lon="2.77688">
        <ele>86.199996948242</ele>
        <time>2021-11-18T13:50:08Z</time>
      </trkpt>
      <trkpt lat="48.35207" lon="2.77679">
        <ele>86.199996948242</ele>
        <time>2021-11-18T13:50:13Z</time>
      </trkpt>
      <trkpt lat="48.35208" lon="2.77671">
        <ele>86.199996948242</ele>
        <time>2021-11-18T13:50:18Z</time>
      </trkpt>
      <trkpt lat="48.35211" lon="2.77665">
        <ele>86.199996948242</ele>
        <time>2021-11-18T13:50:23Z</time>
      </trkpt>
      <trkpt lat="48.35214" lon="2.7766">
        <ele>86.199996948242</ele>
        <time>2021-11-18T13:50:28Z</time>
      </trkpt>
      <trkpt lat="48.35215" lon="2.77652">
        <ele>86.199996948242</ele>
        <time>2021-11-18T13:50:33Z</time>
      </trkpt>
      <trkpt lat="48.35217" lon="2.77645">
        <ele>86</ele>
        <time>2021-11-18T13:50:38Z</time>
      </trkpt>
      <trkpt lat="48.35216" lon="2.77637">
        <ele>86</ele>
        <time>2021-11-18T13:50:43Z</time>
      </trkpt>
      <trkpt lat="48.35217" lon="2.7763">
        <ele>86</ele>
        <time>2021-11-18T13:50:48Z</time>
      </trkpt>
      <trkpt lat="48.35219" lon="2.77625">
        <ele>86</ele>
        <time>2021-11-18T13:50:53Z</time>
      </trkpt>
      <trkpt lat="48.35219" lon="2.77618">
        <ele>86.199996948242</ele>
        <time>2021-11-18T13:50:58Z</time>
      </trkpt>
      <trkpt lat="48.35219" lon="2.77612">
        <ele>86.199996948242</ele>
        <time>2021-11-18T13:51:03Z</time>
      </trkpt>
      <trkpt lat="48.35218" lon="2.77604">
        <ele>86.199996948242</ele>
        <time>2021-11-18T13:51:08Z</time>
      </trkpt>
      <trkpt lat="48.35218" lon="2.77595">
        <ele>86.199996948242</ele>
        <time>2021-11-18T13:51:13Z</time>
      </trkpt>
      <trkpt lat="48.35218" lon="2.77587">
        <ele>86</ele>
        <time>2021-11-18T13:51:18Z</time>
      </trkpt>
      <trkpt lat="48.3522" lon="2.7758">
        <ele>86.199996948242</ele>
        <time>2021-11-18T13:51:23Z</time>
      </trkpt>
      <trkpt lat="48.35219" lon="2.77574">
        <ele>86.199996948242</ele>
        <time>2021-11-18T13:51:28Z</time>
      </trkpt>
      <trkpt lat="48.35221" lon="2.77568">
        <ele>86.199996948242</ele>
        <time>2021-11-18T13:51:33Z</time>
      </trkpt>
      <trkpt lat="48.35222" lon="2.77562">
        <ele>86</ele>
        <time>2021-11-18T13:51:38Z</time>
      </trkpt>
      <trkpt lat="48.35221" lon="2.77557">
        <ele>86</ele>
        <time>2021-11-18T13:51:43Z</time>
      </trkpt>
      <trkpt lat="48.35222" lon="2.77553">
        <ele>86.199996948242</ele>
        <time>2021-11-18T13:51:48Z</time>
      </trkpt>
      <trkpt lat="48.35223" lon="2.77541">
        <ele>86</ele>
        <time>2021-11-18T13:51:53Z</time>
      </trkpt>
      <trkpt lat="48.35223" lon="2.77531">
        <ele>86</ele>
        <time>2021-11-18T13:51:58Z</time>
      </trkpt>
      <trkpt lat="48.35223" lon="2.77524">
        <ele>86</ele>
        <time>2021-11-18T13:52:03Z</time>
      </trkpt>
      <trkpt lat="48.35224" lon="2.77515">
        <ele>86</ele>
        <time>2021-11-18T13:52:08Z</time>
      </trkpt>
      <trkpt lat="48.35223" lon="2.77507">
        <ele>85.800003051758</ele>
        <time>2021-11-18T13:52:13Z</time>
      </trkpt>
      <trkpt lat="48.35222" lon="2.77499">
        <ele>86</ele>
        <time>2021-11-18T13:52:18Z</time>
      </trkpt>
      <trkpt lat="48.35222" lon="2.77495">
        <ele>86.199996948242</ele>
        <time>2021-11-18T13:52:23Z</time>
      </trkpt>
      <trkpt lat="48.35223" lon="2.77495">
        <ele>86.199996948242</ele>
        <time>2021-11-18T13:52:28Z</time>
      </trkpt>
      <trkpt lat="48.35225" lon="2.77494">
        <ele>86.199996948242</ele>
        <time>2021-11-18T13:52:33Z</time>
      </trkpt>
      <trkpt lat="48.3523" lon="2.77495">
        <ele>86.199996948242</ele>
        <time>2021-11-18T13:52:38Z</time>
      </trkpt>
      <trkpt lat="48.35234" lon="2.77493">
        <ele>86.199996948242</ele>
        <time>2021-11-18T13:52:43Z</time>
      </trkpt>
      <trkpt lat="48.3524" lon="2.77491">
        <ele>86.199996948242</ele>
        <time>2021-11-18T13:52:48Z</time>
      </trkpt>
      <trkpt lat="48.35244" lon="2.77491">
        <ele>86.199996948242</ele>
        <time>2021-11-18T13:52:53Z</time>
      </trkpt>
      <trkpt lat="48.35248" lon="2.77491">
        <ele>87.599998474121</ele>
        <time>2021-11-18T13:52:58Z</time>
      </trkpt>
      <trkpt lat="48.35253" lon="2.7749">
        <ele>88</ele>
        <time>2021-11-18T13:53:03Z</time>
      </trkpt>
      <trkpt lat="48.35257" lon="2.77491">
        <ele>88.199996948242</ele>
        <time>2021-11-18T13:53:08Z</time>
      </trkpt>
      <trkpt lat="48.3526" lon="2.77491">
        <ele>88.400001525879</ele>
        <time>2021-11-18T13:53:13Z</time>
      </trkpt>
      <trkpt lat="48.35265" lon="2.7749">
        <ele>88.800003051758</ele>
        <time>2021-11-18T13:53:18Z</time>
      </trkpt>
      <trkpt lat="48.35271" lon="2.77491">
        <ele>89.199996948242</ele>
        <time>2021-11-18T13:53:23Z</time>
      </trkpt>
      <trkpt lat="48.35276" lon="2.77488">
        <ele>89.599998474121</ele>
        <time>2021-11-18T13:53:28Z</time>
      </trkpt>
      <trkpt lat="48.35281" lon="2.77488">
        <ele>90.199996948242</ele>
        <time>2021-11-18T13:53:33Z</time>
      </trkpt>
      <trkpt lat="48.35283" lon="2.77488">
        <ele>91</ele>
        <time>2021-11-18T13:53:38Z</time>
      </trkpt>
      <trkpt lat="48.35286" lon="2.77485">
        <ele>91.400001525879</ele>
        <time>2021-11-18T13:53:43Z</time>
      </trkpt>
      <trkpt lat="48.35291" lon="2.77482">
        <ele>92.199996948242</ele>
        <time>2021-11-18T13:53:48Z</time>
      </trkpt>
      <trkpt lat="48.35294" lon="2.77478">
        <ele>93</ele>
        <time>2021-11-18T13:53:53Z</time>
      </trkpt>
      <trkpt lat="48.353" lon="2.77476">
        <ele>93.599998474121</ele>
        <time>2021-11-18T13:53:58Z</time>
      </trkpt>
      <trkpt lat="48.35302" lon="2.77476">
        <ele>94</ele>
        <time>2021-11-18T13:54:03Z</time>
      </trkpt>
      <trkpt lat="48.35304" lon="2.77475">
        <ele>94.400001525879</ele>
        <time>2021-11-18T13:54:08Z</time>
      </trkpt>
      <trkpt lat="48.35311" lon="2.77474">
        <ele>94.800003051758</ele>
        <time>2021-11-18T13:54:13Z</time>
      </trkpt>
      <trkpt lat="48.35316" lon="2.77474">
        <ele>95.400001525879</ele>
        <time>2021-11-18T13:54:18Z</time>
      </trkpt>
      <trkpt lat="48.3532" lon="2.77473">
        <ele>95.400001525879</ele>
        <time>2021-11-18T13:54:23Z</time>
      </trkpt>
      <trkpt lat="48.35322" lon="2.77472">
        <ele>95</ele>
        <time>2021-11-18T13:54:28Z</time>
      </trkpt>
      <trkpt lat="48.35327" lon="2.7747">
        <ele>94.599998474121</ele>
        <time>2021-11-18T13:54:33Z</time>
      </trkpt>
      <trkpt lat="48.35331" lon="2.77469">
        <ele>94</ele>
        <time>2021-11-18T13:54:38Z</time>
      </trkpt>
      <trkpt lat="48.35335" lon="2.77468">
        <ele>93.400001525879</ele>
        <time>2021-11-18T13:54:43Z</time>
      </trkpt>
      <trkpt lat="48.35337" lon="2.77467">
        <ele>92.400001525879</ele>
        <time>2021-11-18T13:54:48Z</time>
      </trkpt>
      <trkpt lat="48.3534" lon="2.77467">
        <ele>91.599998474121</ele>
        <time>2021-11-18T13:54:53Z</time>
      </trkpt>
      <trkpt lat="48.35349" lon="2.77465">
        <ele>90.800003051758</ele>
        <time>2021-11-18T13:54:58Z</time>
      </trkpt>
      <trkpt lat="48.3535" lon="2.77467">
        <ele>90</ele>
        <time>2021-11-18T13:55:03Z</time>
      </trkpt>
      <trkpt lat="48.3535" lon="2.77468">
        <ele>89.199996948242</ele>
        <time>2021-11-18T13:55:08Z</time>
      </trkpt>
      <trkpt lat="48.35351" lon="2.7747">
        <ele>88</ele>
        <time>2021-11-18T13:55:13Z</time>
      </trkpt>
      <trkpt lat="48.35351" lon="2.77472">
        <ele>86.400001525879</ele>
        <time>2021-11-18T13:55:18Z</time>
      </trkpt>
      <trkpt lat="48.35356" lon="2.77478">
        <ele>88.199996948242</ele>
        <time>2021-11-18T13:55:23Z</time>
      </trkpt>
      <trkpt lat="48.35358" lon="2.77473">
        <ele>89.599998474121</ele>
        <time>2021-11-18T13:55:28Z</time>
      </trkpt>
      <trkpt lat="48.35364" lon="2.77479">
        <ele>87.400001525879</ele>
        <time>2021-11-18T13:55:33Z</time>
      </trkpt>
      <trkpt lat="48.35367" lon="2.77486">
        <ele>86.199996948242</ele>
        <time>2021-11-18T13:55:38Z</time>
      </trkpt>
      <trkpt lat="48.3537" lon="2.7749">
        <ele>85.400001525879</ele>
        <time>2021-11-18T13:55:43Z</time>
      </trkpt>
      <trkpt lat="48.35373" lon="2.77492">
        <ele>84.800003051758</ele>
        <time>2021-11-18T13:55:48Z</time>
      </trkpt>
      <trkpt lat="48.35375" lon="2.77493">
        <ele>84.400001525879</ele>
        <time>2021-11-18T13:55:53Z</time>
      </trkpt>
      <trkpt lat="48.35382" lon="2.77496">
        <ele>83.800003051758</ele>
        <time>2021-11-18T13:55:58Z</time>
      </trkpt>
      <trkpt lat="48.3539" lon="2.77494">
        <ele>83.199996948242</ele>
        <time>2021-11-18T13:56:03Z</time>
      </trkpt>
      <trkpt lat="48.35395" lon="2.77496">
        <ele>82.800003051758</ele>
        <time>2021-11-18T13:56:08Z</time>
      </trkpt>
      <trkpt lat="48.35399" lon="2.77499">
        <ele>82.400001525879</ele>
        <time>2021-11-18T13:56:13Z</time>
      </trkpt>
      <trkpt lat="48.35405" lon="2.77497">
        <ele>82</ele>
        <time>2021-11-18T13:56:18Z</time>
      </trkpt>
      <trkpt lat="48.3541" lon="2.77496">
        <ele>81.400001525879</ele>
        <time>2021-11-18T13:56:23Z</time>
      </trkpt>
      <trkpt lat="48.35416" lon="2.77497">
        <ele>81.199996948242</ele>
        <time>2021-11-18T13:56:28Z</time>
      </trkpt>
      <trkpt lat="48.35423" lon="2.77496">
        <ele>81</ele>
        <time>2021-11-18T13:56:33Z</time>
      </trkpt>
      <trkpt lat="48.35429" lon="2.77498">
        <ele>80.800003051758</ele>
        <time>2021-11-18T13:56:38Z</time>
      </trkpt>
      <trkpt lat="48.35434" lon="2.77497">
        <ele>80.599998474121</ele>
        <time>2021-11-18T13:56:43Z</time>
      </trkpt>
      <trkpt lat="48.35439" lon="2.77493">
        <ele>80.199996948242</ele>
        <time>2021-11-18T13:56:48Z</time>
      </trkpt>
      <trkpt lat="48.35439" lon="2.77487">
        <ele>80.199996948242</ele>
        <time>2021-11-18T13:56:53Z</time>
      </trkpt>
      <trkpt lat="48.35439" lon="2.7748">
        <ele>80</ele>
        <time>2021-11-18T13:56:58Z</time>
      </trkpt>
      <trkpt lat="48.3544" lon="2.77473">
        <ele>80</ele>
        <time>2021-11-18T13:57:03Z</time>
      </trkpt>
      <trkpt lat="48.35441" lon="2.77465">
        <ele>80</ele>
        <time>2021-11-18T13:57:08Z</time>
      </trkpt>
      <trkpt lat="48.35442" lon="2.77459">
        <ele>80</ele>
        <time>2021-11-18T13:57:13Z</time>
      </trkpt>
      <trkpt lat="48.35443" lon="2.77452">
        <ele>79.800003051758</ele>
        <time>2021-11-18T13:57:18Z</time>
      </trkpt>
      <trkpt lat="48.35444" lon="2.77445">
        <ele>79.800003051758</ele>
        <time>2021-11-18T13:57:23Z</time>
      </trkpt>
      <trkpt lat="48.35446" lon="2.77437">
        <ele>79.800003051758</ele>
        <time>2021-11-18T13:57:28Z</time>
      </trkpt>
      <trkpt lat="48.35446" lon="2.77428">
        <ele>79.800003051758</ele>
        <time>2021-11-18T13:57:33Z</time>
      </trkpt>
      <trkpt lat="48.35447" lon="2.77423">
        <ele>79.800003051758</ele>
        <time>2021-11-18T13:57:38Z</time>
      </trkpt>
      <trkpt lat="48.35449" lon="2.77416">
        <ele>79.800003051758</ele>
        <time>2021-11-18T13:57:43Z</time>
      </trkpt>
      <trkpt lat="48.35451" lon="2.7741">
        <ele>79.800003051758</ele>
        <time>2021-11-18T13:57:48Z</time>
      </trkpt>
      <trkpt lat="48.35453" lon="2.77402">
        <ele>79.800003051758</ele>
        <time>2021-11-18T13:57:53Z</time>
      </trkpt>
      <trkpt lat="48.35453" lon="2.77393">
        <ele>79.800003051758</ele>
        <time>2021-11-18T13:57:58Z</time>
      </trkpt>
      <trkpt lat="48.35454" lon="2.77386">
        <ele>79.599998474121</ele>
        <time>2021-11-18T13:58:03Z</time>
      </trkpt>
      <trkpt lat="48.35454" lon="2.77379">
        <ele>79.599998474121</ele>
        <time>2021-11-18T13:58:08Z</time>
      </trkpt>
      <trkpt lat="48.35454" lon="2.7737">
        <ele>79.400001525879</ele>
        <time>2021-11-18T13:58:13Z</time>
      </trkpt>
      <trkpt lat="48.35456" lon="2.77362">
        <ele>79.400001525879</ele>
        <time>2021-11-18T13:58:18Z</time>
      </trkpt>
      <trkpt lat="48.35455" lon="2.77351">
        <ele>79.400001525879</ele>
        <time>2021-11-18T13:58:23Z</time>
      </trkpt>
      <trkpt lat="48.35457" lon="2.77343">
        <ele>79.400001525879</ele>
        <time>2021-11-18T13:58:28Z</time>
      </trkpt>
      <trkpt lat="48.35458" lon="2.77335">
        <ele>79.400001525879</ele>
        <time>2021-11-18T13:58:33Z</time>
      </trkpt>
      <trkpt lat="48.3546" lon="2.77326">
        <ele>79.400001525879</ele>
        <time>2021-11-18T13:58:38Z</time>
      </trkpt>
      <trkpt lat="48.35463" lon="2.77319">
        <ele>79.400001525879</ele>
        <time>2021-11-18T13:58:43Z</time>
      </trkpt>
      <trkpt lat="48.35464" lon="2.7731">
        <ele>79.400001525879</ele>
        <time>2021-11-18T13:58:48Z</time>
      </trkpt>
      <trkpt lat="48.35465" lon="2.77302">
        <ele>79.400001525879</ele>
        <time>2021-11-18T13:58:53Z</time>
      </trkpt>
      <trkpt lat="48.35464" lon="2.77295">
        <ele>79.400001525879</ele>
        <time>2021-11-18T13:58:58Z</time>
      </trkpt>
      <trkpt lat="48.35465" lon="2.7729">
        <ele>79.400001525879</ele>
        <time>2021-11-18T13:59:03Z</time>
      </trkpt>
      <trkpt lat="48.35465" lon="2.77283">
        <ele>79.400001525879</ele>
        <time>2021-11-18T13:59:08Z</time>
      </trkpt>
      <trkpt lat="48.35466" lon="2.77275">
        <ele>79.400001525879</ele>
        <time>2021-11-18T13:59:13Z</time>
      </trkpt>
      <trkpt lat="48.35466" lon="2.77266">
        <ele>79.400001525879</ele>
        <time>2021-11-18T13:59:18Z</time>
      </trkpt>
      <trkpt lat="48.35467" lon="2.77257">
        <ele>79.400001525879</ele>
        <time>2021-11-18T13:59:23Z</time>
      </trkpt>
      <trkpt lat="48.35468" lon="2.77248">
        <ele>79.400001525879</ele>
        <time>2021-11-18T13:59:28Z</time>
      </trkpt>
      <trkpt lat="48.35469" lon="2.77241">
        <ele>79.400001525879</ele>
        <time>2021-11-18T13:59:33Z</time>
      </trkpt>
      <trkpt lat="48.3547" lon="2.77234">
        <ele>79.400001525879</ele>
        <time>2021-11-18T13:59:38Z</time>
      </trkpt>
      <trkpt lat="48.35471" lon="2.77226">
        <ele>79.599998474121</ele>
        <time>2021-11-18T13:59:43Z</time>
      </trkpt>
      <trkpt lat="48.35473" lon="2.77219">
        <ele>79.599998474121</ele>
        <time>2021-11-18T13:59:48Z</time>
      </trkpt>
      <trkpt lat="48.35474" lon="2.77212">
        <ele>79.599998474121</ele>
        <time>2021-11-18T13:59:53Z</time>
      </trkpt>
      <trkpt lat="48.35475" lon="2.77205">
        <ele>79.800003051758</ele>
        <time>2021-11-18T13:59:58Z</time>
      </trkpt>
      <trkpt lat="48.35475" lon="2.77197">
        <ele>79.800003051758</ele>
        <time>2021-11-18T14:00:03Z</time>
      </trkpt>
      <trkpt lat="48.35474" lon="2.77187">
        <ele>79.800003051758</ele>
        <time>2021-11-18T14:00:08Z</time>
      </trkpt>
      <trkpt lat="48.35475" lon="2.77179">
        <ele>79.800003051758</ele>
        <time>2021-11-18T14:00:13Z</time>
      </trkpt>
      <trkpt lat="48.35476" lon="2.7717">
        <ele>79.800003051758</ele>
        <time>2021-11-18T14:00:18Z</time>
      </trkpt>
      <trkpt lat="48.35476" lon="2.77163">
        <ele>79.800003051758</ele>
        <time>2021-11-18T14:00:23Z</time>
      </trkpt>
      <trkpt lat="48.35477" lon="2.77157">
        <ele>79.800003051758</ele>
        <time>2021-11-18T14:00:28Z</time>
      </trkpt>
      <trkpt lat="48.35479" lon="2.77151">
        <ele>79.800003051758</ele>
        <time>2021-11-18T14:00:33Z</time>
      </trkpt>
      <trkpt lat="48.35479" lon="2.77142">
        <ele>80</ele>
        <time>2021-11-18T14:00:38Z</time>
      </trkpt>
      <trkpt lat="48.35482" lon="2.77135">
        <ele>79.800003051758</ele>
        <time>2021-11-18T14:00:43Z</time>
      </trkpt>
      <trkpt lat="48.35482" lon="2.77125">
        <ele>79.800003051758</ele>
        <time>2021-11-18T14:00:48Z</time>
      </trkpt>
      <trkpt lat="48.35482" lon="2.77116">
        <ele>79.800003051758</ele>
        <time>2021-11-18T14:00:53Z</time>
      </trkpt>
      <trkpt lat="48.35483" lon="2.7711">
        <ele>79.599998474121</ele>
        <time>2021-11-18T14:00:58Z</time>
      </trkpt>
      <trkpt lat="48.35484" lon="2.771">
        <ele>79.599998474121</ele>
        <time>2021-11-18T14:01:03Z</time>
      </trkpt>
      <trkpt lat="48.35487" lon="2.77094">
        <ele>79.800003051758</ele>
        <time>2021-11-18T14:01:08Z</time>
      </trkpt>
      <trkpt lat="48.35487" lon="2.77086">
        <ele>80</ele>
        <time>2021-11-18T14:01:13Z</time>
      </trkpt>
      <trkpt lat="48.35488" lon="2.77078">
        <ele>80</ele>
        <time>2021-11-18T14:01:18Z</time>
      </trkpt>
      <trkpt lat="48.3549" lon="2.77071">
        <ele>80.199996948242</ele>
        <time>2021-11-18T14:01:23Z</time>
      </trkpt>
      <trkpt lat="48.35493" lon="2.77064">
        <ele>80.400001525879</ele>
        <time>2021-11-18T14:01:28Z</time>
      </trkpt>
      <trkpt lat="48.35497" lon="2.77059">
        <ele>80.599998474121</ele>
        <time>2021-11-18T14:01:33Z</time>
      </trkpt>
      <trkpt lat="48.355" lon="2.77054">
        <ele>80.400001525879</ele>
        <time>2021-11-18T14:01:38Z</time>
      </trkpt>
      <trkpt lat="48.35502" lon="2.77048">
        <ele>80.400001525879</ele>
        <time>2021-11-18T14:01:43Z</time>
      </trkpt>
      <trkpt lat="48.35505" lon="2.77043">
        <ele>80.400001525879</ele>
        <time>2021-11-18T14:01:48Z</time>
      </trkpt>
      <trkpt lat="48.35511" lon="2.77038">
        <ele>80.400001525879</ele>
        <time>2021-11-18T14:01:53Z</time>
      </trkpt>
      <trkpt lat="48.35514" lon="2.77032">
        <ele>80.400001525879</ele>
        <time>2021-11-18T14:01:58Z</time>
      </trkpt>
      <trkpt lat="48.35517" lon="2.77026">
        <ele>80.400001525879</ele>
        <time>2021-11-18T14:02:03Z</time>
      </trkpt>
      <trkpt lat="48.35523" lon="2.77024">
        <ele>80.400001525879</ele>
        <time>2021-11-18T14:02:08Z</time>
      </trkpt>
      <trkpt lat="48.35528" lon="2.77018">
        <ele>80.199996948242</ele>
        <time>2021-11-18T14:02:13Z</time>
      </trkpt>
      <trkpt lat="48.35532" lon="2.77014">
        <ele>80.199996948242</ele>
        <time>2021-11-18T14:02:18Z</time>
      </trkpt>
      <trkpt lat="48.35537" lon="2.7701">
        <ele>80.199996948242</ele>
        <time>2021-11-18T14:02:23Z</time>
      </trkpt>
      <trkpt lat="48.35539" lon="2.77004">
        <ele>80.199996948242</ele>
        <time>2021-11-18T14:02:28Z</time>
      </trkpt>
      <trkpt lat="48.35541" lon="2.76998">
        <ele>80</ele>
        <time>2021-11-18T14:02:33Z</time>
      </trkpt>
      <trkpt lat="48.35544" lon="2.76993">
        <ele>80</ele>
        <time>2021-11-18T14:02:38Z</time>
      </trkpt>
      <trkpt lat="48.35547" lon="2.76985">
        <ele>80</ele>
        <time>2021-11-18T14:02:43Z</time>
      </trkpt>
      <trkpt lat="48.35551" lon="2.76979">
        <ele>80</ele>
        <time>2021-11-18T14:02:48Z</time>
      </trkpt>
      <trkpt lat="48.35555" lon="2.76973">
        <ele>80</ele>
        <time>2021-11-18T14:02:53Z</time>
      </trkpt>
      <trkpt lat="48.3556" lon="2.76969">
        <ele>79.800003051758</ele>
        <time>2021-11-18T14:02:58Z</time>
      </trkpt>
      <trkpt lat="48.35567" lon="2.76963">
        <ele>79.800003051758</ele>
        <time>2021-11-18T14:03:03Z</time>
      </trkpt>
      <trkpt lat="48.35572" lon="2.76958">
        <ele>79.800003051758</ele>
        <time>2021-11-18T14:03:08Z</time>
      </trkpt>
      <trkpt lat="48.35578" lon="2.76952">
        <ele>79.800003051758</ele>
        <time>2021-11-18T14:03:13Z</time>
      </trkpt>
      <trkpt lat="48.35582" lon="2.76949">
        <ele>79.599998474121</ele>
        <time>2021-11-18T14:03:18Z</time>
      </trkpt>
      <trkpt lat="48.35585" lon="2.76944">
        <ele>79.599998474121</ele>
        <time>2021-11-18T14:03:23Z</time>
      </trkpt>
      <trkpt lat="48.35589" lon="2.76938">
        <ele>79.599998474121</ele>
        <time>2021-11-18T14:03:28Z</time>
      </trkpt>
      <trkpt lat="48.35592" lon="2.76931">
        <ele>79.800003051758</ele>
        <time>2021-11-18T14:03:33Z</time>
      </trkpt>
      <trkpt lat="48.35595" lon="2.76925">
        <ele>79.800003051758</ele>
        <time>2021-11-18T14:03:38Z</time>
      </trkpt>
      <trkpt lat="48.35598" lon="2.7692">
        <ele>79.800003051758</ele>
        <time>2021-11-18T14:03:43Z</time>
      </trkpt>
      <trkpt lat="48.356" lon="2.76915">
        <ele>79.800003051758</ele>
        <time>2021-11-18T14:03:48Z</time>
      </trkpt>
      <trkpt lat="48.35606" lon="2.7691">
        <ele>79.800003051758</ele>
        <time>2021-11-18T14:03:53Z</time>
      </trkpt>
      <trkpt lat="48.35612" lon="2.76906">
        <ele>79.800003051758</ele>
        <time>2021-11-18T14:03:58Z</time>
      </trkpt>
      <trkpt lat="48.35617" lon="2.769">
        <ele>79.800003051758</ele>
        <time>2021-11-18T14:04:03Z</time>
      </trkpt>
      <trkpt lat="48.35619" lon="2.76895">
        <ele>79.800003051758</ele>
        <time>2021-11-18T14:04:08Z</time>
      </trkpt>
      <trkpt lat="48.35624" lon="2.7689">
        <ele>79.800003051758</ele>
        <time>2021-11-18T14:04:13Z</time>
      </trkpt>
      <trkpt lat="48.35627" lon="2.76882">
        <ele>79.800003051758</ele>
        <time>2021-11-18T14:04:18Z</time>
      </trkpt>
      <trkpt lat="48.35632" lon="2.76878">
        <ele>79.800003051758</ele>
        <time>2021-11-18T14:04:23Z</time>
      </trkpt>
      <trkpt lat="48.35637" lon="2.76875">
        <ele>79.800003051758</ele>
        <time>2021-11-18T14:04:28Z</time>
      </trkpt>
      <trkpt lat="48.35641" lon="2.76871">
        <ele>79.800003051758</ele>
        <time>2021-11-18T14:04:33Z</time>
      </trkpt>
      <trkpt lat="48.35646" lon="2.76866">
        <ele>79.800003051758</ele>
        <time>2021-11-18T14:04:38Z</time>
      </trkpt>
      <trkpt lat="48.35651" lon="2.76862">
        <ele>79.800003051758</ele>
        <time>2021-11-18T14:04:43Z</time>
      </trkpt>
      <trkpt lat="48.35656" lon="2.76855">
        <ele>79.800003051758</ele>
        <time>2021-11-18T14:04:48Z</time>
      </trkpt>
      <trkpt lat="48.35661" lon="2.7685">
        <ele>79.800003051758</ele>
        <time>2021-11-18T14:04:53Z</time>
      </trkpt>
      <trkpt lat="48.35664" lon="2.76845">
        <ele>79.800003051758</ele>
        <time>2021-11-18T14:04:58Z</time>
      </trkpt>
      <trkpt lat="48.35666" lon="2.7684">
        <ele>80</ele>
        <time>2021-11-18T14:05:03Z</time>
      </trkpt>
      <trkpt lat="48.35669" lon="2.76836">
        <ele>79.800003051758</ele>
        <time>2021-11-18T14:05:08Z</time>
      </trkpt>
      <trkpt lat="48.35673" lon="2.76831">
        <ele>79.800003051758</ele>
        <time>2021-11-18T14:05:13Z</time>
      </trkpt>
      <trkpt lat="48.35677" lon="2.76825">
        <ele>79.800003051758</ele>
        <time>2021-11-18T14:05:18Z</time>
      </trkpt>
      <trkpt lat="48.3568" lon="2.7682">
        <ele>80</ele>
        <time>2021-11-18T14:05:23Z</time>
      </trkpt>
      <trkpt lat="48.35683" lon="2.76816">
        <ele>79.800003051758</ele>
        <time>2021-11-18T14:05:28Z</time>
      </trkpt>
      <trkpt lat="48.35686" lon="2.76811">
        <ele>80</ele>
        <time>2021-11-18T14:05:33Z</time>
      </trkpt>
      <trkpt lat="48.3569" lon="2.76806">
        <ele>80</ele>
        <time>2021-11-18T14:05:38Z</time>
      </trkpt>
      <trkpt lat="48.35694" lon="2.76802">
        <ele>80</ele>
        <time>2021-11-18T14:05:43Z</time>
      </trkpt>
      <trkpt lat="48.35698" lon="2.76797">
        <ele>80</ele>
        <time>2021-11-18T14:05:48Z</time>
      </trkpt>
      <trkpt lat="48.35701" lon="2.7679">
        <ele>80</ele>
        <time>2021-11-18T14:05:53Z</time>
      </trkpt>
      <trkpt lat="48.35703" lon="2.76785">
        <ele>80.199996948242</ele>
        <time>2021-11-18T14:05:58Z</time>
      </trkpt>
      <trkpt lat="48.35708" lon="2.76779">
        <ele>80</ele>
        <time>2021-11-18T14:06:03Z</time>
      </trkpt>
      <trkpt lat="48.35715" lon="2.76775">
        <ele>80</ele>
        <time>2021-11-18T14:06:08Z</time>
      </trkpt>
      <trkpt lat="48.35718" lon="2.76771">
        <ele>80.199996948242</ele>
        <time>2021-11-18T14:06:13Z</time>
      </trkpt>
      <trkpt lat="48.35722" lon="2.76765">
        <ele>80.199996948242</ele>
        <time>2021-11-18T14:06:18Z</time>
      </trkpt>
      <trkpt lat="48.35728" lon="2.76761">
        <ele>80.199996948242</ele>
        <time>2021-11-18T14:06:23Z</time>
      </trkpt>
      <trkpt lat="48.35732" lon="2.76757">
        <ele>80.199996948242</ele>
        <time>2021-11-18T14:06:28Z</time>
      </trkpt>
      <trkpt lat="48.35735" lon="2.76751">
        <ele>80.199996948242</ele>
        <time>2021-11-18T14:06:33Z</time>
      </trkpt>
      <trkpt lat="48.35738" lon="2.76746">
        <ele>80.199996948242</ele>
        <time>2021-11-18T14:06:38Z</time>
      </trkpt>
      <trkpt lat="48.35743" lon="2.76741">
        <ele>80.199996948242</ele>
        <time>2021-11-18T14:06:43Z</time>
      </trkpt>
      <trkpt lat="48.35746" lon="2.76736">
        <ele>80.400001525879</ele>
        <time>2021-11-18T14:06:48Z</time>
      </trkpt>
      <trkpt lat="48.35749" lon="2.76733">
        <ele>80.400001525879</ele>
        <time>2021-11-18T14:06:53Z</time>
      </trkpt>
      <trkpt lat="48.35753" lon="2.76727">
        <ele>80.400001525879</ele>
        <time>2021-11-18T14:06:58Z</time>
      </trkpt>
      <trkpt lat="48.35755" lon="2.76721">
        <ele>80.400001525879</ele>
        <time>2021-11-18T14:07:03Z</time>
      </trkpt>
      <trkpt lat="48.35758" lon="2.76716">
        <ele>80.400001525879</ele>
        <time>2021-11-18T14:07:08Z</time>
      </trkpt>
      <trkpt lat="48.35762" lon="2.7671">
        <ele>80.400001525879</ele>
        <time>2021-11-18T14:07:13Z</time>
      </trkpt>
      <trkpt lat="48.35767" lon="2.76706">
        <ele>80.400001525879</ele>
        <time>2021-11-18T14:07:18Z</time>
      </trkpt>
      <trkpt lat="48.35771" lon="2.76703">
        <ele>80.400001525879</ele>
        <time>2021-11-18T14:07:23Z</time>
      </trkpt>
      <trkpt lat="48.35774" lon="2.76697">
        <ele>80.199996948242</ele>
        <time>2021-11-18T14:07:28Z</time>
      </trkpt>
      <trkpt lat="48.35779" lon="2.76693">
        <ele>80.199996948242</ele>
        <time>2021-11-18T14:07:33Z</time>
      </trkpt>
      <trkpt lat="48.35783" lon="2.76689">
        <ele>80.400001525879</ele>
        <time>2021-11-18T14:07:38Z</time>
      </trkpt>
      <trkpt lat="48.35784" lon="2.76683">
        <ele>80.599998474121</ele>
        <time>2021-11-18T14:07:43Z</time>
      </trkpt>
      <trkpt lat="48.35787" lon="2.76678">
        <ele>80.599998474121</ele>
        <time>2021-11-18T14:07:48Z</time>
      </trkpt>
      <trkpt lat="48.3579" lon="2.76673">
        <ele>80.599998474121</ele>
        <time>2021-11-18T14:07:53Z</time>
      </trkpt>
      <trkpt lat="48.35795" lon="2.76669">
        <ele>80.599998474121</ele>
        <time>2021-11-18T14:07:58Z</time>
      </trkpt>
      <trkpt lat="48.358" lon="2.76665">
        <ele>80.599998474121</ele>
        <time>2021-11-18T14:08:03Z</time>
      </trkpt>
      <trkpt lat="48.35806" lon="2.76659">
        <ele>80.599998474121</ele>
        <time>2021-11-18T14:08:08Z</time>
      </trkpt>
      <trkpt lat="48.35811" lon="2.76653">
        <ele>80.599998474121</ele>
        <time>2021-11-18T14:08:13Z</time>
      </trkpt>
      <trkpt lat="48.35816" lon="2.7665">
        <ele>80.400001525879</ele>
        <time>2021-11-18T14:08:18Z</time>
      </trkpt>
      <trkpt lat="48.3582" lon="2.76645">
        <ele>80.400001525879</ele>
        <time>2021-11-18T14:08:23Z</time>
      </trkpt>
      <trkpt lat="48.35821" lon="2.76639">
        <ele>80.199996948242</ele>
        <time>2021-11-18T14:08:28Z</time>
      </trkpt>
      <trkpt lat="48.35826" lon="2.76637">
        <ele>80.199996948242</ele>
        <time>2021-11-18T14:08:33Z</time>
      </trkpt>
      <trkpt lat="48.35831" lon="2.76632">
        <ele>80.199996948242</ele>
        <time>2021-11-18T14:08:38Z</time>
      </trkpt>
      <trkpt lat="48.35835" lon="2.76625">
        <ele>80.199996948242</ele>
        <time>2021-11-18T14:08:43Z</time>
      </trkpt>
      <trkpt lat="48.35839" lon="2.76619">
        <ele>80.199996948242</ele>
        <time>2021-11-18T14:08:48Z</time>
      </trkpt>
      <trkpt lat="48.35844" lon="2.76613">
        <ele>80.400001525879</ele>
        <time>2021-11-18T14:08:53Z</time>
      </trkpt>
      <trkpt lat="48.35845" lon="2.76611">
        <ele>80.400001525879</ele>
        <time>2021-11-18T14:08:58Z</time>
      </trkpt>
      <trkpt lat="48.35846" lon="2.76612">
        <ele>80.400001525879</ele>
        <time>2021-11-18T14:09:03Z</time>
      </trkpt>
      <trkpt lat="48.35846" lon="2.76612">
        <ele>80.400001525879</ele>
        <time>2021-11-18T14:09:08Z</time>
      </trkpt>
      <trkpt lat="48.35846" lon="2.76611">
        <ele>80.400001525879</ele>
        <time>2021-11-18T14:09:13Z</time>
      </trkpt>
      <trkpt lat="48.35846" lon="2.76611">
        <ele>80.400001525879</ele>
        <time>2021-11-18T14:09:18Z</time>
      </trkpt>
      <trkpt lat="48.35844" lon="2.7661">
        <ele>80.400001525879</ele>
        <time>2021-11-18T14:09:23Z</time>
      </trkpt>
      <trkpt lat="48.35844" lon="2.76609">
        <ele>80.400001525879</ele>
        <time>2021-11-18T14:09:28Z</time>
      </trkpt>
      <trkpt lat="48.35843" lon="2.76608">
        <ele>80.400001525879</ele>
        <time>2021-11-18T14:09:33Z</time>
      </trkpt>
      <trkpt lat="48.35842" lon="2.76607">
        <ele>80.400001525879</ele>
        <time>2021-11-18T14:09:38Z</time>
      </trkpt>
      <trkpt lat="48.35842" lon="2.76605">
        <ele>80.199996948242</ele>
        <time>2021-11-18T14:09:43Z</time>
      </trkpt>
      <trkpt lat="48.35842" lon="2.76604">
        <ele>80.199996948242</ele>
        <time>2021-11-18T14:09:48Z</time>
      </trkpt>
      <trkpt lat="48.35842" lon="2.76604">
        <ele>80.400001525879</ele>
        <time>2021-11-18T14:09:53Z</time>
      </trkpt>
      <trkpt lat="48.35842" lon="2.76605">
        <ele>80.400001525879</ele>
        <time>2021-11-18T14:09:58Z</time>
      </trkpt>
      <trkpt lat="48.35842" lon="2.76607">
        <ele>80.199996948242</ele>
        <time>2021-11-18T14:10:03Z</time>
      </trkpt>
      <trkpt lat="48.35842" lon="2.7661">
        <ele>80.199996948242</ele>
        <time>2021-11-18T14:10:08Z</time>
      </trkpt>
      <trkpt lat="48.35842" lon="2.7661">
        <ele>80.199996948242</ele>
        <time>2021-11-18T14:10:13Z</time>
      </trkpt>
      <trkpt lat="48.35844" lon="2.76611">
        <ele>80.199996948242</ele>
        <time>2021-11-18T14:10:18Z</time>
      </trkpt>
      <trkpt lat="48.35845" lon="2.76611">
        <ele>80.199996948242</ele>
        <time>2021-11-18T14:10:23Z</time>
      </trkpt>
      <trkpt lat="48.35845" lon="2.7661">
        <ele>80.199996948242</ele>
        <time>2021-11-18T14:10:28Z</time>
      </trkpt>
      <trkpt lat="48.35846" lon="2.76611">
        <ele>80.199996948242</ele>
        <time>2021-11-18T14:10:33Z</time>
      </trkpt>
      <trkpt lat="48.35845" lon="2.76611">
        <ele>80.199996948242</ele>
        <time>2021-11-18T14:10:38Z</time>
      </trkpt>
      <trkpt lat="48.35846" lon="2.76612">
        <ele>80.199996948242</ele>
        <time>2021-11-18T14:10:43Z</time>
      </trkpt>
      <trkpt lat="48.35846" lon="2.76613">
        <ele>80.199996948242</ele>
        <time>2021-11-18T14:10:48Z</time>
      </trkpt>
      <trkpt lat="48.35845" lon="2.76614">
        <ele>80.199996948242</ele>
        <time>2021-11-18T14:10:53Z</time>
      </trkpt>
      <trkpt lat="48.35846" lon="2.76614">
        <ele>80.199996948242</ele>
        <time>2021-11-18T14:10:58Z</time>
      </trkpt>
      <trkpt lat="48.35846" lon="2.76614">
        <ele>80.199996948242</ele>
        <time>2021-11-18T14:11:03Z</time>
      </trkpt>
      <trkpt lat="48.35846" lon="2.76614">
        <ele>80.199996948242</ele>
        <time>2021-11-18T14:11:08Z</time>
      </trkpt>
      <trkpt lat="48.35846" lon="2.76613">
        <ele>80.199996948242</ele>
        <time>2021-11-18T14:11:13Z</time>
      </trkpt>
      <trkpt lat="48.35848" lon="2.76611">
        <ele>80.199996948242</ele>
        <time>2021-11-18T14:11:18Z</time>
      </trkpt>
      <trkpt lat="48.35849" lon="2.76606">
        <ele>80.199996948242</ele>
        <time>2021-11-18T14:11:23Z</time>
      </trkpt>
      <trkpt lat="48.35849" lon="2.76604">
        <ele>80.400001525879</ele>
        <time>2021-11-18T14:11:28Z</time>
      </trkpt>
      <trkpt lat="48.35849" lon="2.76604">
        <ele>80.199996948242</ele>
        <time>2021-11-18T14:11:33Z</time>
      </trkpt>
      <trkpt lat="48.35849" lon="2.76604">
        <ele>80.199996948242</ele>
        <time>2021-11-18T14:11:38Z</time>
      </trkpt>
      <trkpt lat="48.35847" lon="2.76604">
        <ele>80.199996948242</ele>
        <time>2021-11-18T14:11:43Z</time>
      </trkpt>
      <trkpt lat="48.35845" lon="2.76606">
        <ele>80.199996948242</ele>
        <time>2021-11-18T14:11:48Z</time>
      </trkpt>
      <trkpt lat="48.35845" lon="2.76606">
        <ele>80.199996948242</ele>
        <time>2021-11-18T14:11:53Z</time>
      </trkpt>
      <trkpt lat="48.35847" lon="2.76608">
        <ele>80.199996948242</ele>
        <time>2021-11-18T14:11:58Z</time>
      </trkpt>
      <trkpt lat="48.35849" lon="2.7661">
        <ele>80.199996948242</ele>
        <time>2021-11-18T14:12:03Z</time>
      </trkpt>
      <trkpt lat="48.35851" lon="2.76612">
        <ele>80.199996948242</ele>
        <time>2021-11-18T14:12:08Z</time>
      </trkpt>
      <trkpt lat="48.35853" lon="2.76613">
        <ele>80.199996948242</ele>
        <time>2021-11-18T14:12:13Z</time>
      </trkpt>
      <trkpt lat="48.35855" lon="2.76615">
        <ele>80.199996948242</ele>
        <time>2021-11-18T14:12:18Z</time>
      </trkpt>
      <trkpt lat="48.35855" lon="2.76615">
        <ele>80.199996948242</ele>
        <time>2021-11-18T14:12:23Z</time>
      </trkpt>
      <trkpt lat="48.35854" lon="2.76615">
        <ele>80.199996948242</ele>
        <time>2021-11-18T14:12:28Z</time>
      </trkpt>
      <trkpt lat="48.35853" lon="2.76615">
        <ele>80</ele>
        <time>2021-11-18T14:12:33Z</time>
      </trkpt>
      <trkpt lat="48.35852" lon="2.76613">
        <ele>80</ele>
        <time>2021-11-18T14:12:38Z</time>
      </trkpt>
      <trkpt lat="48.35851" lon="2.76613">
        <ele>80</ele>
        <time>2021-11-18T14:12:43Z</time>
      </trkpt>
      <trkpt lat="48.35849" lon="2.76613">
        <ele>80</ele>
        <time>2021-11-18T14:12:48Z</time>
      </trkpt>
      <trkpt lat="48.35848" lon="2.76613">
        <ele>80</ele>
        <time>2021-11-18T14:12:53Z</time>
      </trkpt>
      <trkpt lat="48.35847" lon="2.76614">
        <ele>80</ele>
        <time>2021-11-18T14:12:58Z</time>
      </trkpt>
      <trkpt lat="48.35846" lon="2.76614">
        <ele>80</ele>
        <time>2021-11-18T14:13:03Z</time>
      </trkpt>
      <trkpt lat="48.35845" lon="2.76614">
        <ele>80</ele>
        <time>2021-11-18T14:13:08Z</time>
      </trkpt>
      <trkpt lat="48.35845" lon="2.76614">
        <ele>80</ele>
        <time>2021-11-18T14:13:13Z</time>
      </trkpt>
      <trkpt lat="48.35844" lon="2.76615">
        <ele>80</ele>
        <time>2021-11-18T14:13:18Z</time>
      </trkpt>
      <trkpt lat="48.35842" lon="2.76614">
        <ele>80</ele>
        <time>2021-11-18T14:13:23Z</time>
      </trkpt>
      <trkpt lat="48.35839" lon="2.76612">
        <ele>80</ele>
        <time>2021-11-18T14:13:28Z</time>
      </trkpt>
      <trkpt lat="48.35838" lon="2.76612">
        <ele>80</ele>
        <time>2021-11-18T14:13:33Z</time>
      </trkpt>
      <trkpt lat="48.35837" lon="2.76611">
        <ele>80</ele>
        <time>2021-11-18T14:13:38Z</time>
      </trkpt>
      <trkpt lat="48.35838" lon="2.76612">
        <ele>80</ele>
        <time>2021-11-18T14:13:43Z</time>
      </trkpt>
      <trkpt lat="48.35837" lon="2.76612">
        <ele>80</ele>
        <time>2021-11-18T14:13:48Z</time>
      </trkpt>
      <trkpt lat="48.35839" lon="2.76611">
        <ele>80</ele>
        <time>2021-11-18T14:13:53Z</time>
      </trkpt>
      <trkpt lat="48.35841" lon="2.7661">
        <ele>80</ele>
        <time>2021-11-18T14:13:58Z</time>
      </trkpt>
      <trkpt lat="48.35842" lon="2.7661">
        <ele>80</ele>
        <time>2021-11-18T14:14:03Z</time>
      </trkpt>
      <trkpt lat="48.35844" lon="2.76612">
        <ele>80</ele>
        <time>2021-11-18T14:14:08Z</time>
      </trkpt>
      <trkpt lat="48.35844" lon="2.76611">
        <ele>80</ele>
        <time>2021-11-18T14:14:13Z</time>
      </trkpt>
      <trkpt lat="48.35845" lon="2.76611">
        <ele>80</ele>
        <time>2021-11-18T14:14:18Z</time>
      </trkpt>
      <trkpt lat="48.35844" lon="2.76612">
        <ele>80</ele>
        <time>2021-11-18T14:14:23Z</time>
      </trkpt>
      <trkpt lat="48.35844" lon="2.76609">
        <ele>80</ele>
        <time>2021-11-18T14:14:28Z</time>
      </trkpt>
      <trkpt lat="48.35844" lon="2.76609">
        <ele>80</ele>
        <time>2021-11-18T14:14:33Z</time>
      </trkpt>
      <trkpt lat="48.35843" lon="2.7661">
        <ele>80</ele>
        <time>2021-11-18T14:14:38Z</time>
      </trkpt>
      <trkpt lat="48.35846" lon="2.76614">
        <ele>80</ele>
        <time>2021-11-18T14:14:43Z</time>
      </trkpt>
      <trkpt lat="48.35848" lon="2.76614">
        <ele>80</ele>
        <time>2021-11-18T14:14:48Z</time>
      </trkpt>
      <trkpt lat="48.35849" lon="2.76615">
        <ele>80</ele>
        <time>2021-11-18T14:14:53Z</time>
      </trkpt>
      <trkpt lat="48.3585" lon="2.76614">
        <ele>80</ele>
        <time>2021-11-18T14:14:58Z</time>
      </trkpt>
      <trkpt lat="48.3585" lon="2.76614">
        <ele>80</ele>
        <time>2021-11-18T14:15:03Z</time>
      </trkpt>
      <trkpt lat="48.35855" lon="2.76616">
        <ele>80</ele>
        <time>2021-11-18T14:15:08Z</time>
      </trkpt>
      <trkpt lat="48.35854" lon="2.76622">
        <ele>80</ele>
        <time>2021-11-18T14:15:13Z</time>
      </trkpt>
      <trkpt lat="48.35852" lon="2.76627">
        <ele>80</ele>
        <time>2021-11-18T14:15:18Z</time>
      </trkpt>
      <trkpt lat="48.3585" lon="2.76632">
        <ele>80</ele>
        <time>2021-11-18T14:15:23Z</time>
      </trkpt>
      <trkpt lat="48.35848" lon="2.76638">
        <ele>80</ele>
        <time>2021-11-18T14:15:28Z</time>
      </trkpt>
      <trkpt lat="48.35846" lon="2.76646">
        <ele>80</ele>
        <time>2021-11-18T14:15:33Z</time>
      </trkpt>
      <trkpt lat="48.35845" lon="2.7665">
        <ele>80</ele>
        <time>2021-11-18T14:15:38Z</time>
      </trkpt>
      <trkpt lat="48.35845" lon="2.76652">
        <ele>80</ele>
        <time>2021-11-18T14:15:43Z</time>
      </trkpt>
      <trkpt lat="48.35843" lon="2.76659">
        <ele>80</ele>
        <time>2021-11-18T14:15:48Z</time>
      </trkpt>
      <trkpt lat="48.35842" lon="2.76667">
        <ele>80</ele>
        <time>2021-11-18T14:15:53Z</time>
      </trkpt>
      <trkpt lat="48.35842" lon="2.76673">
        <ele>80</ele>
        <time>2021-11-18T14:15:58Z</time>
      </trkpt>
      <trkpt lat="48.35842" lon="2.76681">
        <ele>80</ele>
        <time>2021-11-18T14:16:03Z</time>
      </trkpt>
      <trkpt lat="48.3584" lon="2.76689">
        <ele>80</ele>
        <time>2021-11-18T14:16:08Z</time>
      </trkpt>
      <trkpt lat="48.35839" lon="2.76698">
        <ele>80</ele>
        <time>2021-11-18T14:16:13Z</time>
      </trkpt>
      <trkpt lat="48.35839" lon="2.76704">
        <ele>80</ele>
        <time>2021-11-18T14:16:18Z</time>
      </trkpt>
      <trkpt lat="48.35839" lon="2.76707">
        <ele>80</ele>
        <time>2021-11-18T14:16:23Z</time>
      </trkpt>
      <trkpt lat="48.35839" lon="2.7671">
        <ele>80</ele>
        <time>2021-11-18T14:16:28Z</time>
      </trkpt>
      <trkpt lat="48.35837" lon="2.76722">
        <ele>80</ele>
        <time>2021-11-18T14:16:33Z</time>
      </trkpt>
      <trkpt lat="48.35835" lon="2.76732">
        <ele>80</ele>
        <time>2021-11-18T14:16:38Z</time>
      </trkpt>
      <trkpt lat="48.35833" lon="2.7674">
        <ele>80</ele>
        <time>2021-11-18T14:16:43Z</time>
      </trkpt>
      <trkpt lat="48.35832" lon="2.76747">
        <ele>80</ele>
        <time>2021-11-18T14:16:48Z</time>
      </trkpt>
      <trkpt lat="48.35832" lon="2.76756">
        <ele>80</ele>
        <time>2021-11-18T14:16:53Z</time>
      </trkpt>
      <trkpt lat="48.35831" lon="2.76763">
        <ele>80</ele>
        <time>2021-11-18T14:16:58Z</time>
      </trkpt>
      <trkpt lat="48.35831" lon="2.76771">
        <ele>80</ele>
        <time>2021-11-18T14:17:03Z</time>
      </trkpt>
      <trkpt lat="48.35832" lon="2.76779">
        <ele>80</ele>
        <time>2021-11-18T14:17:08Z</time>
      </trkpt>
      <trkpt lat="48.35829" lon="2.76787">
        <ele>80</ele>
        <time>2021-11-18T14:17:13Z</time>
      </trkpt>
      <trkpt lat="48.35827" lon="2.76796">
        <ele>80.199996948242</ele>
        <time>2021-11-18T14:17:18Z</time>
      </trkpt>
      <trkpt lat="48.35826" lon="2.76803">
        <ele>80.400001525879</ele>
        <time>2021-11-18T14:17:23Z</time>
      </trkpt>
      <trkpt lat="48.35825" lon="2.76811">
        <ele>80.400001525879</ele>
        <time>2021-11-18T14:17:28Z</time>
      </trkpt>
      <trkpt lat="48.35823" lon="2.76817">
        <ele>80.400001525879</ele>
        <time>2021-11-18T14:17:33Z</time>
      </trkpt>
      <trkpt lat="48.35823" lon="2.76824">
        <ele>80.400001525879</ele>
        <time>2021-11-18T14:17:38Z</time>
      </trkpt>
      <trkpt lat="48.35822" lon="2.76832">
        <ele>80.199996948242</ele>
        <time>2021-11-18T14:17:43Z</time>
      </trkpt>
      <trkpt lat="48.35821" lon="2.76839">
        <ele>80.199996948242</ele>
        <time>2021-11-18T14:17:48Z</time>
      </trkpt>
      <trkpt lat="48.3582" lon="2.76849">
        <ele>80</ele>
        <time>2021-11-18T14:17:53Z</time>
      </trkpt>
      <trkpt lat="48.35819" lon="2.76856">
        <ele>80</ele>
        <time>2021-11-18T14:17:58Z</time>
      </trkpt>
      <trkpt lat="48.35817" lon="2.76864">
        <ele>80</ele>
        <time>2021-11-18T14:18:03Z</time>
      </trkpt>
      <trkpt lat="48.35817" lon="2.76871">
        <ele>79.800003051758</ele>
        <time>2021-11-18T14:18:08Z</time>
      </trkpt>
      <trkpt lat="48.35815" lon="2.76878">
        <ele>79.800003051758</ele>
        <time>2021-11-18T14:18:13Z</time>
      </trkpt>
      <trkpt lat="48.35814" lon="2.76884">
        <ele>79.800003051758</ele>
        <time>2021-11-18T14:18:18Z</time>
      </trkpt>
      <trkpt lat="48.35813" lon="2.76892">
        <ele>79.800003051758</ele>
        <time>2021-11-18T14:18:23Z</time>
      </trkpt>
      <trkpt lat="48.35813" lon="2.76898">
        <ele>79.599998474121</ele>
        <time>2021-11-18T14:18:28Z</time>
      </trkpt>
      <trkpt lat="48.35812" lon="2.76906">
        <ele>79.599998474121</ele>
        <time>2021-11-18T14:18:33Z</time>
      </trkpt>
      <trkpt lat="48.35811" lon="2.76915">
        <ele>79.800003051758</ele>
        <time>2021-11-18T14:18:38Z</time>
      </trkpt>
      <trkpt lat="48.35812" lon="2.76921">
        <ele>79.800003051758</ele>
        <time>2021-11-18T14:18:43Z</time>
      </trkpt>
      <trkpt lat="48.35811" lon="2.76928">
        <ele>79.800003051758</ele>
        <time>2021-11-18T14:18:48Z</time>
      </trkpt>
      <trkpt lat="48.35809" lon="2.76934">
        <ele>79.599998474121</ele>
        <time>2021-11-18T14:18:53Z</time>
      </trkpt>
      <trkpt lat="48.35809" lon="2.76942">
        <ele>79.599998474121</ele>
        <time>2021-11-18T14:18:58Z</time>
      </trkpt>
      <trkpt lat="48.35807" lon="2.76951">
        <ele>79.599998474121</ele>
        <time>2021-11-18T14:19:03Z</time>
      </trkpt>
      <trkpt lat="48.35803" lon="2.76958">
        <ele>79.599998474121</ele>
        <time>2021-11-18T14:19:08Z</time>
      </trkpt>
      <trkpt lat="48.35801" lon="2.76969">
        <ele>79.800003051758</ele>
        <time>2021-11-18T14:19:13Z</time>
      </trkpt>
      <trkpt lat="48.358" lon="2.76978">
        <ele>79.800003051758</ele>
        <time>2021-11-18T14:19:18Z</time>
      </trkpt>
      <trkpt lat="48.35801" lon="2.76985">
        <ele>79.800003051758</ele>
        <time>2021-11-18T14:19:23Z</time>
      </trkpt>
      <trkpt lat="48.358" lon="2.76991">
        <ele>80</ele>
        <time>2021-11-18T14:19:28Z</time>
      </trkpt>
      <trkpt lat="48.35799" lon="2.76997">
        <ele>80</ele>
        <time>2021-11-18T14:19:33Z</time>
      </trkpt>
      <trkpt lat="48.358" lon="2.77005">
        <ele>80</ele>
        <time>2021-11-18T14:19:38Z</time>
      </trkpt>
      <trkpt lat="48.35801" lon="2.77013">
        <ele>79.800003051758</ele>
        <time>2021-11-18T14:19:43Z</time>
      </trkpt>
      <trkpt lat="48.358" lon="2.77021">
        <ele>80</ele>
        <time>2021-11-18T14:19:48Z</time>
      </trkpt>
      <trkpt lat="48.35799" lon="2.77025">
        <ele>80</ele>
        <time>2021-11-18T14:19:53Z</time>
      </trkpt>
      <trkpt lat="48.35799" lon="2.77028">
        <ele>80</ele>
        <time>2021-11-18T14:19:58Z</time>
      </trkpt>
      <trkpt lat="48.35797" lon="2.77036">
        <ele>80</ele>
        <time>2021-11-18T14:20:03Z</time>
      </trkpt>
      <trkpt lat="48.35795" lon="2.77043">
        <ele>80</ele>
        <time>2021-11-18T14:20:08Z</time>
      </trkpt>
      <trkpt lat="48.35792" lon="2.77054">
        <ele>80</ele>
        <time>2021-11-18T14:20:13Z</time>
      </trkpt>
      <trkpt lat="48.35791" lon="2.7706">
        <ele>80</ele>
        <time>2021-11-18T14:20:18Z</time>
      </trkpt>
      <trkpt lat="48.3579" lon="2.7707">
        <ele>80</ele>
        <time>2021-11-18T14:20:23Z</time>
      </trkpt>
      <trkpt lat="48.35789" lon="2.77078">
        <ele>80</ele>
        <time>2021-11-18T14:20:28Z</time>
      </trkpt>
      <trkpt lat="48.35788" lon="2.77088">
        <ele>79.800003051758</ele>
        <time>2021-11-18T14:20:33Z</time>
      </trkpt>
      <trkpt lat="48.35787" lon="2.77094">
        <ele>79.800003051758</ele>
        <time>2021-11-18T14:20:38Z</time>
      </trkpt>
      <trkpt lat="48.35788" lon="2.77097">
        <ele>80</ele>
        <time>2021-11-18T14:20:43Z</time>
      </trkpt>
      <trkpt lat="48.35789" lon="2.77098">
        <ele>80</ele>
        <time>2021-11-18T14:20:48Z</time>
      </trkpt>
      <trkpt lat="48.3579" lon="2.77099">
        <ele>80</ele>
        <time>2021-11-18T14:20:53Z</time>
      </trkpt>
      <trkpt lat="48.35794" lon="2.77101">
        <ele>80</ele>
        <time>2021-11-18T14:20:58Z</time>
      </trkpt>
      <trkpt lat="48.35801" lon="2.77104">
        <ele>80</ele>
        <time>2021-11-18T14:21:03Z</time>
      </trkpt>
      <trkpt lat="48.35808" lon="2.77105">
        <ele>80</ele>
        <time>2021-11-18T14:21:08Z</time>
      </trkpt>
      <trkpt lat="48.35812" lon="2.77105">
        <ele>80</ele>
        <time>2021-11-18T14:21:13Z</time>
      </trkpt>
      <trkpt lat="48.35818" lon="2.77107">
        <ele>80</ele>
        <time>2021-11-18T14:21:18Z</time>
      </trkpt>
      <trkpt lat="48.35821" lon="2.77106">
        <ele>80</ele>
        <time>2021-11-18T14:21:23Z</time>
      </trkpt>
      <trkpt lat="48.35826" lon="2.77106">
        <ele>80</ele>
        <time>2021-11-18T14:21:28Z</time>
      </trkpt>
      <trkpt lat="48.35832" lon="2.77105">
        <ele>80</ele>
        <time>2021-11-18T14:21:33Z</time>
      </trkpt>
      <trkpt lat="48.35839" lon="2.77105">
        <ele>80</ele>
        <time>2021-11-18T14:21:38Z</time>
      </trkpt>
      <trkpt lat="48.35843" lon="2.77106">
        <ele>80</ele>
        <time>2021-11-18T14:21:43Z</time>
      </trkpt>
      <trkpt lat="48.35845" lon="2.77106">
        <ele>80</ele>
        <time>2021-11-18T14:21:48Z</time>
      </trkpt>
      <trkpt lat="48.35847" lon="2.77105">
        <ele>80</ele>
        <time>2021-11-18T14:21:53Z</time>
      </trkpt>
      <trkpt lat="48.35857" lon="2.77104">
        <ele>80</ele>
        <time>2021-11-18T14:21:58Z</time>
      </trkpt>
      <trkpt lat="48.35864" lon="2.77105">
        <ele>80</ele>
        <time>2021-11-18T14:22:03Z</time>
      </trkpt>
      <trkpt lat="48.35869" lon="2.77106">
        <ele>80</ele>
        <time>2021-11-18T14:22:08Z</time>
      </trkpt>
      <trkpt lat="48.35873" lon="2.77107">
        <ele>80</ele>
        <time>2021-11-18T14:22:13Z</time>
      </trkpt>
      <trkpt lat="48.35879" lon="2.77109">
        <ele>80</ele>
        <time>2021-11-18T14:22:18Z</time>
      </trkpt>
      <trkpt lat="48.35884" lon="2.77109">
        <ele>80</ele>
        <time>2021-11-18T14:22:23Z</time>
      </trkpt>
      <trkpt lat="48.35888" lon="2.77108">
        <ele>80</ele>
        <time>2021-11-18T14:22:28Z</time>
      </trkpt>
      <trkpt lat="48.35894" lon="2.77109">
        <ele>80</ele>
        <time>2021-11-18T14:22:33Z</time>
      </trkpt>
      <trkpt lat="48.359" lon="2.7711">
        <ele>80</ele>
        <time>2021-11-18T14:22:38Z</time>
      </trkpt>
      <trkpt lat="48.35906" lon="2.77112">
        <ele>80</ele>
        <time>2021-11-18T14:22:43Z</time>
      </trkpt>
      <trkpt lat="48.35912" lon="2.77113">
        <ele>80</ele>
        <time>2021-11-18T14:22:48Z</time>
      </trkpt>
      <trkpt lat="48.35917" lon="2.77113">
        <ele>80</ele>
        <time>2021-11-18T14:22:53Z</time>
      </trkpt>
      <trkpt lat="48.3592" lon="2.77112">
        <ele>80</ele>
        <time>2021-11-18T14:22:58Z</time>
      </trkpt>
      <trkpt lat="48.35926" lon="2.77112">
        <ele>80</ele>
        <time>2021-11-18T14:23:03Z</time>
      </trkpt>
      <trkpt lat="48.35928" lon="2.77112">
        <ele>80</ele>
        <time>2021-11-18T14:23:08Z</time>
      </trkpt>
      <trkpt lat="48.35935" lon="2.77114">
        <ele>80</ele>
        <time>2021-11-18T14:23:13Z</time>
      </trkpt>
      <trkpt lat="48.35945" lon="2.77117">
        <ele>80</ele>
        <time>2021-11-18T14:23:18Z</time>
      </trkpt>
      <trkpt lat="48.3595" lon="2.77119">
        <ele>80</ele>
        <time>2021-11-18T14:23:23Z</time>
      </trkpt>
      <trkpt lat="48.35953" lon="2.77118">
        <ele>80</ele>
        <time>2021-11-18T14:23:28Z</time>
      </trkpt>
      <trkpt lat="48.35955" lon="2.77117">
        <ele>80</ele>
        <time>2021-11-18T14:23:33Z</time>
      </trkpt>
      <trkpt lat="48.35961" lon="2.77115">
        <ele>80</ele>
        <time>2021-11-18T14:23:38Z</time>
      </trkpt>
      <trkpt lat="48.35967" lon="2.77115">
        <ele>80</ele>
        <time>2021-11-18T14:23:43Z</time>
      </trkpt>
      <trkpt lat="48.3597" lon="2.77114">
        <ele>80</ele>
        <time>2021-11-18T14:23:48Z</time>
      </trkpt>
      <trkpt lat="48.35976" lon="2.77117">
        <ele>80</ele>
        <time>2021-11-18T14:23:53Z</time>
      </trkpt>
      <trkpt lat="48.3598" lon="2.77117">
        <ele>80</ele>
        <time>2021-11-18T14:23:58Z</time>
      </trkpt>
      <trkpt lat="48.35985" lon="2.77117">
        <ele>80</ele>
        <time>2021-11-18T14:24:03Z</time>
      </trkpt>
      <trkpt lat="48.35992" lon="2.77118">
        <ele>80</ele>
        <time>2021-11-18T14:24:08Z</time>
      </trkpt>
      <trkpt lat="48.35994" lon="2.7712">
        <ele>80</ele>
        <time>2021-11-18T14:24:13Z</time>
      </trkpt>
      <trkpt lat="48.35998" lon="2.77119">
        <ele>80</ele>
        <time>2021-11-18T14:24:18Z</time>
      </trkpt>
      <trkpt lat="48.36005" lon="2.77122">
        <ele>79.800003051758</ele>
        <time>2021-11-18T14:24:23Z</time>
      </trkpt>
      <trkpt lat="48.36007" lon="2.77122">
        <ele>79.800003051758</ele>
        <time>2021-11-18T14:24:28Z</time>
      </trkpt>
      <trkpt lat="48.3601" lon="2.77121">
        <ele>80</ele>
        <time>2021-11-18T14:24:33Z</time>
      </trkpt>
      <trkpt lat="48.36016" lon="2.77121">
        <ele>80</ele>
        <time>2021-11-18T14:24:38Z</time>
      </trkpt>
      <trkpt lat="48.36021" lon="2.77121">
        <ele>80</ele>
        <time>2021-11-18T14:24:43Z</time>
      </trkpt>
      <trkpt lat="48.36029" lon="2.77121">
        <ele>80</ele>
        <time>2021-11-18T14:24:48Z</time>
      </trkpt>
      <trkpt lat="48.36037" lon="2.7712">
        <ele>80.199996948242</ele>
        <time>2021-11-18T14:24:53Z</time>
      </trkpt>
      <trkpt lat="48.3604" lon="2.7712">
        <ele>80.199996948242</ele>
        <time>2021-11-18T14:24:58Z</time>
      </trkpt>
      <trkpt lat="48.36043" lon="2.7712">
        <ele>80.199996948242</ele>
        <time>2021-11-18T14:25:03Z</time>
      </trkpt>
      <trkpt lat="48.36045" lon="2.77119">
        <ele>80.199996948242</ele>
        <time>2021-11-18T14:25:08Z</time>
      </trkpt>
      <trkpt lat="48.36048" lon="2.77118">
        <ele>80.199996948242</ele>
        <time>2021-11-18T14:25:13Z</time>
      </trkpt>
      <trkpt lat="48.36062" lon="2.77121">
        <ele>80.199996948242</ele>
        <time>2021-11-18T14:25:18Z</time>
      </trkpt>
      <trkpt lat="48.3607" lon="2.77123">
        <ele>80.199996948242</ele>
        <time>2021-11-18T14:25:23Z</time>
      </trkpt>
      <trkpt lat="48.36073" lon="2.77126">
        <ele>80.199996948242</ele>
        <time>2021-11-18T14:25:28Z</time>
      </trkpt>
      <trkpt lat="48.36077" lon="2.77126">
        <ele>80.199996948242</ele>
        <time>2021-11-18T14:25:33Z</time>
      </trkpt>
      <trkpt lat="48.36086" lon="2.77126">
        <ele>80</ele>
        <time>2021-11-18T14:25:38Z</time>
      </trkpt>
      <trkpt lat="48.36093" lon="2.77126">
        <ele>80</ele>
        <time>2021-11-18T14:25:43Z</time>
      </trkpt>
      <trkpt lat="48.361" lon="2.77125">
        <ele>80.199996948242</ele>
        <time>2021-11-18T14:25:48Z</time>
      </trkpt>
      <trkpt lat="48.36105" lon="2.77126">
        <ele>80.199996948242</ele>
        <time>2021-11-18T14:25:53Z</time>
      </trkpt>
      <trkpt lat="48.36109" lon="2.77126">
        <ele>80.199996948242</ele>
        <time>2021-11-18T14:25:58Z</time>
      </trkpt>
      <trkpt lat="48.36113" lon="2.77125">
        <ele>80.199996948242</ele>
        <time>2021-11-18T14:26:03Z</time>
      </trkpt>
      <trkpt lat="48.36117" lon="2.77126">
        <ele>80.400001525879</ele>
        <time>2021-11-18T14:26:08Z</time>
      </trkpt>
      <trkpt lat="48.3612" lon="2.77125">
        <ele>80.400001525879</ele>
        <time>2021-11-18T14:26:13Z</time>
      </trkpt>
      <trkpt lat="48.36125" lon="2.77128">
        <ele>80.400001525879</ele>
        <time>2021-11-18T14:26:18Z</time>
      </trkpt>
      <trkpt lat="48.36126" lon="2.77128">
        <ele>80.400001525879</ele>
        <time>2021-11-18T14:26:23Z</time>
      </trkpt>
      <trkpt lat="48.3613" lon="2.77128">
        <ele>80.599998474121</ele>
        <time>2021-11-18T14:26:28Z</time>
      </trkpt>
      <trkpt lat="48.36141" lon="2.77131">
        <ele>80.400001525879</ele>
        <time>2021-11-18T14:26:33Z</time>
      </trkpt>
      <trkpt lat="48.36148" lon="2.77132">
        <ele>80.400001525879</ele>
        <time>2021-11-18T14:26:38Z</time>
      </trkpt>
      <trkpt lat="48.36153" lon="2.77133">
        <ele>80.400001525879</ele>
        <time>2021-11-18T14:26:43Z</time>
      </trkpt>
      <trkpt lat="48.36159" lon="2.77133">
        <ele>80.400001525879</ele>
        <time>2021-11-18T14:26:48Z</time>
      </trkpt>
      <trkpt lat="48.36165" lon="2.77134">
        <ele>80.599998474121</ele>
        <time>2021-11-18T14:26:53Z</time>
      </trkpt>
      <trkpt lat="48.36169" lon="2.77134">
        <ele>80.599998474121</ele>
        <time>2021-11-18T14:26:58Z</time>
      </trkpt>
      <trkpt lat="48.36174" lon="2.77134">
        <ele>80.800003051758</ele>
        <time>2021-11-18T14:27:03Z</time>
      </trkpt>
      <trkpt lat="48.3618" lon="2.77135">
        <ele>81</ele>
        <time>2021-11-18T14:27:08Z</time>
      </trkpt>
      <trkpt lat="48.36184" lon="2.77136">
        <ele>81</ele>
        <time>2021-11-18T14:27:13Z</time>
      </trkpt>
      <trkpt lat="48.36189" lon="2.77136">
        <ele>81</ele>
        <time>2021-11-18T14:27:18Z</time>
      </trkpt>
      <trkpt lat="48.36193" lon="2.77137">
        <ele>81</ele>
        <time>2021-11-18T14:27:23Z</time>
      </trkpt>
      <trkpt lat="48.362" lon="2.77139">
        <ele>81</ele>
        <time>2021-11-18T14:27:28Z</time>
      </trkpt>
      <trkpt lat="48.36205" lon="2.77139">
        <ele>81</ele>
        <time>2021-11-18T14:27:33Z</time>
      </trkpt>
      <trkpt lat="48.3621" lon="2.77138">
        <ele>81</ele>
        <time>2021-11-18T14:27:38Z</time>
      </trkpt>
      <trkpt lat="48.36214" lon="2.77136">
        <ele>81</ele>
        <time>2021-11-18T14:27:43Z</time>
      </trkpt>
      <trkpt lat="48.36221" lon="2.77136">
        <ele>81</ele>
        <time>2021-11-18T14:27:48Z</time>
      </trkpt>
      <trkpt lat="48.36226" lon="2.77138">
        <ele>81.199996948242</ele>
        <time>2021-11-18T14:27:53Z</time>
      </trkpt>
      <trkpt lat="48.36231" lon="2.77141">
        <ele>81.199996948242</ele>
        <time>2021-11-18T14:27:58Z</time>
      </trkpt>
      <trkpt lat="48.36236" lon="2.77142">
        <ele>81.199996948242</ele>
        <time>2021-11-18T14:28:03Z</time>
      </trkpt>
      <trkpt lat="48.36242" lon="2.77142">
        <ele>81.400001525879</ele>
        <time>2021-11-18T14:28:08Z</time>
      </trkpt>
      <trkpt lat="48.36248" lon="2.77142">
        <ele>81.400001525879</ele>
        <time>2021-11-18T14:28:13Z</time>
      </trkpt>
      <trkpt lat="48.36253" lon="2.77142">
        <ele>81.599998474121</ele>
        <time>2021-11-18T14:28:18Z</time>
      </trkpt>
      <trkpt lat="48.36258" lon="2.77142">
        <ele>81.599998474121</ele>
        <time>2021-11-18T14:28:23Z</time>
      </trkpt>
      <trkpt lat="48.36263" lon="2.77143">
        <ele>81.599998474121</ele>
        <time>2021-11-18T14:28:28Z</time>
      </trkpt>
      <trkpt lat="48.36269" lon="2.77144">
        <ele>81.800003051758</ele>
        <time>2021-11-18T14:28:33Z</time>
      </trkpt>
      <trkpt lat="48.36273" lon="2.77145">
        <ele>81.800003051758</ele>
        <time>2021-11-18T14:28:38Z</time>
      </trkpt>
      <trkpt lat="48.36277" lon="2.77144">
        <ele>81.800003051758</ele>
        <time>2021-11-18T14:28:43Z</time>
      </trkpt>
      <trkpt lat="48.36282" lon="2.77144">
        <ele>82</ele>
        <time>2021-11-18T14:28:48Z</time>
      </trkpt>
      <trkpt lat="48.36288" lon="2.77145">
        <ele>81.800003051758</ele>
        <time>2021-11-18T14:28:53Z</time>
      </trkpt>
      <trkpt lat="48.36294" lon="2.77146">
        <ele>81.800003051758</ele>
        <time>2021-11-18T14:28:58Z</time>
      </trkpt>
      <trkpt lat="48.363" lon="2.77147">
        <ele>82</ele>
        <time>2021-11-18T14:29:03Z</time>
      </trkpt>
      <trkpt lat="48.36303" lon="2.77149">
        <ele>82</ele>
        <time>2021-11-18T14:29:08Z</time>
      </trkpt>
      <trkpt lat="48.36307" lon="2.77149">
        <ele>82</ele>
        <time>2021-11-18T14:29:13Z</time>
      </trkpt>
      <trkpt lat="48.36309" lon="2.77148">
        <ele>82.199996948242</ele>
        <time>2021-11-18T14:29:18Z</time>
      </trkpt>
      <trkpt lat="48.36313" lon="2.77149">
        <ele>82.199996948242</ele>
        <time>2021-11-18T14:29:23Z</time>
      </trkpt>
      <trkpt lat="48.36319" lon="2.77149">
        <ele>82.199996948242</ele>
        <time>2021-11-18T14:29:28Z</time>
      </trkpt>
      <trkpt lat="48.36325" lon="2.77147">
        <ele>82.199996948242</ele>
        <time>2021-11-18T14:29:33Z</time>
      </trkpt>
      <trkpt lat="48.36328" lon="2.7715">
        <ele>82.400001525879</ele>
        <time>2021-11-18T14:29:38Z</time>
      </trkpt>
      <trkpt lat="48.36333" lon="2.77149">
        <ele>82.400001525879</ele>
        <time>2021-11-18T14:29:43Z</time>
      </trkpt>
      <trkpt lat="48.36338" lon="2.7715">
        <ele>82.599998474121</ele>
        <time>2021-11-18T14:29:48Z</time>
      </trkpt>
      <trkpt lat="48.36344" lon="2.77151">
        <ele>82.599998474121</ele>
        <time>2021-11-18T14:29:53Z</time>
      </trkpt>
      <trkpt lat="48.36349" lon="2.77151">
        <ele>82.800003051758</ele>
        <time>2021-11-18T14:29:58Z</time>
      </trkpt>
      <trkpt lat="48.36354" lon="2.77153">
        <ele>83</ele>
        <time>2021-11-18T14:30:03Z</time>
      </trkpt>
      <trkpt lat="48.3636" lon="2.77152">
        <ele>83.199996948242</ele>
        <time>2021-11-18T14:30:08Z</time>
      </trkpt>
      <trkpt lat="48.36363" lon="2.77152">
        <ele>83.199996948242</ele>
        <time>2021-11-18T14:30:13Z</time>
      </trkpt>
      <trkpt lat="48.3637" lon="2.77153">
        <ele>83.199996948242</ele>
        <time>2021-11-18T14:30:18Z</time>
      </trkpt>
      <trkpt lat="48.36375" lon="2.77153">
        <ele>83.199996948242</ele>
        <time>2021-11-18T14:30:23Z</time>
      </trkpt>
      <trkpt lat="48.3638" lon="2.77153">
        <ele>83.199996948242</ele>
        <time>2021-11-18T14:30:28Z</time>
      </trkpt>
      <trkpt lat="48.36387" lon="2.77153">
        <ele>83.199996948242</ele>
        <time>2021-11-18T14:30:33Z</time>
      </trkpt>
      <trkpt lat="48.36392" lon="2.77154">
        <ele>83.400001525879</ele>
        <time>2021-11-18T14:30:38Z</time>
      </trkpt>
      <trkpt lat="48.36397" lon="2.77154">
        <ele>83.400001525879</ele>
        <time>2021-11-18T14:30:43Z</time>
      </trkpt>
      <trkpt lat="48.36403" lon="2.77155">
        <ele>83.400001525879</ele>
        <time>2021-11-18T14:30:48Z</time>
      </trkpt>
      <trkpt lat="48.36408" lon="2.77156">
        <ele>83.599998474121</ele>
        <time>2021-11-18T14:30:53Z</time>
      </trkpt>
      <trkpt lat="48.36409" lon="2.77156">
        <ele>83.800003051758</ele>
        <time>2021-11-18T14:30:58Z</time>
      </trkpt>
      <trkpt lat="48.36409" lon="2.77156">
        <ele>83.800003051758</ele>
        <time>2021-11-18T14:31:03Z</time>
      </trkpt>
      <trkpt lat="48.36409" lon="2.77158">
        <ele>83.800003051758</ele>
        <time>2021-11-18T14:31:08Z</time>
      </trkpt>
      <trkpt lat="48.36409" lon="2.77158">
        <ele>83.800003051758</ele>
        <time>2021-11-18T14:31:13Z</time>
      </trkpt>
      <trkpt lat="48.36409" lon="2.77157">
        <ele>83.800003051758</ele>
        <time>2021-11-18T14:31:18Z</time>
      </trkpt>
      <trkpt lat="48.3641" lon="2.77155">
        <ele>83.800003051758</ele>
        <time>2021-11-18T14:31:23Z</time>
      </trkpt>
      <trkpt lat="48.36411" lon="2.77156">
        <ele>83.800003051758</ele>
        <time>2021-11-18T14:31:28Z</time>
      </trkpt>
      <trkpt lat="48.36412" lon="2.7716">
        <ele>83.800003051758</ele>
        <time>2021-11-18T14:31:33Z</time>
      </trkpt>
      <trkpt lat="48.36414" lon="2.77162">
        <ele>83.800003051758</ele>
        <time>2021-11-18T14:31:38Z</time>
      </trkpt>
      <trkpt lat="48.36416" lon="2.77163">
        <ele>83.800003051758</ele>
        <time>2021-11-18T14:31:43Z</time>
      </trkpt>
      <trkpt lat="48.36419" lon="2.77158">
        <ele>83.800003051758</ele>
        <time>2021-11-18T14:31:48Z</time>
      </trkpt>
      <trkpt lat="48.36423" lon="2.77155">
        <ele>84</ele>
        <time>2021-11-18T14:31:53Z</time>
      </trkpt>
      <trkpt lat="48.36427" lon="2.77155">
        <ele>84.199996948242</ele>
        <time>2021-11-18T14:31:58Z</time>
      </trkpt>
      <trkpt lat="48.36429" lon="2.77155">
        <ele>84.199996948242</ele>
        <time>2021-11-18T14:32:03Z</time>
      </trkpt>
      <trkpt lat="48.36433" lon="2.77155">
        <ele>84.400001525879</ele>
        <time>2021-11-18T14:32:08Z</time>
      </trkpt>
      <trkpt lat="48.36439" lon="2.77157">
        <ele>84.599998474121</ele>
        <time>2021-11-18T14:32:13Z</time>
      </trkpt>
      <trkpt lat="48.36444" lon="2.77158">
        <ele>84.599998474121</ele>
        <time>2021-11-18T14:32:18Z</time>
      </trkpt>
      <trkpt lat="48.3645" lon="2.77159">
        <ele>84.800003051758</ele>
        <time>2021-11-18T14:32:23Z</time>
      </trkpt>
      <trkpt lat="48.36455" lon="2.77158">
        <ele>84.800003051758</ele>
        <time>2021-11-18T14:32:28Z</time>
      </trkpt>
      <trkpt lat="48.3646" lon="2.77157">
        <ele>85</ele>
        <time>2021-11-18T14:32:33Z</time>
      </trkpt>
      <trkpt lat="48.36465" lon="2.77158">
        <ele>85</ele>
        <time>2021-11-18T14:32:38Z</time>
      </trkpt>
      <trkpt lat="48.3647" lon="2.77159">
        <ele>85.199996948242</ele>
        <time>2021-11-18T14:32:43Z</time>
      </trkpt>
      <trkpt lat="48.36473" lon="2.77161">
        <ele>85.199996948242</ele>
        <time>2021-11-18T14:32:48Z</time>
      </trkpt>
      <trkpt lat="48.36476" lon="2.7716">
        <ele>85.199996948242</ele>
        <time>2021-11-18T14:32:53Z</time>
      </trkpt>
      <trkpt lat="48.3648" lon="2.77161">
        <ele>85.199996948242</ele>
        <time>2021-11-18T14:32:58Z</time>
      </trkpt>
      <trkpt lat="48.36484" lon="2.77162">
        <ele>85.199996948242</ele>
        <time>2021-11-18T14:33:03Z</time>
      </trkpt>
      <trkpt lat="48.36489" lon="2.77161">
        <ele>85.400001525879</ele>
        <time>2021-11-18T14:33:08Z</time>
      </trkpt>
      <trkpt lat="48.36494" lon="2.77159">
        <ele>85.400001525879</ele>
        <time>2021-11-18T14:33:13Z</time>
      </trkpt>
      <trkpt lat="48.36499" lon="2.7716">
        <ele>85.400001525879</ele>
        <time>2021-11-18T14:33:18Z</time>
      </trkpt>
      <trkpt lat="48.36503" lon="2.77163">
        <ele>85.400001525879</ele>
        <time>2021-11-18T14:33:23Z</time>
      </trkpt>
      <trkpt lat="48.36506" lon="2.77164">
        <ele>85.599998474121</ele>
        <time>2021-11-18T14:33:28Z</time>
      </trkpt>
      <trkpt lat="48.3651" lon="2.77166">
        <ele>85.800003051758</ele>
        <time>2021-11-18T14:33:33Z</time>
      </trkpt>
      <trkpt lat="48.36516" lon="2.77166">
        <ele>85.800003051758</ele>
        <time>2021-11-18T14:33:38Z</time>
      </trkpt>
      <trkpt lat="48.36521" lon="2.77166">
        <ele>86</ele>
        <time>2021-11-18T14:33:43Z</time>
      </trkpt>
      <trkpt lat="48.36525" lon="2.77168">
        <ele>86</ele>
        <time>2021-11-18T14:33:48Z</time>
      </trkpt>
      <trkpt lat="48.3653" lon="2.77168">
        <ele>86.199996948242</ele>
        <time>2021-11-18T14:33:53Z</time>
      </trkpt>
      <trkpt lat="48.36532" lon="2.77167">
        <ele>86.199996948242</ele>
        <time>2021-11-18T14:33:58Z</time>
      </trkpt>
      <trkpt lat="48.36537" lon="2.77166">
        <ele>86.199996948242</ele>
        <time>2021-11-18T14:34:03Z</time>
      </trkpt>
      <trkpt lat="48.36544" lon="2.77167">
        <ele>86.199996948242</ele>
        <time>2021-11-18T14:34:08Z</time>
      </trkpt>
      <trkpt lat="48.36551" lon="2.77165">
        <ele>86.400001525879</ele>
        <time>2021-11-18T14:34:13Z</time>
      </trkpt>
      <trkpt lat="48.36556" lon="2.77165">
        <ele>86.400001525879</ele>
        <time>2021-11-18T14:34:18Z</time>
      </trkpt>
      <trkpt lat="48.36562" lon="2.77165">
        <ele>86.400001525879</ele>
        <time>2021-11-18T14:34:23Z</time>
      </trkpt>
      <trkpt lat="48.36569" lon="2.77163">
        <ele>86.599998474121</ele>
        <time>2021-11-18T14:34:28Z</time>
      </trkpt>
      <trkpt lat="48.36576" lon="2.77163">
        <ele>86.599998474121</ele>
        <time>2021-11-18T14:34:33Z</time>
      </trkpt>
      <trkpt lat="48.36578" lon="2.77163">
        <ele>86.599998474121</ele>
        <time>2021-11-18T14:34:38Z</time>
      </trkpt>
      <trkpt lat="48.36581" lon="2.77165">
        <ele>86.800003051758</ele>
        <time>2021-11-18T14:34:43Z</time>
      </trkpt>
      <trkpt lat="48.36587" lon="2.77166">
        <ele>87</ele>
        <time>2021-11-18T14:34:48Z</time>
      </trkpt>
      <trkpt lat="48.36591" lon="2.77165">
        <ele>87</ele>
        <time>2021-11-18T14:34:53Z</time>
      </trkpt>
      <trkpt lat="48.36597" lon="2.77166">
        <ele>87.199996948242</ele>
        <time>2021-11-18T14:34:58Z</time>
      </trkpt>
      <trkpt lat="48.36602" lon="2.77167">
        <ele>87.199996948242</ele>
        <time>2021-11-18T14:35:03Z</time>
      </trkpt>
      <trkpt lat="48.36608" lon="2.77167">
        <ele>87.199996948242</ele>
        <time>2021-11-18T14:35:08Z</time>
      </trkpt>
      <trkpt lat="48.36613" lon="2.77167">
        <ele>87.400001525879</ele>
        <time>2021-11-18T14:35:13Z</time>
      </trkpt>
      <trkpt lat="48.36617" lon="2.7717">
        <ele>87.400001525879</ele>
        <time>2021-11-18T14:35:18Z</time>
      </trkpt>
      <trkpt lat="48.36622" lon="2.77171">
        <ele>87.400001525879</ele>
        <time>2021-11-18T14:35:23Z</time>
      </trkpt>
      <trkpt lat="48.36626" lon="2.77172">
        <ele>87.400001525879</ele>
        <time>2021-11-18T14:35:28Z</time>
      </trkpt>
      <trkpt lat="48.3663" lon="2.77178">
        <ele>87.599998474121</ele>
        <time>2021-11-18T14:35:33Z</time>
      </trkpt>
      <trkpt lat="48.36634" lon="2.77176">
        <ele>87.599998474121</ele>
        <time>2021-11-18T14:35:38Z</time>
      </trkpt>
      <trkpt lat="48.36639" lon="2.77176">
        <ele>87.599998474121</ele>
        <time>2021-11-18T14:35:43Z</time>
      </trkpt>
      <trkpt lat="48.36645" lon="2.77176">
        <ele>87.800003051758</ele>
        <time>2021-11-18T14:35:48Z</time>
      </trkpt>
      <trkpt lat="48.36649" lon="2.77177">
        <ele>87.800003051758</ele>
        <time>2021-11-18T14:35:53Z</time>
      </trkpt>
      <trkpt lat="48.36657" lon="2.77175">
        <ele>88</ele>
        <time>2021-11-18T14:35:58Z</time>
      </trkpt>
      <trkpt lat="48.36664" lon="2.77175">
        <ele>88</ele>
        <time>2021-11-18T14:36:03Z</time>
      </trkpt>
      <trkpt lat="48.36672" lon="2.77173">
        <ele>88</ele>
        <time>2021-11-18T14:36:08Z</time>
      </trkpt>
      <trkpt lat="48.36676" lon="2.77174">
        <ele>88.199996948242</ele>
        <time>2021-11-18T14:36:13Z</time>
      </trkpt>
      <trkpt lat="48.3668" lon="2.77176">
        <ele>88.199996948242</ele>
        <time>2021-11-18T14:36:18Z</time>
      </trkpt>
      <trkpt lat="48.36682" lon="2.77176">
        <ele>88.199996948242</ele>
        <time>2021-11-18T14:36:23Z</time>
      </trkpt>
      <trkpt lat="48.36686" lon="2.77176">
        <ele>88.400001525879</ele>
        <time>2021-11-18T14:36:28Z</time>
      </trkpt>
      <trkpt lat="48.36689" lon="2.77176">
        <ele>88.400001525879</ele>
        <time>2021-11-18T14:36:33Z</time>
      </trkpt>
      <trkpt lat="48.36695" lon="2.77178">
        <ele>88.599998474121</ele>
        <time>2021-11-18T14:36:38Z</time>
      </trkpt>
      <trkpt lat="48.36704" lon="2.77176">
        <ele>88.599998474121</ele>
        <time>2021-11-18T14:36:43Z</time>
      </trkpt>
      <trkpt lat="48.3671" lon="2.77179">
        <ele>88.599998474121</ele>
        <time>2021-11-18T14:36:48Z</time>
      </trkpt>
      <trkpt lat="48.36716" lon="2.77178">
        <ele>88.800003051758</ele>
        <time>2021-11-18T14:36:53Z</time>
      </trkpt>
      <trkpt lat="48.36721" lon="2.77178">
        <ele>88.800003051758</ele>
        <time>2021-11-18T14:36:58Z</time>
      </trkpt>
      <trkpt lat="48.36728" lon="2.7718">
        <ele>88.800003051758</ele>
        <time>2021-11-18T14:37:03Z</time>
      </trkpt>
      <trkpt lat="48.36731" lon="2.7718">
        <ele>88.800003051758</ele>
        <time>2021-11-18T14:37:08Z</time>
      </trkpt>
      <trkpt lat="48.36732" lon="2.7718">
        <ele>88.800003051758</ele>
        <time>2021-11-18T14:37:13Z</time>
      </trkpt>
      <trkpt lat="48.36733" lon="2.7718">
        <ele>88.800003051758</ele>
        <time>2021-11-18T14:37:18Z</time>
      </trkpt>
      <trkpt lat="48.36735" lon="2.77179">
        <ele>89</ele>
        <time>2021-11-18T14:37:23Z</time>
      </trkpt>
      <trkpt lat="48.36736" lon="2.77179">
        <ele>89</ele>
        <time>2021-11-18T14:37:28Z</time>
      </trkpt>
      <trkpt lat="48.36737" lon="2.7718">
        <ele>89</ele>
        <time>2021-11-18T14:37:33Z</time>
      </trkpt>
      <trkpt lat="48.36736" lon="2.77182">
        <ele>89</ele>
        <time>2021-11-18T14:37:38Z</time>
      </trkpt>
      <trkpt lat="48.36737" lon="2.77184">
        <ele>89</ele>
        <time>2021-11-18T14:37:43Z</time>
      </trkpt>
      <trkpt lat="48.36736" lon="2.77184">
        <ele>89</ele>
        <time>2021-11-18T14:37:48Z</time>
      </trkpt>
      <trkpt lat="48.36737" lon="2.77184">
        <ele>89</ele>
        <time>2021-11-18T14:37:53Z</time>
      </trkpt>
      <trkpt lat="48.36736" lon="2.77184">
        <ele>88.800003051758</ele>
        <time>2021-11-18T14:37:58Z</time>
      </trkpt>
      <trkpt lat="48.36736" lon="2.77185">
        <ele>88.800003051758</ele>
        <time>2021-11-18T14:38:03Z</time>
      </trkpt>
      <trkpt lat="48.36736" lon="2.77185">
        <ele>89</ele>
        <time>2021-11-18T14:38:08Z</time>
      </trkpt>
      <trkpt lat="48.36736" lon="2.77184">
        <ele>88.800003051758</ele>
        <time>2021-11-18T14:38:13Z</time>
      </trkpt>
      <trkpt lat="48.36736" lon="2.77183">
        <ele>88.800003051758</ele>
        <time>2021-11-18T14:38:18Z</time>
      </trkpt>
      <trkpt lat="48.36736" lon="2.77182">
        <ele>88.800003051758</ele>
        <time>2021-11-18T14:38:23Z</time>
      </trkpt>
      <trkpt lat="48.36736" lon="2.77181">
        <ele>88.800003051758</ele>
        <time>2021-11-18T14:38:28Z</time>
      </trkpt>
      <trkpt lat="48.36736" lon="2.7718">
        <ele>88.800003051758</ele>
        <time>2021-11-18T14:38:33Z</time>
      </trkpt>
      <trkpt lat="48.36738" lon="2.77179">
        <ele>88.800003051758</ele>
        <time>2021-11-18T14:38:38Z</time>
      </trkpt>
      <trkpt lat="48.36739" lon="2.7718">
        <ele>88.800003051758</ele>
        <time>2021-11-18T14:38:43Z</time>
      </trkpt>
      <trkpt lat="48.36739" lon="2.77181">
        <ele>88.800003051758</ele>
        <time>2021-11-18T14:38:48Z</time>
      </trkpt>
      <trkpt lat="48.36739" lon="2.77182">
        <ele>88.800003051758</ele>
        <time>2021-11-18T14:38:53Z</time>
      </trkpt>
      <trkpt lat="48.36739" lon="2.77183">
        <ele>88.800003051758</ele>
        <time>2021-11-18T14:38:58Z</time>
      </trkpt>
      <trkpt lat="48.3674" lon="2.77185">
        <ele>88.800003051758</ele>
        <time>2021-11-18T14:39:03Z</time>
      </trkpt>
      <trkpt lat="48.3674" lon="2.77186">
        <ele>88.800003051758</ele>
        <time>2021-11-18T14:39:08Z</time>
      </trkpt>
      <trkpt lat="48.3674" lon="2.77186">
        <ele>88.800003051758</ele>
        <time>2021-11-18T14:39:13Z</time>
      </trkpt>
      <trkpt lat="48.36739" lon="2.77185">
        <ele>88.800003051758</ele>
        <time>2021-11-18T14:39:18Z</time>
      </trkpt>
      <trkpt lat="48.36739" lon="2.77185">
        <ele>88.800003051758</ele>
        <time>2021-11-18T14:39:23Z</time>
      </trkpt>
      <trkpt lat="48.36741" lon="2.77183">
        <ele>88.800003051758</ele>
        <time>2021-11-18T14:39:28Z</time>
      </trkpt>
      <trkpt lat="48.36742" lon="2.77182">
        <ele>88.800003051758</ele>
        <time>2021-11-18T14:39:33Z</time>
      </trkpt>
      <trkpt lat="48.36742" lon="2.77183">
        <ele>88.800003051758</ele>
        <time>2021-11-18T14:39:38Z</time>
      </trkpt>
      <trkpt lat="48.36742" lon="2.77183">
        <ele>88.800003051758</ele>
        <time>2021-11-18T14:39:43Z</time>
      </trkpt>
      <trkpt lat="48.36743" lon="2.77182">
        <ele>88.800003051758</ele>
        <time>2021-11-18T14:39:48Z</time>
      </trkpt>
      <trkpt lat="48.36743" lon="2.77182">
        <ele>88.800003051758</ele>
        <time>2021-11-18T14:39:53Z</time>
      </trkpt>
      <trkpt lat="48.36743" lon="2.77182">
        <ele>88.800003051758</ele>
        <time>2021-11-18T14:39:58Z</time>
      </trkpt>
      <trkpt lat="48.36744" lon="2.77182">
        <ele>88.800003051758</ele>
        <time>2021-11-18T14:40:03Z</time>
      </trkpt>
      <trkpt lat="48.36746" lon="2.77182">
        <ele>88.800003051758</ele>
        <time>2021-11-18T14:40:08Z</time>
      </trkpt>
      <trkpt lat="48.3675" lon="2.77185">
        <ele>88.800003051758</ele>
        <time>2021-11-18T14:40:13Z</time>
      </trkpt>
      <trkpt lat="48.36754" lon="2.77185">
        <ele>88.800003051758</ele>
        <time>2021-11-18T14:40:18Z</time>
      </trkpt>
      <trkpt lat="48.36758" lon="2.77186">
        <ele>88.800003051758</ele>
        <time>2021-11-18T14:40:23Z</time>
      </trkpt>
      <trkpt lat="48.36763" lon="2.77186">
        <ele>88.800003051758</ele>
        <time>2021-11-18T14:40:28Z</time>
      </trkpt>
      <trkpt lat="48.36768" lon="2.77185">
        <ele>88.800003051758</ele>
        <time>2021-11-18T14:40:33Z</time>
      </trkpt>
      <trkpt lat="48.36774" lon="2.77186">
        <ele>88.800003051758</ele>
        <time>2021-11-18T14:40:38Z</time>
      </trkpt>
      <trkpt lat="48.3678" lon="2.77186">
        <ele>88.800003051758</ele>
        <time>2021-11-18T14:40:43Z</time>
      </trkpt>
      <trkpt lat="48.36786" lon="2.77188">
        <ele>89</ele>
        <time>2021-11-18T14:40:48Z</time>
      </trkpt>
      <trkpt lat="48.36791" lon="2.77189">
        <ele>89.599998474121</ele>
        <time>2021-11-18T14:40:53Z</time>
      </trkpt>
      <trkpt lat="48.36794" lon="2.77187">
        <ele>89.599998474121</ele>
        <time>2021-11-18T14:40:58Z</time>
      </trkpt>
      <trkpt lat="48.36797" lon="2.77187">
        <ele>89.800003051758</ele>
        <time>2021-11-18T14:41:03Z</time>
      </trkpt>
      <trkpt lat="48.36799" lon="2.7719">
        <ele>89.800003051758</ele>
        <time>2021-11-18T14:41:08Z</time>
      </trkpt>
      <trkpt lat="48.36803" lon="2.7719">
        <ele>90</ele>
        <time>2021-11-18T14:41:13Z</time>
      </trkpt>
      <trkpt lat="48.36807" lon="2.7719">
        <ele>90</ele>
        <time>2021-11-18T14:41:18Z</time>
      </trkpt>
      <trkpt lat="48.36812" lon="2.7719">
        <ele>90.199996948242</ele>
        <time>2021-11-18T14:41:23Z</time>
      </trkpt>
      <trkpt lat="48.36816" lon="2.77191">
        <ele>90.599998474121</ele>
        <time>2021-11-18T14:41:28Z</time>
      </trkpt>
      <trkpt lat="48.36819" lon="2.7719">
        <ele>90.800003051758</ele>
        <time>2021-11-18T14:41:33Z</time>
      </trkpt>
      <trkpt lat="48.36823" lon="2.77192">
        <ele>91.199996948242</ele>
        <time>2021-11-18T14:41:38Z</time>
      </trkpt>
      <trkpt lat="48.36831" lon="2.77192">
        <ele>91.599998474121</ele>
        <time>2021-11-18T14:41:43Z</time>
      </trkpt>
      <trkpt lat="48.36835" lon="2.77191">
        <ele>92</ele>
        <time>2021-11-18T14:41:48Z</time>
      </trkpt>
      <trkpt lat="48.36837" lon="2.77192">
        <ele>92.400001525879</ele>
        <time>2021-11-18T14:41:53Z</time>
      </trkpt>
      <trkpt lat="48.36841" lon="2.77191">
        <ele>92.800003051758</ele>
        <time>2021-11-18T14:41:58Z</time>
      </trkpt>
      <trkpt lat="48.36845" lon="2.77192">
        <ele>93.400001525879</ele>
        <time>2021-11-18T14:42:03Z</time>
      </trkpt>
      <trkpt lat="48.36848" lon="2.77192">
        <ele>93.800003051758</ele>
        <time>2021-11-18T14:42:08Z</time>
      </trkpt>
      <trkpt lat="48.36853" lon="2.77193">
        <ele>94</ele>
        <time>2021-11-18T14:42:13Z</time>
      </trkpt>
      <trkpt lat="48.36857" lon="2.77194">
        <ele>94.599998474121</ele>
        <time>2021-11-18T14:42:18Z</time>
      </trkpt>
      <trkpt lat="48.36862" lon="2.77195">
        <ele>95.199996948242</ele>
        <time>2021-11-18T14:42:23Z</time>
      </trkpt>
      <trkpt lat="48.36868" lon="2.77196">
        <ele>95.800003051758</ele>
        <time>2021-11-18T14:42:28Z</time>
      </trkpt>
      <trkpt lat="48.36873" lon="2.77196">
        <ele>96.400001525879</ele>
        <time>2021-11-18T14:42:33Z</time>
      </trkpt>
      <trkpt lat="48.36877" lon="2.77194">
        <ele>96.800003051758</ele>
        <time>2021-11-18T14:42:38Z</time>
      </trkpt>
      <trkpt lat="48.36881" lon="2.7719">
        <ele>97.199996948242</ele>
        <time>2021-11-18T14:42:43Z</time>
      </trkpt>
      <trkpt lat="48.36887" lon="2.77187">
        <ele>97.400001525879</ele>
        <time>2021-11-18T14:42:48Z</time>
      </trkpt>
      <trkpt lat="48.36893" lon="2.77184">
        <ele>97.800003051758</ele>
        <time>2021-11-18T14:42:53Z</time>
      </trkpt>
      <trkpt lat="48.36899" lon="2.77187">
        <ele>98.199996948242</ele>
        <time>2021-11-18T14:42:58Z</time>
      </trkpt>
      <trkpt lat="48.36903" lon="2.77187">
        <ele>98.400001525879</ele>
        <time>2021-11-18T14:43:03Z</time>
      </trkpt>
      <trkpt lat="48.36907" lon="2.77187">
        <ele>98.400001525879</ele>
        <time>2021-11-18T14:43:08Z</time>
      </trkpt>
      <trkpt lat="48.36912" lon="2.7719">
        <ele>98.800003051758</ele>
        <time>2021-11-18T14:43:13Z</time>
      </trkpt>
      <trkpt lat="48.36915" lon="2.77193">
        <ele>98.800003051758</ele>
        <time>2021-11-18T14:43:18Z</time>
      </trkpt>
      <trkpt lat="48.36918" lon="2.77196">
        <ele>99</ele>
        <time>2021-11-18T14:43:23Z</time>
      </trkpt>
      <trkpt lat="48.36921" lon="2.77196">
        <ele>99</ele>
        <time>2021-11-18T14:43:28Z</time>
      </trkpt>
      <trkpt lat="48.36923" lon="2.77197">
        <ele>98.800003051758</ele>
        <time>2021-11-18T14:43:33Z</time>
      </trkpt>
      <trkpt lat="48.36925" lon="2.77197">
        <ele>98.400001525879</ele>
        <time>2021-11-18T14:43:38Z</time>
      </trkpt>
      <trkpt lat="48.36931" lon="2.77198">
        <ele>97.800003051758</ele>
        <time>2021-11-18T14:43:43Z</time>
      </trkpt>
      <trkpt lat="48.36935" lon="2.77197">
        <ele>97.199996948242</ele>
        <time>2021-11-18T14:43:48Z</time>
      </trkpt>
      <trkpt lat="48.36939" lon="2.77198">
        <ele>96.599998474121</ele>
        <time>2021-11-18T14:43:53Z</time>
      </trkpt>
      <trkpt lat="48.36942" lon="2.77199">
        <ele>96.199996948242</ele>
        <time>2021-11-18T14:43:58Z</time>
      </trkpt>
      <trkpt lat="48.36949" lon="2.77199">
        <ele>95.400001525879</ele>
        <time>2021-11-18T14:44:03Z</time>
      </trkpt>
      <trkpt lat="48.36955" lon="2.77201">
        <ele>94.599998474121</ele>
        <time>2021-11-18T14:44:08Z</time>
      </trkpt>
      <trkpt lat="48.36959" lon="2.77203">
        <ele>94.400001525879</ele>
        <time>2021-11-18T14:44:13Z</time>
      </trkpt>
      <trkpt lat="48.36961" lon="2.77204">
        <ele>94.199996948242</ele>
        <time>2021-11-18T14:44:18Z</time>
      </trkpt>
      <trkpt lat="48.36961" lon="2.77205">
        <ele>94</ele>
        <time>2021-11-18T14:44:23Z</time>
      </trkpt>
      <trkpt lat="48.36962" lon="2.77206">
        <ele>94</ele>
        <time>2021-11-18T14:44:28Z</time>
      </trkpt>
      <trkpt lat="48.36963" lon="2.77208">
        <ele>94</ele>
        <time>2021-11-18T14:44:33Z</time>
      </trkpt>
      <trkpt lat="48.36965" lon="2.7721">
        <ele>94</ele>
        <time>2021-11-18T14:44:38Z</time>
      </trkpt>
      <trkpt lat="48.36964" lon="2.77208">
        <ele>94</ele>
        <time>2021-11-18T14:44:43Z</time>
      </trkpt>
      <trkpt lat="48.36965" lon="2.77206">
        <ele>93.800003051758</ele>
        <time>2021-11-18T14:44:48Z</time>
      </trkpt>
      <trkpt lat="48.36967" lon="2.77205">
        <ele>94</ele>
        <time>2021-11-18T14:44:53Z</time>
      </trkpt>
      <trkpt lat="48.36968" lon="2.77205">
        <ele>94</ele>
        <time>2021-11-18T14:44:58Z</time>
      </trkpt>
      <trkpt lat="48.36968" lon="2.77205">
        <ele>94</ele>
        <time>2021-11-18T14:45:03Z</time>
      </trkpt>
      <trkpt lat="48.3697" lon="2.77205">
        <ele>94</ele>
        <time>2021-11-18T14:45:08Z</time>
      </trkpt>
      <trkpt lat="48.36973" lon="2.77204">
        <ele>94.199996948242</ele>
        <time>2021-11-18T14:45:13Z</time>
      </trkpt>
      <trkpt lat="48.36974" lon="2.77203">
        <ele>94</ele>
        <time>2021-11-18T14:45:18Z</time>
      </trkpt>
      <trkpt lat="48.36979" lon="2.77203">
        <ele>94.199996948242</ele>
        <time>2021-11-18T14:45:23Z</time>
      </trkpt>
      <trkpt lat="48.3698" lon="2.77205">
        <ele>94.199996948242</ele>
        <time>2021-11-18T14:45:28Z</time>
      </trkpt>
      <trkpt lat="48.36979" lon="2.77211">
        <ele>94.400001525879</ele>
        <time>2021-11-18T14:45:33Z</time>
      </trkpt>
      <trkpt lat="48.36979" lon="2.77215">
        <ele>94.199996948242</ele>
        <time>2021-11-18T14:45:38Z</time>
      </trkpt>
      <trkpt lat="48.36977" lon="2.7722">
        <ele>94.199996948242</ele>
        <time>2021-11-18T14:45:43Z</time>
      </trkpt>
      <trkpt lat="48.36977" lon="2.77223">
        <ele>94</ele>
        <time>2021-11-18T14:45:48Z</time>
      </trkpt>
      <trkpt lat="48.36976" lon="2.77227">
        <ele>93.800003051758</ele>
        <time>2021-11-18T14:45:53Z</time>
      </trkpt>
      <trkpt lat="48.36976" lon="2.77232">
        <ele>94</ele>
        <time>2021-11-18T14:45:58Z</time>
      </trkpt>
      <trkpt lat="48.36976" lon="2.77237">
        <ele>94</ele>
        <time>2021-11-18T14:46:03Z</time>
      </trkpt>
      <trkpt lat="48.36977" lon="2.77242">
        <ele>94.199996948242</ele>
        <time>2021-11-18T14:46:08Z</time>
      </trkpt>
      <trkpt lat="48.36974" lon="2.7725">
        <ele>94.599998474121</ele>
        <time>2021-11-18T14:46:13Z</time>
      </trkpt>
      <trkpt lat="48.36971" lon="2.77256">
        <ele>94.400001525879</ele>
        <time>2021-11-18T14:46:18Z</time>
      </trkpt>
      <trkpt lat="48.3697" lon="2.77264">
        <ele>94</ele>
        <time>2021-11-18T14:46:23Z</time>
      </trkpt>
      <trkpt lat="48.36969" lon="2.7727">
        <ele>93.800003051758</ele>
        <time>2021-11-18T14:46:28Z</time>
      </trkpt>
      <trkpt lat="48.36967" lon="2.77275">
        <ele>93.599998474121</ele>
        <time>2021-11-18T14:46:33Z</time>
      </trkpt>
      <trkpt lat="48.36965" lon="2.77281">
        <ele>93.800003051758</ele>
        <time>2021-11-18T14:46:38Z</time>
      </trkpt>
      <trkpt lat="48.36963" lon="2.77286">
        <ele>93.800003051758</ele>
        <time>2021-11-18T14:46:43Z</time>
      </trkpt>
      <trkpt lat="48.36963" lon="2.77291">
        <ele>94</ele>
        <time>2021-11-18T14:46:48Z</time>
      </trkpt>
      <trkpt lat="48.36962" lon="2.77298">
        <ele>94</ele>
        <time>2021-11-18T14:46:53Z</time>
      </trkpt>
      <trkpt lat="48.36961" lon="2.77303">
        <ele>94.199996948242</ele>
        <time>2021-11-18T14:46:58Z</time>
      </trkpt>
      <trkpt lat="48.3696" lon="2.77308">
        <ele>94.599998474121</ele>
        <time>2021-11-18T14:47:03Z</time>
      </trkpt>
      <trkpt lat="48.36959" lon="2.77314">
        <ele>94.800003051758</ele>
        <time>2021-11-18T14:47:08Z</time>
      </trkpt>
      <trkpt lat="48.36958" lon="2.77322">
        <ele>95</ele>
        <time>2021-11-18T14:47:13Z</time>
      </trkpt>
      <trkpt lat="48.36957" lon="2.77328">
        <ele>95</ele>
        <time>2021-11-18T14:47:18Z</time>
      </trkpt>
      <trkpt lat="48.36957" lon="2.77334">
        <ele>94.800003051758</ele>
        <time>2021-11-18T14:47:23Z</time>
      </trkpt>
      <trkpt lat="48.36955" lon="2.77343">
        <ele>94.599998474121</ele>
        <time>2021-11-18T14:47:28Z</time>
      </trkpt>
      <trkpt lat="48.36954" lon="2.7735">
        <ele>94.599998474121</ele>
        <time>2021-11-18T14:47:33Z</time>
      </trkpt>
      <trkpt lat="48.36953" lon="2.77356">
        <ele>94.599998474121</ele>
        <time>2021-11-18T14:47:38Z</time>
      </trkpt>
      <trkpt lat="48.36951" lon="2.77364">
        <ele>94.599998474121</ele>
        <time>2021-11-18T14:47:43Z</time>
      </trkpt>
      <trkpt lat="48.3695" lon="2.77372">
        <ele>94.400001525879</ele>
        <time>2021-11-18T14:47:48Z</time>
      </trkpt>
      <trkpt lat="48.36948" lon="2.7738">
        <ele>94.400001525879</ele>
        <time>2021-11-18T14:47:53Z</time>
      </trkpt>
      <trkpt lat="48.36945" lon="2.77387">
        <ele>94.599998474121</ele>
        <time>2021-11-18T14:47:58Z</time>
      </trkpt>
      <trkpt lat="48.36943" lon="2.77394">
        <ele>94.800003051758</ele>
        <time>2021-11-18T14:48:03Z</time>
      </trkpt>
      <trkpt lat="48.36943" lon="2.77401">
        <ele>94.800003051758</ele>
        <time>2021-11-18T14:48:08Z</time>
      </trkpt>
      <trkpt lat="48.36942" lon="2.77406">
        <ele>94.800003051758</ele>
        <time>2021-11-18T14:48:13Z</time>
      </trkpt>
      <trkpt lat="48.3694" lon="2.7741">
        <ele>94.400001525879</ele>
        <time>2021-11-18T14:48:18Z</time>
      </trkpt>
      <trkpt lat="48.3694" lon="2.77414">
        <ele>94</ele>
        <time>2021-11-18T14:48:23Z</time>
      </trkpt>
      <trkpt lat="48.36938" lon="2.77421">
        <ele>93.599998474121</ele>
        <time>2021-11-18T14:48:28Z</time>
      </trkpt>
      <trkpt lat="48.36937" lon="2.77429">
        <ele>93.599998474121</ele>
        <time>2021-11-18T14:48:33Z</time>
      </trkpt>
      <trkpt lat="48.36934" lon="2.77436">
        <ele>93.599998474121</ele>
        <time>2021-11-18T14:48:38Z</time>
      </trkpt>
      <trkpt lat="48.36933" lon="2.77441">
        <ele>93.800003051758</ele>
        <time>2021-11-18T14:48:43Z</time>
      </trkpt>
      <trkpt lat="48.36933" lon="2.77444">
        <ele>93.800003051758</ele>
        <time>2021-11-18T14:48:48Z</time>
      </trkpt>
      <trkpt lat="48.36932" lon="2.7745">
        <ele>93.800003051758</ele>
        <time>2021-11-18T14:48:53Z</time>
      </trkpt>
      <trkpt lat="48.3693" lon="2.77459">
        <ele>93.800003051758</ele>
        <time>2021-11-18T14:48:58Z</time>
      </trkpt>
      <trkpt lat="48.36929" lon="2.77466">
        <ele>93.800003051758</ele>
        <time>2021-11-18T14:49:03Z</time>
      </trkpt>
      <trkpt lat="48.36926" lon="2.77478">
        <ele>93.800003051758</ele>
        <time>2021-11-18T14:49:08Z</time>
      </trkpt>
      <trkpt lat="48.36925" lon="2.77484">
        <ele>93.800003051758</ele>
        <time>2021-11-18T14:49:13Z</time>
      </trkpt>
      <trkpt lat="48.36923" lon="2.77489">
        <ele>93.599998474121</ele>
        <time>2021-11-18T14:49:18Z</time>
      </trkpt>
      <trkpt lat="48.36921" lon="2.77497">
        <ele>93.599998474121</ele>
        <time>2021-11-18T14:49:23Z</time>
      </trkpt>
      <trkpt lat="48.36919" lon="2.77505">
        <ele>93.400001525879</ele>
        <time>2021-11-18T14:49:28Z</time>
      </trkpt>
      <trkpt lat="48.36918" lon="2.77513">
        <ele>93.599998474121</ele>
        <time>2021-11-18T14:49:33Z</time>
      </trkpt>
      <trkpt lat="48.36916" lon="2.7752">
        <ele>93.599998474121</ele>
        <time>2021-11-18T14:49:38Z</time>
      </trkpt>
      <trkpt lat="48.36915" lon="2.77529">
        <ele>93.800003051758</ele>
        <time>2021-11-18T14:49:43Z</time>
      </trkpt>
      <trkpt lat="48.36914" lon="2.77537">
        <ele>93.800003051758</ele>
        <time>2021-11-18T14:49:48Z</time>
      </trkpt>
      <trkpt lat="48.36913" lon="2.77545">
        <ele>93.800003051758</ele>
        <time>2021-11-18T14:49:53Z</time>
      </trkpt>
      <trkpt lat="48.36913" lon="2.77551">
        <ele>93.800003051758</ele>
        <time>2021-11-18T14:49:58Z</time>
      </trkpt>
      <trkpt lat="48.36913" lon="2.77558">
        <ele>94</ele>
        <time>2021-11-18T14:50:03Z</time>
      </trkpt>
      <trkpt lat="48.36911" lon="2.77566">
        <ele>93.800003051758</ele>
        <time>2021-11-18T14:50:08Z</time>
      </trkpt>
      <trkpt lat="48.36909" lon="2.77573">
        <ele>94</ele>
        <time>2021-11-18T14:50:13Z</time>
      </trkpt>
      <trkpt lat="48.36906" lon="2.7758">
        <ele>94</ele>
        <time>2021-11-18T14:50:18Z</time>
      </trkpt>
      <trkpt lat="48.36904" lon="2.77589">
        <ele>94</ele>
        <time>2021-11-18T14:50:23Z</time>
      </trkpt>
      <trkpt lat="48.36902" lon="2.77596">
        <ele>94.199996948242</ele>
        <time>2021-11-18T14:50:28Z</time>
      </trkpt>
      <trkpt lat="48.36903" lon="2.77602">
        <ele>94.199996948242</ele>
        <time>2021-11-18T14:50:33Z</time>
      </trkpt>
      <trkpt lat="48.36902" lon="2.77609">
        <ele>94.199996948242</ele>
        <time>2021-11-18T14:50:38Z</time>
      </trkpt>
      <trkpt lat="48.369" lon="2.77614">
        <ele>94.400001525879</ele>
        <time>2021-11-18T14:50:43Z</time>
      </trkpt>
      <trkpt lat="48.36899" lon="2.7762">
        <ele>94.599998474121</ele>
        <time>2021-11-18T14:50:48Z</time>
      </trkpt>
      <trkpt lat="48.36894" lon="2.77628">
        <ele>95</ele>
        <time>2021-11-18T14:50:53Z</time>
      </trkpt>
      <trkpt lat="48.36893" lon="2.77635">
        <ele>95.599998474121</ele>
        <time>2021-11-18T14:50:58Z</time>
      </trkpt>
      <trkpt lat="48.36893" lon="2.77643">
        <ele>95.800003051758</ele>
        <time>2021-11-18T14:51:03Z</time>
      </trkpt>
      <trkpt lat="48.36893" lon="2.77647">
        <ele>96</ele>
        <time>2021-11-18T14:51:08Z</time>
      </trkpt>
      <trkpt lat="48.36892" lon="2.77653">
        <ele>96.199996948242</ele>
        <time>2021-11-18T14:51:13Z</time>
      </trkpt>
      <trkpt lat="48.36893" lon="2.77659">
        <ele>96.599998474121</ele>
        <time>2021-11-18T14:51:18Z</time>
      </trkpt>
      <trkpt lat="48.36893" lon="2.77667">
        <ele>96.800003051758</ele>
        <time>2021-11-18T14:51:23Z</time>
      </trkpt>
      <trkpt lat="48.36894" lon="2.77674">
        <ele>96.800003051758</ele>
        <time>2021-11-18T14:51:28Z</time>
      </trkpt>
      <trkpt lat="48.36895" lon="2.77681">
        <ele>96.800003051758</ele>
        <time>2021-11-18T14:51:33Z</time>
      </trkpt>
      <trkpt lat="48.36896" lon="2.77687">
        <ele>96.800003051758</ele>
        <time>2021-11-18T14:51:38Z</time>
      </trkpt>
      <trkpt lat="48.36894" lon="2.77696">
        <ele>97.199996948242</ele>
        <time>2021-11-18T14:51:43Z</time>
      </trkpt>
      <trkpt lat="48.36894" lon="2.77703">
        <ele>97.599998474121</ele>
        <time>2021-11-18T14:51:48Z</time>
      </trkpt>
      <trkpt lat="48.36896" lon="2.77709">
        <ele>98.199996948242</ele>
        <time>2021-11-18T14:51:53Z</time>
      </trkpt>
      <trkpt lat="48.36898" lon="2.77716">
        <ele>98.400001525879</ele>
        <time>2021-11-18T14:51:58Z</time>
      </trkpt>
      <trkpt lat="48.36898" lon="2.77723">
        <ele>98.599998474121</ele>
        <time>2021-11-18T14:52:03Z</time>
      </trkpt>
      <trkpt lat="48.36899" lon="2.77729">
        <ele>98.800003051758</ele>
        <time>2021-11-18T14:52:08Z</time>
      </trkpt>
      <trkpt lat="48.369" lon="2.77732">
        <ele>99</ele>
        <time>2021-11-18T14:52:13Z</time>
      </trkpt>
      <trkpt lat="48.369" lon="2.77737">
        <ele>98.800003051758</ele>
        <time>2021-11-18T14:52:18Z</time>
      </trkpt>
      <trkpt lat="48.369" lon="2.77742">
        <ele>99</ele>
        <time>2021-11-18T14:52:23Z</time>
      </trkpt>
      <trkpt lat="48.36899" lon="2.77748">
        <ele>99</ele>
        <time>2021-11-18T14:52:28Z</time>
      </trkpt>
      <trkpt lat="48.36897" lon="2.77754">
        <ele>99</ele>
        <time>2021-11-18T14:52:33Z</time>
      </trkpt>
      <trkpt lat="48.36894" lon="2.77763">
        <ele>98.800003051758</ele>
        <time>2021-11-18T14:52:38Z</time>
      </trkpt>
      <trkpt lat="48.36892" lon="2.7777">
        <ele>98.400001525879</ele>
        <time>2021-11-18T14:52:43Z</time>
      </trkpt>
      <trkpt lat="48.36889" lon="2.77779">
        <ele>97.800003051758</ele>
        <time>2021-11-18T14:52:48Z</time>
      </trkpt>
      <trkpt lat="48.36887" lon="2.77785">
        <ele>97.400001525879</ele>
        <time>2021-11-18T14:52:53Z</time>
      </trkpt>
      <trkpt lat="48.36886" lon="2.77791">
        <ele>97.199996948242</ele>
        <time>2021-11-18T14:52:58Z</time>
      </trkpt>
      <trkpt lat="48.36885" lon="2.77796">
        <ele>97.400001525879</ele>
        <time>2021-11-18T14:53:03Z</time>
      </trkpt>
      <trkpt lat="48.36884" lon="2.77801">
        <ele>97.599998474121</ele>
        <time>2021-11-18T14:53:08Z</time>
      </trkpt>
      <trkpt lat="48.36883" lon="2.77808">
        <ele>98</ele>
        <time>2021-11-18T14:53:13Z</time>
      </trkpt>
      <trkpt lat="48.36882" lon="2.77817">
        <ele>98.199996948242</ele>
        <time>2021-11-18T14:53:18Z</time>
      </trkpt>
      <trkpt lat="48.36881" lon="2.77824">
        <ele>98</ele>
        <time>2021-11-18T14:53:23Z</time>
      </trkpt>
      <trkpt lat="48.36879" lon="2.7783">
        <ele>98</ele>
        <time>2021-11-18T14:53:28Z</time>
      </trkpt>
      <trkpt lat="48.36879" lon="2.77835">
        <ele>97.800003051758</ele>
        <time>2021-11-18T14:53:33Z</time>
      </trkpt>
      <trkpt lat="48.3688" lon="2.77841">
        <ele>97.400001525879</ele>
        <time>2021-11-18T14:53:38Z</time>
      </trkpt>
      <trkpt lat="48.36882" lon="2.77847">
        <ele>96.800003051758</ele>
        <time>2021-11-18T14:53:43Z</time>
      </trkpt>
      <trkpt lat="48.36883" lon="2.77852">
        <ele>96.400001525879</ele>
        <time>2021-11-18T14:53:48Z</time>
      </trkpt>
      <trkpt lat="48.36885" lon="2.77856">
        <ele>96.199996948242</ele>
        <time>2021-11-18T14:53:53Z</time>
      </trkpt>
      <trkpt lat="48.36886" lon="2.77865">
        <ele>95.800003051758</ele>
        <time>2021-11-18T14:53:58Z</time>
      </trkpt>
      <trkpt lat="48.36888" lon="2.77874">
        <ele>95.800003051758</ele>
        <time>2021-11-18T14:54:03Z</time>
      </trkpt>
      <trkpt lat="48.3689" lon="2.77882">
        <ele>95.599998474121</ele>
        <time>2021-11-18T14:54:08Z</time>
      </trkpt>
      <trkpt lat="48.36892" lon="2.77893">
        <ele>95.599998474121</ele>
        <time>2021-11-18T14:54:13Z</time>
      </trkpt>
      <trkpt lat="48.36893" lon="2.77901">
        <ele>95.599998474121</ele>
        <time>2021-11-18T14:54:18Z</time>
      </trkpt>
      <trkpt lat="48.36893" lon="2.77909">
        <ele>95.400001525879</ele>
        <time>2021-11-18T14:54:23Z</time>
      </trkpt>
      <trkpt lat="48.36895" lon="2.77915">
        <ele>95.400001525879</ele>
        <time>2021-11-18T14:54:28Z</time>
      </trkpt>
      <trkpt lat="48.36895" lon="2.77921">
        <ele>95.199996948242</ele>
        <time>2021-11-18T14:54:33Z</time>
      </trkpt>
      <trkpt lat="48.36896" lon="2.77928">
        <ele>95</ele>
        <time>2021-11-18T14:54:38Z</time>
      </trkpt>
      <trkpt lat="48.36897" lon="2.77932">
        <ele>94.400001525879</ele>
        <time>2021-11-18T14:54:43Z</time>
      </trkpt>
      <trkpt lat="48.36897" lon="2.77938">
        <ele>93.599998474121</ele>
        <time>2021-11-18T14:54:48Z</time>
      </trkpt>
      <trkpt lat="48.36898" lon="2.77943">
        <ele>93</ele>
        <time>2021-11-18T14:54:53Z</time>
      </trkpt>
      <trkpt lat="48.369" lon="2.7795">
        <ele>92.800003051758</ele>
        <time>2021-11-18T14:54:58Z</time>
      </trkpt>
      <trkpt lat="48.36902" lon="2.77957">
        <ele>92.800003051758</ele>
        <time>2021-11-18T14:55:03Z</time>
      </trkpt>
      <trkpt lat="48.36904" lon="2.77963">
        <ele>93</ele>
        <time>2021-11-18T14:55:08Z</time>
      </trkpt>
      <trkpt lat="48.36907" lon="2.7797">
        <ele>92.800003051758</ele>
        <time>2021-11-18T14:55:13Z</time>
      </trkpt>
      <trkpt lat="48.36908" lon="2.77978">
        <ele>93</ele>
        <time>2021-11-18T14:55:18Z</time>
      </trkpt>
      <trkpt lat="48.36911" lon="2.77986">
        <ele>93.400001525879</ele>
        <time>2021-11-18T14:55:23Z</time>
      </trkpt>
      <trkpt lat="48.36911" lon="2.77993">
        <ele>93.599998474121</ele>
        <time>2021-11-18T14:55:28Z</time>
      </trkpt>
      <trkpt lat="48.36912" lon="2.77997">
        <ele>94.199996948242</ele>
        <time>2021-11-18T14:55:33Z</time>
      </trkpt>
      <trkpt lat="48.36913" lon="2.78002">
        <ele>95</ele>
        <time>2021-11-18T14:55:38Z</time>
      </trkpt>
      <trkpt lat="48.36915" lon="2.7801">
        <ele>95.599998474121</ele>
        <time>2021-11-18T14:55:43Z</time>
      </trkpt>
      <trkpt lat="48.36915" lon="2.78016">
        <ele>96.199996948242</ele>
        <time>2021-11-18T14:55:48Z</time>
      </trkpt>
      <trkpt lat="48.36917" lon="2.78022">
        <ele>96.800003051758</ele>
        <time>2021-11-18T14:55:53Z</time>
      </trkpt>
      <trkpt lat="48.36918" lon="2.78028">
        <ele>97</ele>
        <time>2021-11-18T14:55:58Z</time>
      </trkpt>
      <trkpt lat="48.36919" lon="2.78036">
        <ele>97</ele>
        <time>2021-11-18T14:56:03Z</time>
      </trkpt>
      <trkpt lat="48.3692" lon="2.78041">
        <ele>97</ele>
        <time>2021-11-18T14:56:08Z</time>
      </trkpt>
      <trkpt lat="48.36921" lon="2.78048">
        <ele>97.199996948242</ele>
        <time>2021-11-18T14:56:13Z</time>
      </trkpt>
      <trkpt lat="48.36923" lon="2.78057">
        <ele>97</ele>
        <time>2021-11-18T14:56:18Z</time>
      </trkpt>
      <trkpt lat="48.36924" lon="2.78064">
        <ele>96.800003051758</ele>
        <time>2021-11-18T14:56:23Z</time>
      </trkpt>
      <trkpt lat="48.36926" lon="2.78071">
        <ele>96.599998474121</ele>
        <time>2021-11-18T14:56:28Z</time>
      </trkpt>
      <trkpt lat="48.36929" lon="2.78075">
        <ele>96.800003051758</ele>
        <time>2021-11-18T14:56:33Z</time>
      </trkpt>
      <trkpt lat="48.3693" lon="2.78084">
        <ele>96.800003051758</ele>
        <time>2021-11-18T14:56:38Z</time>
      </trkpt>
      <trkpt lat="48.36933" lon="2.7809">
        <ele>96.599998474121</ele>
        <time>2021-11-18T14:56:43Z</time>
      </trkpt>
      <trkpt lat="48.36933" lon="2.78098">
        <ele>96.599998474121</ele>
        <time>2021-11-18T14:56:48Z</time>
      </trkpt>
      <trkpt lat="48.36935" lon="2.78106">
        <ele>96.400001525879</ele>
        <time>2021-11-18T14:56:53Z</time>
      </trkpt>
      <trkpt lat="48.36939" lon="2.78112">
        <ele>96.400001525879</ele>
        <time>2021-11-18T14:56:58Z</time>
      </trkpt>
      <trkpt lat="48.3694" lon="2.78117">
        <ele>96.599998474121</ele>
        <time>2021-11-18T14:57:03Z</time>
      </trkpt>
      <trkpt lat="48.36941" lon="2.78122">
        <ele>96.800003051758</ele>
        <time>2021-11-18T14:57:08Z</time>
      </trkpt>
      <trkpt lat="48.36943" lon="2.7813">
        <ele>97</ele>
        <time>2021-11-18T14:57:13Z</time>
      </trkpt>
      <trkpt lat="48.36947" lon="2.78136">
        <ele>97.400001525879</ele>
        <time>2021-11-18T14:57:18Z</time>
      </trkpt>
      <trkpt lat="48.3695" lon="2.78141">
        <ele>97.599998474121</ele>
        <time>2021-11-18T14:57:23Z</time>
      </trkpt>
      <trkpt lat="48.36952" lon="2.78145">
        <ele>97.599998474121</ele>
        <time>2021-11-18T14:57:28Z</time>
      </trkpt>
      <trkpt lat="48.36954" lon="2.78154">
        <ele>97.400001525879</ele>
        <time>2021-11-18T14:57:33Z</time>
      </trkpt>
      <trkpt lat="48.36955" lon="2.78163">
        <ele>97.199996948242</ele>
        <time>2021-11-18T14:57:38Z</time>
      </trkpt>
      <trkpt lat="48.36958" lon="2.78172">
        <ele>97</ele>
        <time>2021-11-18T14:57:43Z</time>
      </trkpt>
      <trkpt lat="48.36962" lon="2.7818">
        <ele>97</ele>
        <time>2021-11-18T14:57:48Z</time>
      </trkpt>
      <trkpt lat="48.36966" lon="2.78185">
        <ele>97.199996948242</ele>
        <time>2021-11-18T14:57:53Z</time>
      </trkpt>
      <trkpt lat="48.3697" lon="2.78189">
        <ele>97.199996948242</ele>
        <time>2021-11-18T14:57:58Z</time>
      </trkpt>
      <trkpt lat="48.36971" lon="2.78198">
        <ele>97.199996948242</ele>
        <time>2021-11-18T14:58:03Z</time>
      </trkpt>
      <trkpt lat="48.36971" lon="2.78209">
        <ele>97</ele>
        <time>2021-11-18T14:58:08Z</time>
      </trkpt>
      <trkpt lat="48.36969" lon="2.78215">
        <ele>96.800003051758</ele>
        <time>2021-11-18T14:58:13Z</time>
      </trkpt>
      <trkpt lat="48.36967" lon="2.78216">
        <ele>97</ele>
        <time>2021-11-18T14:58:18Z</time>
      </trkpt>
      <trkpt lat="48.36962" lon="2.78217">
        <ele>97.800003051758</ele>
        <time>2021-11-18T14:58:23Z</time>
      </trkpt>
      <trkpt lat="48.36956" lon="2.78216">
        <ele>98</ele>
        <time>2021-11-18T14:58:28Z</time>
      </trkpt>
      <trkpt lat="48.36951" lon="2.78216">
        <ele>98.400001525879</ele>
        <time>2021-11-18T14:58:33Z</time>
      </trkpt>
      <trkpt lat="48.36947" lon="2.78215">
        <ele>98.800003051758</ele>
        <time>2021-11-18T14:58:38Z</time>
      </trkpt>
      <trkpt lat="48.36943" lon="2.78217">
        <ele>99.199996948242</ele>
        <time>2021-11-18T14:58:43Z</time>
      </trkpt>
      <trkpt lat="48.36938" lon="2.7822">
        <ele>99.400001525879</ele>
        <time>2021-11-18T14:58:48Z</time>
      </trkpt>
      <trkpt lat="48.36935" lon="2.78219">
        <ele>99.800003051758</ele>
        <time>2021-11-18T14:58:53Z</time>
      </trkpt>
      <trkpt lat="48.3693" lon="2.7822">
        <ele>100.19999694824</ele>
        <time>2021-11-18T14:58:58Z</time>
      </trkpt>
      <trkpt lat="48.36926" lon="2.78219">
        <ele>101</ele>
        <time>2021-11-18T14:59:03Z</time>
      </trkpt>
      <trkpt lat="48.36924" lon="2.7822">
        <ele>102</ele>
        <time>2021-11-18T14:59:08Z</time>
      </trkpt>
      <trkpt lat="48.3692" lon="2.7822">
        <ele>102.19999694824</ele>
        <time>2021-11-18T14:59:13Z</time>
      </trkpt>
      <trkpt lat="48.36915" lon="2.78223">
        <ele>103</ele>
        <time>2021-11-18T14:59:18Z</time>
      </trkpt>
      <trkpt lat="48.36908" lon="2.78226">
        <ele>103.40000152588</ele>
        <time>2021-11-18T14:59:23Z</time>
      </trkpt>
      <trkpt lat="48.36903" lon="2.78227">
        <ele>103.80000305176</ele>
        <time>2021-11-18T14:59:28Z</time>
      </trkpt>
      <trkpt lat="48.36903" lon="2.7823">
        <ele>104.40000152588</ele>
        <time>2021-11-18T14:59:33Z</time>
      </trkpt>
      <trkpt lat="48.36903" lon="2.78234">
        <ele>104.80000305176</ele>
        <time>2021-11-18T14:59:38Z</time>
      </trkpt>
      <trkpt lat="48.36903" lon="2.78236">
        <ele>105</ele>
        <time>2021-11-18T14:59:43Z</time>
      </trkpt>
      <trkpt lat="48.36902" lon="2.7824">
        <ele>105.40000152588</ele>
        <time>2021-11-18T14:59:48Z</time>
      </trkpt>
      <trkpt lat="48.369" lon="2.78244">
        <ele>106.40000152588</ele>
        <time>2021-11-18T14:59:53Z</time>
      </trkpt>
      <trkpt lat="48.36897" lon="2.78246">
        <ele>106.40000152588</ele>
        <time>2021-11-18T14:59:58Z</time>
      </trkpt>
      <trkpt lat="48.36893" lon="2.78251">
        <ele>106.40000152588</ele>
        <time>2021-11-18T15:00:03Z</time>
      </trkpt>
      <trkpt lat="48.36889" lon="2.78256">
        <ele>106.40000152588</ele>
        <time>2021-11-18T15:00:08Z</time>
      </trkpt>
      <trkpt lat="48.36885" lon="2.7826">
        <ele>106.59999847412</ele>
        <time>2021-11-18T15:00:13Z</time>
      </trkpt>
      <trkpt lat="48.36883" lon="2.78265">
        <ele>106.59999847412</ele>
        <time>2021-11-18T15:00:18Z</time>
      </trkpt>
      <trkpt lat="48.36882" lon="2.7827">
        <ele>106.59999847412</ele>
        <time>2021-11-18T15:00:23Z</time>
      </trkpt>
      <trkpt lat="48.36882" lon="2.78273">
        <ele>106.59999847412</ele>
        <time>2021-11-18T15:00:28Z</time>
      </trkpt>
      <trkpt lat="48.36884" lon="2.78277">
        <ele>106</ele>
        <time>2021-11-18T15:00:33Z</time>
      </trkpt>
      <trkpt lat="48.36884" lon="2.78285">
        <ele>105.40000152588</ele>
        <time>2021-11-18T15:00:38Z</time>
      </trkpt>
      <trkpt lat="48.36884" lon="2.78292">
        <ele>105.19999694824</ele>
        <time>2021-11-18T15:00:43Z</time>
      </trkpt>
      <trkpt lat="48.36882" lon="2.78301">
        <ele>105.40000152588</ele>
        <time>2021-11-18T15:00:48Z</time>
      </trkpt>
      <trkpt lat="48.36882" lon="2.78306">
        <ele>106</ele>
        <time>2021-11-18T15:00:53Z</time>
      </trkpt>
      <trkpt lat="48.36882" lon="2.78311">
        <ele>106.59999847412</ele>
        <time>2021-11-18T15:00:58Z</time>
      </trkpt>
      <trkpt lat="48.3688" lon="2.7832">
        <ele>106.59999847412</ele>
        <time>2021-11-18T15:01:03Z</time>
      </trkpt>
      <trkpt lat="48.3688" lon="2.78326">
        <ele>106.40000152588</ele>
        <time>2021-11-18T15:01:08Z</time>
      </trkpt>
      <trkpt lat="48.36878" lon="2.7833">
        <ele>106.59999847412</ele>
        <time>2021-11-18T15:01:13Z</time>
      </trkpt>
      <trkpt lat="48.36878" lon="2.78336">
        <ele>106.80000305176</ele>
        <time>2021-11-18T15:01:18Z</time>
      </trkpt>
      <trkpt lat="48.36878" lon="2.78341">
        <ele>106.80000305176</ele>
        <time>2021-11-18T15:01:23Z</time>
      </trkpt>
      <trkpt lat="48.36877" lon="2.78344">
        <ele>106.40000152588</ele>
        <time>2021-11-18T15:01:28Z</time>
      </trkpt>
      <trkpt lat="48.36876" lon="2.7835">
        <ele>106.40000152588</ele>
        <time>2021-11-18T15:01:33Z</time>
      </trkpt>
      <trkpt lat="48.36875" lon="2.78357">
        <ele>106.40000152588</ele>
        <time>2021-11-18T15:01:38Z</time>
      </trkpt>
      <trkpt lat="48.36875" lon="2.7836">
        <ele>106.40000152588</ele>
        <time>2021-11-18T15:01:43Z</time>
      </trkpt>
      <trkpt lat="48.36874" lon="2.78361">
        <ele>106.40000152588</ele>
        <time>2021-11-18T15:01:48Z</time>
      </trkpt>
      <trkpt lat="48.36873" lon="2.78365">
        <ele>106.40000152588</ele>
        <time>2021-11-18T15:01:53Z</time>
      </trkpt>
      <trkpt lat="48.36873" lon="2.78366">
        <ele>106</ele>
        <time>2021-11-18T15:01:58Z</time>
      </trkpt>
      <trkpt lat="48.36873" lon="2.78367">
        <ele>106.19999694824</ele>
        <time>2021-11-18T15:02:03Z</time>
      </trkpt>
      <trkpt lat="48.36873" lon="2.78371">
        <ele>106.40000152588</ele>
        <time>2021-11-18T15:02:08Z</time>
      </trkpt>
      <trkpt lat="48.36873" lon="2.78374">
        <ele>106.40000152588</ele>
        <time>2021-11-18T15:02:13Z</time>
      </trkpt>
      <trkpt lat="48.36874" lon="2.78386">
        <ele>106</ele>
        <time>2021-11-18T15:02:18Z</time>
      </trkpt>
      <trkpt lat="48.36871" lon="2.78397">
        <ele>105.80000305176</ele>
        <time>2021-11-18T15:02:23Z</time>
      </trkpt>
      <trkpt lat="48.36871" lon="2.78403">
        <ele>105.59999847412</ele>
        <time>2021-11-18T15:02:28Z</time>
      </trkpt>
      <trkpt lat="48.36871" lon="2.78409">
        <ele>105.40000152588</ele>
        <time>2021-11-18T15:02:33Z</time>
      </trkpt>
      <trkpt lat="48.36873" lon="2.78412">
        <ele>105</ele>
        <time>2021-11-18T15:02:38Z</time>
      </trkpt>
      <trkpt lat="48.36874" lon="2.78417">
        <ele>104.40000152588</ele>
        <time>2021-11-18T15:02:43Z</time>
      </trkpt>
      <trkpt lat="48.36877" lon="2.78422">
        <ele>103.59999847412</ele>
        <time>2021-11-18T15:02:48Z</time>
      </trkpt>
      <trkpt lat="48.36879" lon="2.78432">
        <ele>103.19999694824</ele>
        <time>2021-11-18T15:02:53Z</time>
      </trkpt>
      <trkpt lat="48.3688" lon="2.78439">
        <ele>103</ele>
        <time>2021-11-18T15:02:58Z</time>
      </trkpt>
      <trkpt lat="48.36883" lon="2.78445">
        <ele>102.59999847412</ele>
        <time>2021-11-18T15:03:03Z</time>
      </trkpt>
      <trkpt lat="48.36886" lon="2.78449">
        <ele>102.19999694824</ele>
        <time>2021-11-18T15:03:08Z</time>
      </trkpt>
      <trkpt lat="48.36888" lon="2.78454">
        <ele>102.19999694824</ele>
        <time>2021-11-18T15:03:13Z</time>
      </trkpt>
      <trkpt lat="48.36892" lon="2.78457">
        <ele>102.19999694824</ele>
        <time>2021-11-18T15:03:18Z</time>
      </trkpt>
      <trkpt lat="48.36896" lon="2.78463">
        <ele>102</ele>
        <time>2021-11-18T15:03:23Z</time>
      </trkpt>
      <trkpt lat="48.36898" lon="2.78469">
        <ele>101.80000305176</ele>
        <time>2021-11-18T15:03:28Z</time>
      </trkpt>
      <trkpt lat="48.369" lon="2.78474">
        <ele>101.40000152588</ele>
        <time>2021-11-18T15:03:33Z</time>
      </trkpt>
      <trkpt lat="48.36901" lon="2.7848">
        <ele>100.80000305176</ele>
        <time>2021-11-18T15:03:38Z</time>
      </trkpt>
      <trkpt lat="48.36902" lon="2.78487">
        <ele>100.40000152588</ele>
        <time>2021-11-18T15:03:43Z</time>
      </trkpt>
      <trkpt lat="48.36904" lon="2.78491">
        <ele>100</ele>
        <time>2021-11-18T15:03:48Z</time>
      </trkpt>
      <trkpt lat="48.36906" lon="2.78494">
        <ele>100</ele>
        <time>2021-11-18T15:03:53Z</time>
      </trkpt>
      <trkpt lat="48.36905" lon="2.78505">
        <ele>100</ele>
        <time>2021-11-18T15:03:58Z</time>
      </trkpt>
      <trkpt lat="48.36908" lon="2.78515">
        <ele>99.800003051758</ele>
        <time>2021-11-18T15:04:03Z</time>
      </trkpt>
      <trkpt lat="48.36908" lon="2.78522">
        <ele>99.599998474121</ele>
        <time>2021-11-18T15:04:08Z</time>
      </trkpt>
      <trkpt lat="48.36909" lon="2.78527">
        <ele>99</ele>
        <time>2021-11-18T15:04:13Z</time>
      </trkpt>
      <trkpt lat="48.36911" lon="2.78534">
        <ele>98.400001525879</ele>
        <time>2021-11-18T15:04:18Z</time>
      </trkpt>
      <trkpt lat="48.36913" lon="2.78542">
        <ele>97.599998474121</ele>
        <time>2021-11-18T15:04:23Z</time>
      </trkpt>
      <trkpt lat="48.36915" lon="2.78546">
        <ele>97</ele>
        <time>2021-11-18T15:04:28Z</time>
      </trkpt>
      <trkpt lat="48.36916" lon="2.78552">
        <ele>96.599998474121</ele>
        <time>2021-11-18T15:04:33Z</time>
      </trkpt>
      <trkpt lat="48.36918" lon="2.78555">
        <ele>96.199996948242</ele>
        <time>2021-11-18T15:04:38Z</time>
      </trkpt>
      <trkpt lat="48.3692" lon="2.78559">
        <ele>95.800003051758</ele>
        <time>2021-11-18T15:04:43Z</time>
      </trkpt>
      <trkpt lat="48.36923" lon="2.78562">
        <ele>95.400001525879</ele>
        <time>2021-11-18T15:04:48Z</time>
      </trkpt>
      <trkpt lat="48.36925" lon="2.78566">
        <ele>94.800003051758</ele>
        <time>2021-11-18T15:04:53Z</time>
      </trkpt>
      <trkpt lat="48.36928" lon="2.78568">
        <ele>94.400001525879</ele>
        <time>2021-11-18T15:04:58Z</time>
      </trkpt>
      <trkpt lat="48.3693" lon="2.78576">
        <ele>94</ele>
        <time>2021-11-18T15:05:03Z</time>
      </trkpt>
      <trkpt lat="48.36933" lon="2.7858">
        <ele>93.599998474121</ele>
        <time>2021-11-18T15:05:08Z</time>
      </trkpt>
      <trkpt lat="48.36934" lon="2.78584">
        <ele>93.199996948242</ele>
        <time>2021-11-18T15:05:13Z</time>
      </trkpt>
      <trkpt lat="48.36937" lon="2.78594">
        <ele>93</ele>
        <time>2021-11-18T15:05:18Z</time>
      </trkpt>
      <trkpt lat="48.36938" lon="2.78602">
        <ele>92.599998474121</ele>
        <time>2021-11-18T15:05:23Z</time>
      </trkpt>
      <trkpt lat="48.36939" lon="2.78604">
        <ele>92.199996948242</ele>
        <time>2021-11-18T15:05:28Z</time>
      </trkpt>
      <trkpt lat="48.36939" lon="2.78608">
        <ele>92.199996948242</ele>
        <time>2021-11-18T15:05:33Z</time>
      </trkpt>
      <trkpt lat="48.36939" lon="2.78609">
        <ele>92.199996948242</ele>
        <time>2021-11-18T15:05:38Z</time>
      </trkpt>
      <trkpt lat="48.36938" lon="2.78612">
        <ele>92.199996948242</ele>
        <time>2021-11-18T15:05:43Z</time>
      </trkpt>
      <trkpt lat="48.36937" lon="2.78613">
        <ele>92.199996948242</ele>
        <time>2021-11-18T15:05:48Z</time>
      </trkpt>
      <trkpt lat="48.36937" lon="2.78618">
        <ele>92.199996948242</ele>
        <time>2021-11-18T15:05:53Z</time>
      </trkpt>
      <trkpt lat="48.36937" lon="2.78621">
        <ele>92.199996948242</ele>
        <time>2021-11-18T15:05:58Z</time>
      </trkpt>
      <trkpt lat="48.36937" lon="2.78624">
        <ele>92.199996948242</ele>
        <time>2021-11-18T15:06:03Z</time>
      </trkpt>
      <trkpt lat="48.36936" lon="2.78626">
        <ele>92.400001525879</ele>
        <time>2021-11-18T15:06:08Z</time>
      </trkpt>
      <trkpt lat="48.36935" lon="2.78626">
        <ele>92.400001525879</ele>
        <time>2021-11-18T15:06:13Z</time>
      </trkpt>
      <trkpt lat="48.36935" lon="2.78626">
        <ele>92.400001525879</ele>
        <time>2021-11-18T15:06:18Z</time>
      </trkpt>
      <trkpt lat="48.36935" lon="2.78624">
        <ele>92.199996948242</ele>
        <time>2021-11-18T15:06:23Z</time>
      </trkpt>
      <trkpt lat="48.36935" lon="2.78623">
        <ele>92</ele>
        <time>2021-11-18T15:06:28Z</time>
      </trkpt>
      <trkpt lat="48.36935" lon="2.78623">
        <ele>92</ele>
        <time>2021-11-18T15:06:33Z</time>
      </trkpt>
      <trkpt lat="48.36935" lon="2.78623">
        <ele>92</ele>
        <time>2021-11-18T15:06:38Z</time>
      </trkpt>
      <trkpt lat="48.36935" lon="2.78621">
        <ele>92.199996948242</ele>
        <time>2021-11-18T15:06:43Z</time>
      </trkpt>
      <trkpt lat="48.36936" lon="2.7862">
        <ele>92.199996948242</ele>
        <time>2021-11-18T15:06:48Z</time>
      </trkpt>
      <trkpt lat="48.36937" lon="2.78618">
        <ele>92.199996948242</ele>
        <time>2021-11-18T15:06:53Z</time>
      </trkpt>
      <trkpt lat="48.36937" lon="2.78619">
        <ele>92.199996948242</ele>
        <time>2021-11-18T15:06:58Z</time>
      </trkpt>
      <trkpt lat="48.36938" lon="2.78619">
        <ele>92</ele>
        <time>2021-11-18T15:07:03Z</time>
      </trkpt>
      <trkpt lat="48.36938" lon="2.78619">
        <ele>92</ele>
        <time>2021-11-18T15:07:08Z</time>
      </trkpt>
      <trkpt lat="48.36939" lon="2.7862">
        <ele>92</ele>
        <time>2021-11-18T15:07:13Z</time>
      </trkpt>
      <trkpt lat="48.36939" lon="2.78622">
        <ele>92</ele>
        <time>2021-11-18T15:07:18Z</time>
      </trkpt>
      <trkpt lat="48.36939" lon="2.78622">
        <ele>92</ele>
        <time>2021-11-18T15:07:23Z</time>
      </trkpt>
      <trkpt lat="48.36938" lon="2.78623">
        <ele>92</ele>
        <time>2021-11-18T15:07:28Z</time>
      </trkpt>
      <trkpt lat="48.36937" lon="2.78623">
        <ele>92</ele>
        <time>2021-11-18T15:07:33Z</time>
      </trkpt>
      <trkpt lat="48.36937" lon="2.78624">
        <ele>92</ele>
        <time>2021-11-18T15:07:38Z</time>
      </trkpt>
      <trkpt lat="48.36935" lon="2.78625">
        <ele>92</ele>
        <time>2021-11-18T15:07:43Z</time>
      </trkpt>
      <trkpt lat="48.36934" lon="2.78625">
        <ele>92</ele>
        <time>2021-11-18T15:07:48Z</time>
      </trkpt>
      <trkpt lat="48.36935" lon="2.78624">
        <ele>92</ele>
        <time>2021-11-18T15:07:53Z</time>
      </trkpt>
      <trkpt lat="48.36934" lon="2.78624">
        <ele>92</ele>
        <time>2021-11-18T15:07:58Z</time>
      </trkpt>
      <trkpt lat="48.36934" lon="2.78626">
        <ele>92</ele>
        <time>2021-11-18T15:08:03Z</time>
      </trkpt>
      <trkpt lat="48.36934" lon="2.78627">
        <ele>92</ele>
        <time>2021-11-18T15:08:08Z</time>
      </trkpt>
      <trkpt lat="48.36935" lon="2.78629">
        <ele>92</ele>
        <time>2021-11-18T15:08:13Z</time>
      </trkpt>
      <trkpt lat="48.36935" lon="2.78632">
        <ele>92</ele>
        <time>2021-11-18T15:08:18Z</time>
      </trkpt>
      <trkpt lat="48.36935" lon="2.78636">
        <ele>92</ele>
        <time>2021-11-18T15:08:23Z</time>
      </trkpt>
      <trkpt lat="48.36936" lon="2.78644">
        <ele>92</ele>
        <time>2021-11-18T15:08:28Z</time>
      </trkpt>
      <trkpt lat="48.36937" lon="2.78651">
        <ele>92</ele>
        <time>2021-11-18T15:08:33Z</time>
      </trkpt>
      <trkpt lat="48.36938" lon="2.78655">
        <ele>92</ele>
        <time>2021-11-18T15:08:38Z</time>
      </trkpt>
      <trkpt lat="48.36939" lon="2.78661">
        <ele>92</ele>
        <time>2021-11-18T15:08:43Z</time>
      </trkpt>
      <trkpt lat="48.36941" lon="2.78665">
        <ele>92</ele>
        <time>2021-11-18T15:08:48Z</time>
      </trkpt>
      <trkpt lat="48.36943" lon="2.78667">
        <ele>92</ele>
        <time>2021-11-18T15:08:53Z</time>
      </trkpt>
      <trkpt lat="48.36946" lon="2.78671">
        <ele>92</ele>
        <time>2021-11-18T15:08:58Z</time>
      </trkpt>
      <trkpt lat="48.3695" lon="2.78675">
        <ele>92</ele>
        <time>2021-11-18T15:09:03Z</time>
      </trkpt>
      <trkpt lat="48.36953" lon="2.7868">
        <ele>92</ele>
        <time>2021-11-18T15:09:08Z</time>
      </trkpt>
      <trkpt lat="48.36956" lon="2.78686">
        <ele>91.400001525879</ele>
        <time>2021-11-18T15:09:13Z</time>
      </trkpt>
      <trkpt lat="48.36959" lon="2.78693">
        <ele>90.400001525879</ele>
        <time>2021-11-18T15:09:18Z</time>
      </trkpt>
      <trkpt lat="48.36961" lon="2.78699">
        <ele>90.199996948242</ele>
        <time>2021-11-18T15:09:23Z</time>
      </trkpt>
      <trkpt lat="48.36965" lon="2.78702">
        <ele>90.199996948242</ele>
        <time>2021-11-18T15:09:28Z</time>
      </trkpt>
      <trkpt lat="48.36967" lon="2.78709">
        <ele>90.199996948242</ele>
        <time>2021-11-18T15:09:33Z</time>
      </trkpt>
      <trkpt lat="48.36972" lon="2.78715">
        <ele>90.199996948242</ele>
        <time>2021-11-18T15:09:38Z</time>
      </trkpt>
      <trkpt lat="48.36974" lon="2.7872">
        <ele>90.400001525879</ele>
        <time>2021-11-18T15:09:43Z</time>
      </trkpt>
      <trkpt lat="48.36977" lon="2.78727">
        <ele>90.599998474121</ele>
        <time>2021-11-18T15:09:48Z</time>
      </trkpt>
      <trkpt lat="48.36979" lon="2.78731">
        <ele>90.800003051758</ele>
        <time>2021-11-18T15:09:53Z</time>
      </trkpt>
      <trkpt lat="48.36982" lon="2.78734">
        <ele>91</ele>
        <time>2021-11-18T15:09:58Z</time>
      </trkpt>
      <trkpt lat="48.36987" lon="2.7874">
        <ele>91</ele>
        <time>2021-11-18T15:10:03Z</time>
      </trkpt>
      <trkpt lat="48.36991" lon="2.78746">
        <ele>91</ele>
        <time>2021-11-18T15:10:08Z</time>
      </trkpt>
      <trkpt lat="48.36993" lon="2.7875">
        <ele>91</ele>
        <time>2021-11-18T15:10:13Z</time>
      </trkpt>
      <trkpt lat="48.36998" lon="2.78756">
        <ele>91</ele>
        <time>2021-11-18T15:10:18Z</time>
      </trkpt>
      <trkpt lat="48.37002" lon="2.7876">
        <ele>91</ele>
        <time>2021-11-18T15:10:23Z</time>
      </trkpt>
      <trkpt lat="48.37007" lon="2.78764">
        <ele>90.800003051758</ele>
        <time>2021-11-18T15:10:28Z</time>
      </trkpt>
      <trkpt lat="48.3701" lon="2.78768">
        <ele>90.599998474121</ele>
        <time>2021-11-18T15:10:33Z</time>
      </trkpt>
      <trkpt lat="48.37014" lon="2.78772">
        <ele>90.599998474121</ele>
        <time>2021-11-18T15:10:38Z</time>
      </trkpt>
      <trkpt lat="48.37016" lon="2.78774">
        <ele>90.599998474121</ele>
        <time>2021-11-18T15:10:43Z</time>
      </trkpt>
      <trkpt lat="48.37018" lon="2.78776">
        <ele>90.599998474121</ele>
        <time>2021-11-18T15:10:48Z</time>
      </trkpt>
      <trkpt lat="48.3702" lon="2.78781">
        <ele>90.599998474121</ele>
        <time>2021-11-18T15:10:53Z</time>
      </trkpt>
      <trkpt lat="48.37029" lon="2.78787">
        <ele>90.599998474121</ele>
        <time>2021-11-18T15:10:58Z</time>
      </trkpt>
      <trkpt lat="48.37033" lon="2.78794">
        <ele>90.599998474121</ele>
        <time>2021-11-18T15:11:03Z</time>
      </trkpt>
      <trkpt lat="48.37039" lon="2.78797">
        <ele>90.599998474121</ele>
        <time>2021-11-18T15:11:08Z</time>
      </trkpt>
      <trkpt lat="48.37044" lon="2.788">
        <ele>90.599998474121</ele>
        <time>2021-11-18T15:11:13Z</time>
      </trkpt>
      <trkpt lat="48.37049" lon="2.78803">
        <ele>90.599998474121</ele>
        <time>2021-11-18T15:11:18Z</time>
      </trkpt>
      <trkpt lat="48.37054" lon="2.78805">
        <ele>90.599998474121</ele>
        <time>2021-11-18T15:11:23Z</time>
      </trkpt>
      <trkpt lat="48.37058" lon="2.78808">
        <ele>90.599998474121</ele>
        <time>2021-11-18T15:11:28Z</time>
      </trkpt>
      <trkpt lat="48.37063" lon="2.78808">
        <ele>91.599998474121</ele>
        <time>2021-11-18T15:11:33Z</time>
      </trkpt>
      <trkpt lat="48.37066" lon="2.78811">
        <ele>92.199996948242</ele>
        <time>2021-11-18T15:11:38Z</time>
      </trkpt>
      <trkpt lat="48.3707" lon="2.78816">
        <ele>92.400001525879</ele>
        <time>2021-11-18T15:11:43Z</time>
      </trkpt>
      <trkpt lat="48.37073" lon="2.78819">
        <ele>92.599998474121</ele>
        <time>2021-11-18T15:11:48Z</time>
      </trkpt>
      <trkpt lat="48.37077" lon="2.78823">
        <ele>92.800003051758</ele>
        <time>2021-11-18T15:11:53Z</time>
      </trkpt>
      <trkpt lat="48.37081" lon="2.78827">
        <ele>93</ele>
        <time>2021-11-18T15:11:58Z</time>
      </trkpt>
      <trkpt lat="48.37085" lon="2.78832">
        <ele>93.199996948242</ele>
        <time>2021-11-18T15:12:03Z</time>
      </trkpt>
      <trkpt lat="48.37089" lon="2.78839">
        <ele>93.400001525879</ele>
        <time>2021-11-18T15:12:08Z</time>
      </trkpt>
      <trkpt lat="48.37093" lon="2.78845">
        <ele>93.800003051758</ele>
        <time>2021-11-18T15:12:13Z</time>
      </trkpt>
      <trkpt lat="48.37099" lon="2.78849">
        <ele>94</ele>
        <time>2021-11-18T15:12:18Z</time>
      </trkpt>
      <trkpt lat="48.37104" lon="2.78848">
        <ele>94.199996948242</ele>
        <time>2021-11-18T15:12:23Z</time>
      </trkpt>
      <trkpt lat="48.37108" lon="2.78846">
        <ele>94.199996948242</ele>
        <time>2021-11-18T15:12:28Z</time>
      </trkpt>
      <trkpt lat="48.37112" lon="2.78844">
        <ele>94.199996948242</ele>
        <time>2021-11-18T15:12:33Z</time>
      </trkpt>
      <trkpt lat="48.37118" lon="2.7884">
        <ele>94</ele>
        <time>2021-11-18T15:12:38Z</time>
      </trkpt>
      <trkpt lat="48.37123" lon="2.78837">
        <ele>93.800003051758</ele>
        <time>2021-11-18T15:12:43Z</time>
      </trkpt>
      <trkpt lat="48.37127" lon="2.78834">
        <ele>93.400001525879</ele>
        <time>2021-11-18T15:12:48Z</time>
      </trkpt>
      <trkpt lat="48.3713" lon="2.78831">
        <ele>93.199996948242</ele>
        <time>2021-11-18T15:12:53Z</time>
      </trkpt>
      <trkpt lat="48.37134" lon="2.78828">
        <ele>93</ele>
        <time>2021-11-18T15:12:58Z</time>
      </trkpt>
      <trkpt lat="48.37139" lon="2.78824">
        <ele>92.800003051758</ele>
        <time>2021-11-18T15:13:03Z</time>
      </trkpt>
      <trkpt lat="48.37143" lon="2.78819">
        <ele>92.599998474121</ele>
        <time>2021-11-18T15:13:08Z</time>
      </trkpt>
      <trkpt lat="48.37148" lon="2.78814">
        <ele>92.400001525879</ele>
        <time>2021-11-18T15:13:13Z</time>
      </trkpt>
      <trkpt lat="48.37152" lon="2.7881">
        <ele>92.199996948242</ele>
        <time>2021-11-18T15:13:18Z</time>
      </trkpt>
      <trkpt lat="48.37152" lon="2.78809">
        <ele>92</ele>
        <time>2021-11-18T15:13:23Z</time>
      </trkpt>
      <trkpt lat="48.37153" lon="2.78807">
        <ele>91.800003051758</ele>
        <time>2021-11-18T15:13:28Z</time>
      </trkpt>
      <trkpt lat="48.37155" lon="2.78804">
        <ele>91.599998474121</ele>
        <time>2021-11-18T15:13:33Z</time>
      </trkpt>
      <trkpt lat="48.37157" lon="2.78803">
        <ele>91.599998474121</ele>
        <time>2021-11-18T15:13:38Z</time>
      </trkpt>
      <trkpt lat="48.37159" lon="2.78801">
        <ele>91.599998474121</ele>
        <time>2021-11-18T15:13:43Z</time>
      </trkpt>
      <trkpt lat="48.37165" lon="2.78796">
        <ele>91.599998474121</ele>
        <time>2021-11-18T15:13:48Z</time>
      </trkpt>
      <trkpt lat="48.37175" lon="2.78785">
        <ele>91.599998474121</ele>
        <time>2021-11-18T15:13:53Z</time>
      </trkpt>
      <trkpt lat="48.37177" lon="2.78782">
        <ele>91.800003051758</ele>
        <time>2021-11-18T15:13:58Z</time>
      </trkpt>
      <trkpt lat="48.3718" lon="2.7878">
        <ele>91.800003051758</ele>
        <time>2021-11-18T15:14:03Z</time>
      </trkpt>
      <trkpt lat="48.37183" lon="2.78776">
        <ele>92</ele>
        <time>2021-11-18T15:14:08Z</time>
      </trkpt>
      <trkpt lat="48.37186" lon="2.78774">
        <ele>92</ele>
        <time>2021-11-18T15:14:13Z</time>
      </trkpt>
      <trkpt lat="48.37189" lon="2.78771">
        <ele>92</ele>
        <time>2021-11-18T15:14:18Z</time>
      </trkpt>
      <trkpt lat="48.37196" lon="2.78766">
        <ele>92.199996948242</ele>
        <time>2021-11-18T15:14:23Z</time>
      </trkpt>
      <trkpt lat="48.37199" lon="2.78763">
        <ele>92.199996948242</ele>
        <time>2021-11-18T15:14:28Z</time>
      </trkpt>
      <trkpt lat="48.37202" lon="2.78759">
        <ele>92.199996948242</ele>
        <time>2021-11-18T15:14:33Z</time>
      </trkpt>
      <trkpt lat="48.37213" lon="2.78748">
        <ele>92.199996948242</ele>
        <time>2021-11-18T15:14:38Z</time>
      </trkpt>
      <trkpt lat="48.3722" lon="2.78742">
        <ele>92.199996948242</ele>
        <time>2021-11-18T15:14:43Z</time>
      </trkpt>
      <trkpt lat="48.37225" lon="2.78736">
        <ele>92.199996948242</ele>
        <time>2021-11-18T15:14:48Z</time>
      </trkpt>
      <trkpt lat="48.37232" lon="2.7873">
        <ele>92.199996948242</ele>
        <time>2021-11-18T15:14:53Z</time>
      </trkpt>
      <trkpt lat="48.37235" lon="2.78727">
        <ele>92.199996948242</ele>
        <time>2021-11-18T15:14:58Z</time>
      </trkpt>
      <trkpt lat="48.3724" lon="2.78724">
        <ele>92.199996948242</ele>
        <time>2021-11-18T15:15:03Z</time>
      </trkpt>
      <trkpt lat="48.37245" lon="2.78719">
        <ele>92.199996948242</ele>
        <time>2021-11-18T15:15:08Z</time>
      </trkpt>
      <trkpt lat="48.37253" lon="2.78714">
        <ele>92.199996948242</ele>
        <time>2021-11-18T15:15:13Z</time>
      </trkpt>
      <trkpt lat="48.37258" lon="2.78709">
        <ele>92.199996948242</ele>
        <time>2021-11-18T15:15:18Z</time>
      </trkpt>
      <trkpt lat="48.37261" lon="2.78706">
        <ele>92.199996948242</ele>
        <time>2021-11-18T15:15:23Z</time>
      </trkpt>
      <trkpt lat="48.37261" lon="2.78704">
        <ele>92.199996948242</ele>
        <time>2021-11-18T15:15:28Z</time>
      </trkpt>
      <trkpt lat="48.37263" lon="2.78701">
        <ele>92.199996948242</ele>
        <time>2021-11-18T15:15:33Z</time>
      </trkpt>
      <trkpt lat="48.37265" lon="2.78699">
        <ele>92.199996948242</ele>
        <time>2021-11-18T15:15:38Z</time>
      </trkpt>
      <trkpt lat="48.37275" lon="2.78692">
        <ele>92.199996948242</ele>
        <time>2021-11-18T15:15:43Z</time>
      </trkpt>
      <trkpt lat="48.37276" lon="2.7869">
        <ele>92.199996948242</ele>
        <time>2021-11-18T15:15:48Z</time>
      </trkpt>
      <trkpt lat="48.37283" lon="2.78681">
        <ele>92.199996948242</ele>
        <time>2021-11-18T15:15:53Z</time>
      </trkpt>
      <trkpt lat="48.37293" lon="2.78674">
        <ele>92.199996948242</ele>
        <time>2021-11-18T15:15:58Z</time>
      </trkpt>
      <trkpt lat="48.37297" lon="2.78671">
        <ele>92.199996948242</ele>
        <time>2021-11-18T15:16:03Z</time>
      </trkpt>
      <trkpt lat="48.373" lon="2.78668">
        <ele>92.199996948242</ele>
        <time>2021-11-18T15:16:08Z</time>
      </trkpt>
      <trkpt lat="48.37304" lon="2.78663">
        <ele>92.199996948242</ele>
        <time>2021-11-18T15:16:13Z</time>
      </trkpt>
      <trkpt lat="48.3731" lon="2.78662">
        <ele>92.199996948242</ele>
        <time>2021-11-18T15:16:18Z</time>
      </trkpt>
      <trkpt lat="48.37313" lon="2.78665">
        <ele>92.199996948242</ele>
        <time>2021-11-18T15:16:23Z</time>
      </trkpt>
      <trkpt lat="48.37316" lon="2.78667">
        <ele>92.400001525879</ele>
        <time>2021-11-18T15:16:28Z</time>
      </trkpt>
      <trkpt lat="48.37319" lon="2.78673">
        <ele>92.400001525879</ele>
        <time>2021-11-18T15:16:33Z</time>
      </trkpt>
      <trkpt lat="48.37322" lon="2.7868">
        <ele>92.599998474121</ele>
        <time>2021-11-18T15:16:38Z</time>
      </trkpt>
      <trkpt lat="48.37325" lon="2.78686">
        <ele>92.599998474121</ele>
        <time>2021-11-18T15:16:43Z</time>
      </trkpt>
      <trkpt lat="48.37327" lon="2.78693">
        <ele>92.400001525879</ele>
        <time>2021-11-18T15:16:48Z</time>
      </trkpt>
      <trkpt lat="48.37329" lon="2.78699">
        <ele>92.599998474121</ele>
        <time>2021-11-18T15:16:53Z</time>
      </trkpt>
      <trkpt lat="48.37332" lon="2.78704">
        <ele>92.599998474121</ele>
        <time>2021-11-18T15:16:58Z</time>
      </trkpt>
      <trkpt lat="48.37333" lon="2.78712">
        <ele>92.599998474121</ele>
        <time>2021-11-18T15:17:03Z</time>
      </trkpt>
      <trkpt lat="48.37334" lon="2.78718">
        <ele>92.599998474121</ele>
        <time>2021-11-18T15:17:08Z</time>
      </trkpt>
      <trkpt lat="48.37337" lon="2.78722">
        <ele>92.800003051758</ele>
        <time>2021-11-18T15:17:13Z</time>
      </trkpt>
      <trkpt lat="48.37339" lon="2.78729">
        <ele>92.800003051758</ele>
        <time>2021-11-18T15:17:18Z</time>
      </trkpt>
      <trkpt lat="48.3734" lon="2.78737">
        <ele>92.800003051758</ele>
        <time>2021-11-18T15:17:23Z</time>
      </trkpt>
      <trkpt lat="48.37341" lon="2.78742">
        <ele>92.800003051758</ele>
        <time>2021-11-18T15:17:28Z</time>
      </trkpt>
      <trkpt lat="48.37341" lon="2.78744">
        <ele>92.800003051758</ele>
        <time>2021-11-18T15:17:33Z</time>
      </trkpt>
      <trkpt lat="48.3734" lon="2.78745">
        <ele>92.199996948242</ele>
        <time>2021-11-18T15:17:38Z</time>
      </trkpt>
      <trkpt lat="48.37339" lon="2.78748">
        <ele>91.599998474121</ele>
        <time>2021-11-18T15:17:43Z</time>
      </trkpt>
      <trkpt lat="48.37338" lon="2.7875">
        <ele>90.800003051758</ele>
        <time>2021-11-18T15:17:48Z</time>
      </trkpt>
      <trkpt lat="48.37334" lon="2.78752">
        <ele>90.199996948242</ele>
        <time>2021-11-18T15:17:53Z</time>
      </trkpt>
      <trkpt lat="48.3733" lon="2.78758">
        <ele>90</ele>
        <time>2021-11-18T15:17:58Z</time>
      </trkpt>
      <trkpt lat="48.3733" lon="2.78764">
        <ele>89.800003051758</ele>
        <time>2021-11-18T15:18:02Z</time>
      </trkpt>
      <trkpt lat="48.37329" lon="2.78773">
        <ele>90</ele>
        <time>2021-11-18T15:18:08Z</time>
      </trkpt>
      <trkpt lat="48.37335" lon="2.78783">
        <ele>89.800003051758</ele>
        <time>2021-11-18T15:18:13Z</time>
      </trkpt>
      <trkpt lat="48.37344" lon="2.78785">
        <ele>90.599998474121</ele>
        <time>2021-11-18T15:18:18Z</time>
      </trkpt>
      <trkpt lat="48.37349" lon="2.78789">
        <ele>91.599998474121</ele>
        <time>2021-11-18T15:18:23Z</time>
      </trkpt>
      <trkpt lat="48.37353" lon="2.78789">
        <ele>92.199996948242</ele>
        <time>2021-11-18T15:18:28Z</time>
      </trkpt>
      <trkpt lat="48.37357" lon="2.78786">
        <ele>92.800003051758</ele>
        <time>2021-11-18T15:18:33Z</time>
      </trkpt>
      <trkpt lat="48.3736" lon="2.78786">
        <ele>93</ele>
        <time>2021-11-18T15:18:38Z</time>
      </trkpt>
      <trkpt lat="48.37364" lon="2.78789">
        <ele>93</ele>
        <time>2021-11-18T15:18:43Z</time>
      </trkpt>
      <trkpt lat="48.37367" lon="2.78794">
        <ele>93</ele>
        <time>2021-11-18T15:18:48Z</time>
      </trkpt>
      <trkpt lat="48.3737" lon="2.78798">
        <ele>93</ele>
        <time>2021-11-18T15:18:53Z</time>
      </trkpt>
      <trkpt lat="48.37373" lon="2.78807">
        <ele>92.800003051758</ele>
        <time>2021-11-18T15:18:58Z</time>
      </trkpt>
      <trkpt lat="48.37378" lon="2.78817">
        <ele>92.800003051758</ele>
        <time>2021-11-18T15:19:03Z</time>
      </trkpt>
      <trkpt lat="48.37382" lon="2.78825">
        <ele>92.800003051758</ele>
        <time>2021-11-18T15:19:08Z</time>
      </trkpt>
      <trkpt lat="48.37385" lon="2.78831">
        <ele>92.599998474121</ele>
        <time>2021-11-18T15:19:13Z</time>
      </trkpt>
      <trkpt lat="48.37387" lon="2.78838">
        <ele>92.400001525879</ele>
        <time>2021-11-18T15:19:18Z</time>
      </trkpt>
      <trkpt lat="48.37388" lon="2.78844">
        <ele>92.400001525879</ele>
        <time>2021-11-18T15:19:23Z</time>
      </trkpt>
      <trkpt lat="48.37391" lon="2.78848">
        <ele>92.400001525879</ele>
        <time>2021-11-18T15:19:28Z</time>
      </trkpt>
      <trkpt lat="48.37395" lon="2.78852">
        <ele>92.199996948242</ele>
        <time>2021-11-18T15:19:33Z</time>
      </trkpt>
      <trkpt lat="48.37398" lon="2.78857">
        <ele>92.199996948242</ele>
        <time>2021-11-18T15:19:38Z</time>
      </trkpt>
      <trkpt lat="48.37403" lon="2.78862">
        <ele>92</ele>
        <time>2021-11-18T15:19:43Z</time>
      </trkpt>
      <trkpt lat="48.37406" lon="2.78869">
        <ele>92</ele>
        <time>2021-11-18T15:19:48Z</time>
      </trkpt>
      <trkpt lat="48.37414" lon="2.78874">
        <ele>92</ele>
        <time>2021-11-18T15:19:53Z</time>
      </trkpt>
      <trkpt lat="48.3742" lon="2.78885">
        <ele>91.800003051758</ele>
        <time>2021-11-18T15:19:58Z</time>
      </trkpt>
      <trkpt lat="48.37425" lon="2.78891">
        <ele>91.599998474121</ele>
        <time>2021-11-18T15:20:03Z</time>
      </trkpt>
      <trkpt lat="48.3743" lon="2.78895">
        <ele>91.599998474121</ele>
        <time>2021-11-18T15:20:08Z</time>
      </trkpt>
      <trkpt lat="48.37432" lon="2.78899">
        <ele>91.599998474121</ele>
        <time>2021-11-18T15:20:13Z</time>
      </trkpt>
      <trkpt lat="48.37433" lon="2.78905">
        <ele>91.599998474121</ele>
        <time>2021-11-18T15:20:18Z</time>
      </trkpt>
      <trkpt lat="48.37434" lon="2.78911">
        <ele>91.400001525879</ele>
        <time>2021-11-18T15:20:23Z</time>
      </trkpt>
      <trkpt lat="48.37437" lon="2.78915">
        <ele>91.199996948242</ele>
        <time>2021-11-18T15:20:28Z</time>
      </trkpt>
      <trkpt lat="48.37439" lon="2.78922">
        <ele>91.199996948242</ele>
        <time>2021-11-18T15:20:33Z</time>
      </trkpt>
      <trkpt lat="48.37441" lon="2.78927">
        <ele>91.199996948242</ele>
        <time>2021-11-18T15:20:38Z</time>
      </trkpt>
      <trkpt lat="48.37445" lon="2.78933">
        <ele>91</ele>
        <time>2021-11-18T15:20:43Z</time>
      </trkpt>
      <trkpt lat="48.37446" lon="2.78942">
        <ele>91</ele>
        <time>2021-11-18T15:20:48Z</time>
      </trkpt>
      <trkpt lat="48.37445" lon="2.78952">
        <ele>91</ele>
        <time>2021-11-18T15:20:53Z</time>
      </trkpt>
      <trkpt lat="48.37444" lon="2.78959">
        <ele>91</ele>
        <time>2021-11-18T15:20:58Z</time>
      </trkpt>
      <trkpt lat="48.37442" lon="2.78967">
        <ele>91</ele>
        <time>2021-11-18T15:21:03Z</time>
      </trkpt>
      <trkpt lat="48.37439" lon="2.78975">
        <ele>91.199996948242</ele>
        <time>2021-11-18T15:21:08Z</time>
      </trkpt>
      <trkpt lat="48.37436" lon="2.78984">
        <ele>91.199996948242</ele>
        <time>2021-11-18T15:21:13Z</time>
      </trkpt>
      <trkpt lat="48.37434" lon="2.78992">
        <ele>91.400001525879</ele>
        <time>2021-11-18T15:21:18Z</time>
      </trkpt>
      <trkpt lat="48.37433" lon="2.79">
        <ele>91.400001525879</ele>
        <time>2021-11-18T15:21:23Z</time>
      </trkpt>
      <trkpt lat="48.37429" lon="2.79005">
        <ele>91.599998474121</ele>
        <time>2021-11-18T15:21:28Z</time>
      </trkpt>
      <trkpt lat="48.37426" lon="2.79011">
        <ele>91.599998474121</ele>
        <time>2021-11-18T15:21:33Z</time>
      </trkpt>
      <trkpt lat="48.37423" lon="2.79016">
        <ele>91.599998474121</ele>
        <time>2021-11-18T15:21:38Z</time>
      </trkpt>
      <trkpt lat="48.3742" lon="2.79024">
        <ele>91.599998474121</ele>
        <time>2021-11-18T15:21:43Z</time>
      </trkpt>
      <trkpt lat="48.37418" lon="2.79031">
        <ele>91.800003051758</ele>
        <time>2021-11-18T15:21:48Z</time>
      </trkpt>
      <trkpt lat="48.37415" lon="2.7904">
        <ele>91.800003051758</ele>
        <time>2021-11-18T15:21:53Z</time>
      </trkpt>
      <trkpt lat="48.37412" lon="2.79049">
        <ele>91.599998474121</ele>
        <time>2021-11-18T15:21:58Z</time>
      </trkpt>
      <trkpt lat="48.3741" lon="2.79058">
        <ele>91.599998474121</ele>
        <time>2021-11-18T15:22:03Z</time>
      </trkpt>
      <trkpt lat="48.37407" lon="2.79066">
        <ele>91.400001525879</ele>
        <time>2021-11-18T15:22:08Z</time>
      </trkpt>
      <trkpt lat="48.37404" lon="2.79074">
        <ele>91.599998474121</ele>
        <time>2021-11-18T15:22:13Z</time>
      </trkpt>
      <trkpt lat="48.37401" lon="2.7908">
        <ele>91.599998474121</ele>
        <time>2021-11-18T15:22:18Z</time>
      </trkpt>
      <trkpt lat="48.37398" lon="2.79087">
        <ele>91.599998474121</ele>
        <time>2021-11-18T15:22:23Z</time>
      </trkpt>
      <trkpt lat="48.37394" lon="2.79092">
        <ele>91.599998474121</ele>
        <time>2021-11-18T15:22:28Z</time>
      </trkpt>
      <trkpt lat="48.37392" lon="2.79099">
        <ele>91.400001525879</ele>
        <time>2021-11-18T15:22:33Z</time>
      </trkpt>
      <trkpt lat="48.37391" lon="2.79105">
        <ele>91.400001525879</ele>
        <time>2021-11-18T15:22:38Z</time>
      </trkpt>
      <trkpt lat="48.37389" lon="2.79111">
        <ele>91.400001525879</ele>
        <time>2021-11-18T15:22:43Z</time>
      </trkpt>
      <trkpt lat="48.37386" lon="2.79117">
        <ele>91.400001525879</ele>
        <time>2021-11-18T15:22:48Z</time>
      </trkpt>
      <trkpt lat="48.37384" lon="2.79124">
        <ele>91.400001525879</ele>
        <time>2021-11-18T15:22:53Z</time>
      </trkpt>
      <trkpt lat="48.37381" lon="2.79132">
        <ele>91.400001525879</ele>
        <time>2021-11-18T15:22:58Z</time>
      </trkpt>
      <trkpt lat="48.37378" lon="2.79141">
        <ele>91.400001525879</ele>
        <time>2021-11-18T15:23:03Z</time>
      </trkpt>
      <trkpt lat="48.37375" lon="2.79148">
        <ele>91.400001525879</ele>
        <time>2021-11-18T15:23:08Z</time>
      </trkpt>
      <trkpt lat="48.37373" lon="2.79156">
        <ele>91.400001525879</ele>
        <time>2021-11-18T15:23:13Z</time>
      </trkpt>
      <trkpt lat="48.37369" lon="2.79164">
        <ele>91.199996948242</ele>
        <time>2021-11-18T15:23:18Z</time>
      </trkpt>
      <trkpt lat="48.37365" lon="2.79171">
        <ele>91.199996948242</ele>
        <time>2021-11-18T15:23:23Z</time>
      </trkpt>
      <trkpt lat="48.37361" lon="2.79179">
        <ele>91.199996948242</ele>
        <time>2021-11-18T15:23:28Z</time>
      </trkpt>
      <trkpt lat="48.37356" lon="2.79185">
        <ele>91.400001525879</ele>
        <time>2021-11-18T15:23:33Z</time>
      </trkpt>
      <trkpt lat="48.37353" lon="2.79191">
        <ele>91.400001525879</ele>
        <time>2021-11-18T15:23:38Z</time>
      </trkpt>
      <trkpt lat="48.3735" lon="2.79196">
        <ele>91.599998474121</ele>
        <time>2021-11-18T15:23:43Z</time>
      </trkpt>
      <trkpt lat="48.37345" lon="2.79201">
        <ele>91.599998474121</ele>
        <time>2021-11-18T15:23:48Z</time>
      </trkpt>
      <trkpt lat="48.37341" lon="2.79206">
        <ele>91.599998474121</ele>
        <time>2021-11-18T15:23:53Z</time>
      </trkpt>
      <trkpt lat="48.37338" lon="2.79211">
        <ele>91.800003051758</ele>
        <time>2021-11-18T15:23:58Z</time>
      </trkpt>
      <trkpt lat="48.37335" lon="2.79216">
        <ele>91.800003051758</ele>
        <time>2021-11-18T15:24:03Z</time>
      </trkpt>
      <trkpt lat="48.37331" lon="2.79221">
        <ele>91.800003051758</ele>
        <time>2021-11-18T15:24:08Z</time>
      </trkpt>
      <trkpt lat="48.37328" lon="2.79227">
        <ele>91.800003051758</ele>
        <time>2021-11-18T15:24:13Z</time>
      </trkpt>
      <trkpt lat="48.37324" lon="2.79232">
        <ele>91.800003051758</ele>
        <time>2021-11-18T15:24:18Z</time>
      </trkpt>
      <trkpt lat="48.37322" lon="2.79238">
        <ele>91.800003051758</ele>
        <time>2021-11-18T15:24:23Z</time>
      </trkpt>
      <trkpt lat="48.37318" lon="2.79243">
        <ele>91.800003051758</ele>
        <time>2021-11-18T15:24:28Z</time>
      </trkpt>
      <trkpt lat="48.37314" lon="2.79248">
        <ele>91.800003051758</ele>
        <time>2021-11-18T15:24:33Z</time>
      </trkpt>
      <trkpt lat="48.37311" lon="2.79251">
        <ele>91.800003051758</ele>
        <time>2021-11-18T15:24:38Z</time>
      </trkpt>
      <trkpt lat="48.37308" lon="2.79255">
        <ele>91.800003051758</ele>
        <time>2021-11-18T15:24:43Z</time>
      </trkpt>
      <trkpt lat="48.37304" lon="2.79261">
        <ele>91.800003051758</ele>
        <time>2021-11-18T15:24:48Z</time>
      </trkpt>
      <trkpt lat="48.37301" lon="2.79268">
        <ele>91.599998474121</ele>
        <time>2021-11-18T15:24:53Z</time>
      </trkpt>
      <trkpt lat="48.37296" lon="2.79273">
        <ele>91.599998474121</ele>
        <time>2021-11-18T15:24:58Z</time>
      </trkpt>
      <trkpt lat="48.37292" lon="2.79278">
        <ele>91.599998474121</ele>
        <time>2021-11-18T15:25:03Z</time>
      </trkpt>
      <trkpt lat="48.37288" lon="2.79284">
        <ele>91.599998474121</ele>
        <time>2021-11-18T15:25:08Z</time>
      </trkpt>
      <trkpt lat="48.37284" lon="2.79289">
        <ele>91.599998474121</ele>
        <time>2021-11-18T15:25:13Z</time>
      </trkpt>
      <trkpt lat="48.3728" lon="2.79294">
        <ele>91.800003051758</ele>
        <time>2021-11-18T15:25:18Z</time>
      </trkpt>
      <trkpt lat="48.37277" lon="2.79299">
        <ele>91.800003051758</ele>
        <time>2021-11-18T15:25:23Z</time>
      </trkpt>
      <trkpt lat="48.37273" lon="2.79305">
        <ele>91.800003051758</ele>
        <time>2021-11-18T15:25:28Z</time>
      </trkpt>
      <trkpt lat="48.37268" lon="2.7931">
        <ele>91.599998474121</ele>
        <time>2021-11-18T15:25:33Z</time>
      </trkpt>
      <trkpt lat="48.37264" lon="2.79315">
        <ele>91.599998474121</ele>
        <time>2021-11-18T15:25:38Z</time>
      </trkpt>
      <trkpt lat="48.3726" lon="2.79319">
        <ele>91.599998474121</ele>
        <time>2021-11-18T15:25:43Z</time>
      </trkpt>
      <trkpt lat="48.37257" lon="2.79323">
        <ele>91.599998474121</ele>
        <time>2021-11-18T15:25:48Z</time>
      </trkpt>
      <trkpt lat="48.37253" lon="2.79329">
        <ele>91.599998474121</ele>
        <time>2021-11-18T15:25:53Z</time>
      </trkpt>
      <trkpt lat="48.3725" lon="2.79335">
        <ele>91.400001525879</ele>
        <time>2021-11-18T15:25:58Z</time>
      </trkpt>
      <trkpt lat="48.37246" lon="2.7934">
        <ele>91.400001525879</ele>
        <time>2021-11-18T15:26:03Z</time>
      </trkpt>
      <trkpt lat="48.37242" lon="2.79345">
        <ele>91.599998474121</ele>
        <time>2021-11-18T15:26:08Z</time>
      </trkpt>
      <trkpt lat="48.37239" lon="2.79351">
        <ele>91.400001525879</ele>
        <time>2021-11-18T15:26:13Z</time>
      </trkpt>
      <trkpt lat="48.37235" lon="2.79356">
        <ele>91.199996948242</ele>
        <time>2021-11-18T15:26:18Z</time>
      </trkpt>
      <trkpt lat="48.37232" lon="2.79361">
        <ele>91</ele>
        <time>2021-11-18T15:26:23Z</time>
      </trkpt>
      <trkpt lat="48.37229" lon="2.79367">
        <ele>91</ele>
        <time>2021-11-18T15:26:28Z</time>
      </trkpt>
      <trkpt lat="48.37228" lon="2.79375">
        <ele>91</ele>
        <time>2021-11-18T15:26:33Z</time>
      </trkpt>
      <trkpt lat="48.37225" lon="2.79381">
        <ele>90.800003051758</ele>
        <time>2021-11-18T15:26:38Z</time>
      </trkpt>
      <trkpt lat="48.37221" lon="2.79386">
        <ele>90.800003051758</ele>
        <time>2021-11-18T15:26:43Z</time>
      </trkpt>
      <trkpt lat="48.37216" lon="2.79392">
        <ele>90.800003051758</ele>
        <time>2021-11-18T15:26:48Z</time>
      </trkpt>
      <trkpt lat="48.37212" lon="2.79397">
        <ele>90.800003051758</ele>
        <time>2021-11-18T15:26:53Z</time>
      </trkpt>
      <trkpt lat="48.37209" lon="2.79402">
        <ele>90.800003051758</ele>
        <time>2021-11-18T15:26:58Z</time>
      </trkpt>
      <trkpt lat="48.37203" lon="2.79407">
        <ele>90.599998474121</ele>
        <time>2021-11-18T15:27:03Z</time>
      </trkpt>
      <trkpt lat="48.37199" lon="2.79411">
        <ele>90.599998474121</ele>
        <time>2021-11-18T15:27:08Z</time>
      </trkpt>
      <trkpt lat="48.37196" lon="2.79415">
        <ele>90.599998474121</ele>
        <time>2021-11-18T15:27:13Z</time>
      </trkpt>
      <trkpt lat="48.37192" lon="2.79421">
        <ele>90.599998474121</ele>
        <time>2021-11-18T15:27:18Z</time>
      </trkpt>
      <trkpt lat="48.37187" lon="2.79426">
        <ele>90.400001525879</ele>
        <time>2021-11-18T15:27:23Z</time>
      </trkpt>
      <trkpt lat="48.37181" lon="2.79432">
        <ele>90.400001525879</ele>
        <time>2021-11-18T15:27:28Z</time>
      </trkpt>
      <trkpt lat="48.37177" lon="2.79439">
        <ele>90.400001525879</ele>
        <time>2021-11-18T15:27:33Z</time>
      </trkpt>
      <trkpt lat="48.37174" lon="2.79446">
        <ele>90.199996948242</ele>
        <time>2021-11-18T15:27:38Z</time>
      </trkpt>
      <trkpt lat="48.37172" lon="2.79452">
        <ele>90</ele>
        <time>2021-11-18T15:27:43Z</time>
      </trkpt>
      <trkpt lat="48.37168" lon="2.79457">
        <ele>90</ele>
        <time>2021-11-18T15:27:48Z</time>
      </trkpt>
      <trkpt lat="48.37166" lon="2.79459">
        <ele>90</ele>
        <time>2021-11-18T15:27:53Z</time>
      </trkpt>
      <trkpt lat="48.37166" lon="2.79459">
        <ele>89.800003051758</ele>
        <time>2021-11-18T15:27:58Z</time>
      </trkpt>
      <trkpt lat="48.37165" lon="2.7946">
        <ele>89.800003051758</ele>
        <time>2021-11-18T15:28:03Z</time>
      </trkpt>
      <trkpt lat="48.37164" lon="2.7946">
        <ele>89.800003051758</ele>
        <time>2021-11-18T15:28:08Z</time>
      </trkpt>
      <trkpt lat="48.37164" lon="2.7946">
        <ele>89.800003051758</ele>
        <time>2021-11-18T15:28:13Z</time>
      </trkpt>
      <trkpt lat="48.37163" lon="2.79462">
        <ele>89.800003051758</ele>
        <time>2021-11-18T15:28:18Z</time>
      </trkpt>
      <trkpt lat="48.37163" lon="2.79462">
        <ele>89.800003051758</ele>
        <time>2021-11-18T15:28:23Z</time>
      </trkpt>
      <trkpt lat="48.37162" lon="2.79462">
        <ele>89.800003051758</ele>
        <time>2021-11-18T15:28:28Z</time>
      </trkpt>
      <trkpt lat="48.37162" lon="2.79462">
        <ele>89.800003051758</ele>
        <time>2021-11-18T15:28:33Z</time>
      </trkpt>
      <trkpt lat="48.37163" lon="2.79462">
        <ele>89.800003051758</ele>
        <time>2021-11-18T15:28:38Z</time>
      </trkpt>
      <trkpt lat="48.37163" lon="2.79463">
        <ele>89.800003051758</ele>
        <time>2021-11-18T15:28:43Z</time>
      </trkpt>
      <trkpt lat="48.37164" lon="2.79462">
        <ele>89.800003051758</ele>
        <time>2021-11-18T15:28:48Z</time>
      </trkpt>
      <trkpt lat="48.37164" lon="2.79462">
        <ele>89.800003051758</ele>
        <time>2021-11-18T15:28:53Z</time>
      </trkpt>
      <trkpt lat="48.37164" lon="2.79462">
        <ele>89.800003051758</ele>
        <time>2021-11-18T15:28:58Z</time>
      </trkpt>
      <trkpt lat="48.37165" lon="2.79463">
        <ele>89.800003051758</ele>
        <time>2021-11-18T15:29:03Z</time>
      </trkpt>
      <trkpt lat="48.37165" lon="2.79464">
        <ele>89.800003051758</ele>
        <time>2021-11-18T15:29:08Z</time>
      </trkpt>
      <trkpt lat="48.37165" lon="2.79464">
        <ele>89.800003051758</ele>
        <time>2021-11-18T15:29:13Z</time>
      </trkpt>
      <trkpt lat="48.37166" lon="2.79464">
        <ele>89.800003051758</ele>
        <time>2021-11-18T15:29:18Z</time>
      </trkpt>
      <trkpt lat="48.37166" lon="2.79463">
        <ele>89.800003051758</ele>
        <time>2021-11-18T15:29:23Z</time>
      </trkpt>
      <trkpt lat="48.37165" lon="2.79464">
        <ele>89.800003051758</ele>
        <time>2021-11-18T15:29:28Z</time>
      </trkpt>
      <trkpt lat="48.37165" lon="2.79465">
        <ele>89.800003051758</ele>
        <time>2021-11-18T15:29:33Z</time>
      </trkpt>
      <trkpt lat="48.37165" lon="2.79465">
        <ele>89.800003051758</ele>
        <time>2021-11-18T15:29:38Z</time>
      </trkpt>
      <trkpt lat="48.37165" lon="2.79465">
        <ele>89.800003051758</ele>
        <time>2021-11-18T15:29:43Z</time>
      </trkpt>
      <trkpt lat="48.37165" lon="2.79465">
        <ele>89.800003051758</ele>
        <time>2021-11-18T15:29:48Z</time>
      </trkpt>
      <trkpt lat="48.37162" lon="2.79468">
        <ele>89.800003051758</ele>
        <time>2021-11-18T15:29:53Z</time>
      </trkpt>
      <trkpt lat="48.37159" lon="2.79471">
        <ele>89.800003051758</ele>
        <time>2021-11-18T15:29:58Z</time>
      </trkpt>
      <trkpt lat="48.37157" lon="2.79474">
        <ele>89.800003051758</ele>
        <time>2021-11-18T15:30:03Z</time>
      </trkpt>
      <trkpt lat="48.37156" lon="2.79476">
        <ele>89.800003051758</ele>
        <time>2021-11-18T15:30:08Z</time>
      </trkpt>
      <trkpt lat="48.37156" lon="2.79477">
        <ele>89.800003051758</ele>
        <time>2021-11-18T15:30:13Z</time>
      </trkpt>
      <trkpt lat="48.37154" lon="2.79481">
        <ele>89.800003051758</ele>
        <time>2021-11-18T15:30:18Z</time>
      </trkpt>
      <trkpt lat="48.37151" lon="2.79485">
        <ele>89.800003051758</ele>
        <time>2021-11-18T15:30:23Z</time>
      </trkpt>
      <trkpt lat="48.37147" lon="2.79489">
        <ele>89.800003051758</ele>
        <time>2021-11-18T15:30:28Z</time>
      </trkpt>
      <trkpt lat="48.37143" lon="2.79492">
        <ele>89.800003051758</ele>
        <time>2021-11-18T15:30:33Z</time>
      </trkpt>
      <trkpt lat="48.3714" lon="2.79496">
        <ele>89.800003051758</ele>
        <time>2021-11-18T15:30:38Z</time>
      </trkpt>
      <trkpt lat="48.37137" lon="2.79501">
        <ele>89.800003051758</ele>
        <time>2021-11-18T15:30:43Z</time>
      </trkpt>
      <trkpt lat="48.37134" lon="2.79506">
        <ele>89.800003051758</ele>
        <time>2021-11-18T15:30:48Z</time>
      </trkpt>
      <trkpt lat="48.37131" lon="2.7951">
        <ele>89.800003051758</ele>
        <time>2021-11-18T15:30:53Z</time>
      </trkpt>
      <trkpt lat="48.37127" lon="2.79514">
        <ele>89.800003051758</ele>
        <time>2021-11-18T15:30:58Z</time>
      </trkpt>
      <trkpt lat="48.37121" lon="2.79521">
        <ele>89.800003051758</ele>
        <time>2021-11-18T15:31:03Z</time>
      </trkpt>
      <trkpt lat="48.37116" lon="2.79526">
        <ele>89.800003051758</ele>
        <time>2021-11-18T15:31:08Z</time>
      </trkpt>
      <trkpt lat="48.37113" lon="2.79531">
        <ele>89.800003051758</ele>
        <time>2021-11-18T15:31:13Z</time>
      </trkpt>
      <trkpt lat="48.3711" lon="2.79535">
        <ele>89.800003051758</ele>
        <time>2021-11-18T15:31:18Z</time>
      </trkpt>
      <trkpt lat="48.37107" lon="2.79541">
        <ele>89.800003051758</ele>
        <time>2021-11-18T15:31:23Z</time>
      </trkpt>
      <trkpt lat="48.37104" lon="2.79546">
        <ele>89.800003051758</ele>
        <time>2021-11-18T15:31:28Z</time>
      </trkpt>
      <trkpt lat="48.371" lon="2.7955">
        <ele>89.800003051758</ele>
        <time>2021-11-18T15:31:33Z</time>
      </trkpt>
      <trkpt lat="48.37096" lon="2.79554">
        <ele>89.800003051758</ele>
        <time>2021-11-18T15:31:38Z</time>
      </trkpt>
      <trkpt lat="48.37093" lon="2.79559">
        <ele>89.800003051758</ele>
        <time>2021-11-18T15:31:43Z</time>
      </trkpt>
      <trkpt lat="48.37091" lon="2.79563">
        <ele>89.800003051758</ele>
        <time>2021-11-18T15:31:48Z</time>
      </trkpt>
      <trkpt lat="48.37087" lon="2.79569">
        <ele>89.800003051758</ele>
        <time>2021-11-18T15:31:53Z</time>
      </trkpt>
      <trkpt lat="48.37084" lon="2.79575">
        <ele>89.800003051758</ele>
        <time>2021-11-18T15:31:58Z</time>
      </trkpt>
      <trkpt lat="48.3708" lon="2.79579">
        <ele>89.800003051758</ele>
        <time>2021-11-18T15:32:03Z</time>
      </trkpt>
      <trkpt lat="48.37077" lon="2.79585">
        <ele>89.800003051758</ele>
        <time>2021-11-18T15:32:08Z</time>
      </trkpt>
      <trkpt lat="48.37072" lon="2.7959">
        <ele>89.800003051758</ele>
        <time>2021-11-18T15:32:13Z</time>
      </trkpt>
      <trkpt lat="48.37068" lon="2.79595">
        <ele>89.800003051758</ele>
        <time>2021-11-18T15:32:18Z</time>
      </trkpt>
      <trkpt lat="48.37063" lon="2.79602">
        <ele>89.800003051758</ele>
        <time>2021-11-18T15:32:23Z</time>
      </trkpt>
      <trkpt lat="48.37059" lon="2.79606">
        <ele>89.800003051758</ele>
        <time>2021-11-18T15:32:28Z</time>
      </trkpt>
      <trkpt lat="48.37056" lon="2.79611">
        <ele>89.800003051758</ele>
        <time>2021-11-18T15:32:33Z</time>
      </trkpt>
      <trkpt lat="48.37052" lon="2.79617">
        <ele>89.800003051758</ele>
        <time>2021-11-18T15:32:38Z</time>
      </trkpt>
      <trkpt lat="48.37048" lon="2.79624">
        <ele>89.800003051758</ele>
        <time>2021-11-18T15:32:43Z</time>
      </trkpt>
      <trkpt lat="48.37042" lon="2.79631">
        <ele>89.800003051758</ele>
        <time>2021-11-18T15:32:48Z</time>
      </trkpt>
      <trkpt lat="48.37037" lon="2.79636">
        <ele>87.800003051758</ele>
        <time>2021-11-18T15:32:53Z</time>
      </trkpt>
      <trkpt lat="48.37035" lon="2.79639">
        <ele>87.400001525879</ele>
        <time>2021-11-18T15:32:58Z</time>
      </trkpt>
      <trkpt lat="48.37033" lon="2.79642">
        <ele>87.400001525879</ele>
        <time>2021-11-18T15:33:03Z</time>
      </trkpt>
      <trkpt lat="48.37028" lon="2.79646">
        <ele>87.400001525879</ele>
        <time>2021-11-18T15:33:08Z</time>
      </trkpt>
      <trkpt lat="48.37025" lon="2.79652">
        <ele>87.400001525879</ele>
        <time>2021-11-18T15:33:13Z</time>
      </trkpt>
      <trkpt lat="48.37021" lon="2.79657">
        <ele>87.400001525879</ele>
        <time>2021-11-18T15:33:18Z</time>
      </trkpt>
      <trkpt lat="48.37016" lon="2.79661">
        <ele>87.400001525879</ele>
        <time>2021-11-18T15:33:23Z</time>
      </trkpt>
      <trkpt lat="48.37011" lon="2.79666">
        <ele>87.400001525879</ele>
        <time>2021-11-18T15:33:28Z</time>
      </trkpt>
      <trkpt lat="48.37009" lon="2.79672">
        <ele>87.400001525879</ele>
        <time>2021-11-18T15:33:33Z</time>
      </trkpt>
      <trkpt lat="48.37004" lon="2.79677">
        <ele>87.400001525879</ele>
        <time>2021-11-18T15:33:38Z</time>
      </trkpt>
      <trkpt lat="48.36998" lon="2.79686">
        <ele>87.400001525879</ele>
        <time>2021-11-18T15:33:43Z</time>
      </trkpt>
      <trkpt lat="48.36994" lon="2.79693">
        <ele>87.199996948242</ele>
        <time>2021-11-18T15:33:48Z</time>
      </trkpt>
      <trkpt lat="48.3699" lon="2.79699">
        <ele>87.199996948242</ele>
        <time>2021-11-18T15:33:53Z</time>
      </trkpt>
      <trkpt lat="48.36987" lon="2.79704">
        <ele>87.199996948242</ele>
        <time>2021-11-18T15:33:58Z</time>
      </trkpt>
      <trkpt lat="48.36982" lon="2.79709">
        <ele>87</ele>
        <time>2021-11-18T15:34:03Z</time>
      </trkpt>
      <trkpt lat="48.36978" lon="2.79716">
        <ele>87</ele>
        <time>2021-11-18T15:34:08Z</time>
      </trkpt>
      <trkpt lat="48.36975" lon="2.79722">
        <ele>87</ele>
        <time>2021-11-18T15:34:13Z</time>
      </trkpt>
      <trkpt lat="48.36971" lon="2.79726">
        <ele>86.800003051758</ele>
        <time>2021-11-18T15:34:18Z</time>
      </trkpt>
      <trkpt lat="48.36968" lon="2.79732">
        <ele>86.800003051758</ele>
        <time>2021-11-18T15:34:23Z</time>
      </trkpt>
      <trkpt lat="48.36964" lon="2.79738">
        <ele>86.599998474121</ele>
        <time>2021-11-18T15:34:28Z</time>
      </trkpt>
      <trkpt lat="48.36959" lon="2.79746">
        <ele>86.599998474121</ele>
        <time>2021-11-18T15:34:33Z</time>
      </trkpt>
      <trkpt lat="48.36956" lon="2.79751">
        <ele>86.599998474121</ele>
        <time>2021-11-18T15:34:38Z</time>
      </trkpt>
      <trkpt lat="48.36953" lon="2.79757">
        <ele>86.599998474121</ele>
        <time>2021-11-18T15:34:43Z</time>
      </trkpt>
      <trkpt lat="48.36949" lon="2.79763">
        <ele>86.599998474121</ele>
        <time>2021-11-18T15:34:48Z</time>
      </trkpt>
      <trkpt lat="48.36946" lon="2.79767">
        <ele>86.400001525879</ele>
        <time>2021-11-18T15:34:53Z</time>
      </trkpt>
      <trkpt lat="48.36943" lon="2.79774">
        <ele>86.400001525879</ele>
        <time>2021-11-18T15:34:58Z</time>
      </trkpt>
      <trkpt lat="48.36939" lon="2.79779">
        <ele>86.400001525879</ele>
        <time>2021-11-18T15:35:03Z</time>
      </trkpt>
      <trkpt lat="48.36935" lon="2.79783">
        <ele>86.400001525879</ele>
        <time>2021-11-18T15:35:08Z</time>
      </trkpt>
      <trkpt lat="48.3693" lon="2.79788">
        <ele>86.400001525879</ele>
        <time>2021-11-18T15:35:13Z</time>
      </trkpt>
      <trkpt lat="48.36926" lon="2.79793">
        <ele>86.400001525879</ele>
        <time>2021-11-18T15:35:18Z</time>
      </trkpt>
      <trkpt lat="48.36923" lon="2.79798">
        <ele>86.400001525879</ele>
        <time>2021-11-18T15:35:23Z</time>
      </trkpt>
      <trkpt lat="48.3692" lon="2.79802">
        <ele>86.400001525879</ele>
        <time>2021-11-18T15:35:28Z</time>
      </trkpt>
      <trkpt lat="48.36916" lon="2.79807">
        <ele>86.400001525879</ele>
        <time>2021-11-18T15:35:33Z</time>
      </trkpt>
      <trkpt lat="48.36913" lon="2.7981">
        <ele>86.400001525879</ele>
        <time>2021-11-18T15:35:38Z</time>
      </trkpt>
      <trkpt lat="48.36908" lon="2.79814">
        <ele>86.400001525879</ele>
        <time>2021-11-18T15:35:43Z</time>
      </trkpt>
      <trkpt lat="48.36905" lon="2.79819">
        <ele>86.400001525879</ele>
        <time>2021-11-18T15:35:48Z</time>
      </trkpt>
      <trkpt lat="48.36903" lon="2.79826">
        <ele>86.400001525879</ele>
        <time>2021-11-18T15:35:53Z</time>
      </trkpt>
      <trkpt lat="48.36903" lon="2.79832">
        <ele>86.400001525879</ele>
        <time>2021-11-18T15:35:58Z</time>
      </trkpt>
      <trkpt lat="48.36903" lon="2.7984">
        <ele>86.400001525879</ele>
        <time>2021-11-18T15:36:03Z</time>
      </trkpt>
      <trkpt lat="48.36902" lon="2.79846">
        <ele>86.400001525879</ele>
        <time>2021-11-18T15:36:08Z</time>
      </trkpt>
      <trkpt lat="48.369" lon="2.79854">
        <ele>86.400001525879</ele>
        <time>2021-11-18T15:36:13Z</time>
      </trkpt>
      <trkpt lat="48.36896" lon="2.79862">
        <ele>86.400001525879</ele>
        <time>2021-11-18T15:36:18Z</time>
      </trkpt>
      <trkpt lat="48.36892" lon="2.79872">
        <ele>86.400001525879</ele>
        <time>2021-11-18T15:36:23Z</time>
      </trkpt>
      <trkpt lat="48.3689" lon="2.79879">
        <ele>86.400001525879</ele>
        <time>2021-11-18T15:36:28Z</time>
      </trkpt>
      <trkpt lat="48.36888" lon="2.79886">
        <ele>86.400001525879</ele>
        <time>2021-11-18T15:36:33Z</time>
      </trkpt>
      <trkpt lat="48.36886" lon="2.79892">
        <ele>86.400001525879</ele>
        <time>2021-11-18T15:36:38Z</time>
      </trkpt>
      <trkpt lat="48.36884" lon="2.79898">
        <ele>86.400001525879</ele>
        <time>2021-11-18T15:36:43Z</time>
      </trkpt>
      <trkpt lat="48.36883" lon="2.79904">
        <ele>86.400001525879</ele>
        <time>2021-11-18T15:36:48Z</time>
      </trkpt>
      <trkpt lat="48.3688" lon="2.79913">
        <ele>86.599998474121</ele>
        <time>2021-11-18T15:36:53Z</time>
      </trkpt>
      <trkpt lat="48.36878" lon="2.7992">
        <ele>86.599998474121</ele>
        <time>2021-11-18T15:36:58Z</time>
      </trkpt>
      <trkpt lat="48.36877" lon="2.79928">
        <ele>86.599998474121</ele>
        <time>2021-11-18T15:37:03Z</time>
      </trkpt>
      <trkpt lat="48.36875" lon="2.79936">
        <ele>86.599998474121</ele>
        <time>2021-11-18T15:37:08Z</time>
      </trkpt>
      <trkpt lat="48.36876" lon="2.79942">
        <ele>86.599998474121</ele>
        <time>2021-11-18T15:37:13Z</time>
      </trkpt>
      <trkpt lat="48.36878" lon="2.79949">
        <ele>86.599998474121</ele>
        <time>2021-11-18T15:37:18Z</time>
      </trkpt>
      <trkpt lat="48.3688" lon="2.79953">
        <ele>86.599998474121</ele>
        <time>2021-11-18T15:37:23Z</time>
      </trkpt>
      <trkpt lat="48.36883" lon="2.7996">
        <ele>86.599998474121</ele>
        <time>2021-11-18T15:37:28Z</time>
      </trkpt>
      <trkpt lat="48.36886" lon="2.79966">
        <ele>86.599998474121</ele>
        <time>2021-11-18T15:37:33Z</time>
      </trkpt>
      <trkpt lat="48.36888" lon="2.79973">
        <ele>86.400001525879</ele>
        <time>2021-11-18T15:37:38Z</time>
      </trkpt>
      <trkpt lat="48.36892" lon="2.79979">
        <ele>86.199996948242</ele>
        <time>2021-11-18T15:37:43Z</time>
      </trkpt>
      <trkpt lat="48.36897" lon="2.79985">
        <ele>86.199996948242</ele>
        <time>2021-11-18T15:37:48Z</time>
      </trkpt>
      <trkpt lat="48.36902" lon="2.79989">
        <ele>86</ele>
        <time>2021-11-18T15:37:53Z</time>
      </trkpt>
      <trkpt lat="48.36906" lon="2.79995">
        <ele>85.800003051758</ele>
        <time>2021-11-18T15:37:58Z</time>
      </trkpt>
      <trkpt lat="48.36911" lon="2.80002">
        <ele>85.800003051758</ele>
        <time>2021-11-18T15:38:03Z</time>
      </trkpt>
      <trkpt lat="48.36914" lon="2.80009">
        <ele>85.800003051758</ele>
        <time>2021-11-18T15:38:08Z</time>
      </trkpt>
      <trkpt lat="48.36918" lon="2.80015">
        <ele>85.800003051758</ele>
        <time>2021-11-18T15:38:13Z</time>
      </trkpt>
      <trkpt lat="48.36921" lon="2.80022">
        <ele>85.400001525879</ele>
        <time>2021-11-18T15:38:18Z</time>
      </trkpt>
      <trkpt lat="48.36924" lon="2.80027">
        <ele>85.199996948242</ele>
        <time>2021-11-18T15:38:23Z</time>
      </trkpt>
      <trkpt lat="48.36927" lon="2.80034">
        <ele>85.199996948242</ele>
        <time>2021-11-18T15:38:28Z</time>
      </trkpt>
      <trkpt lat="48.36929" lon="2.80041">
        <ele>85.199996948242</ele>
        <time>2021-11-18T15:38:33Z</time>
      </trkpt>
      <trkpt lat="48.3693" lon="2.80046">
        <ele>85.199996948242</ele>
        <time>2021-11-18T15:38:38Z</time>
      </trkpt>
      <trkpt lat="48.3693" lon="2.80054">
        <ele>85.199996948242</ele>
        <time>2021-11-18T15:38:43Z</time>
      </trkpt>
      <trkpt lat="48.36929" lon="2.80063">
        <ele>85.199996948242</ele>
        <time>2021-11-18T15:38:48Z</time>
      </trkpt>
      <trkpt lat="48.3693" lon="2.80069">
        <ele>85.199996948242</ele>
        <time>2021-11-18T15:38:53Z</time>
      </trkpt>
      <trkpt lat="48.36931" lon="2.80073">
        <ele>85.199996948242</ele>
        <time>2021-11-18T15:38:58Z</time>
      </trkpt>
      <trkpt lat="48.36933" lon="2.80082">
        <ele>85.199996948242</ele>
        <time>2021-11-18T15:39:03Z</time>
      </trkpt>
      <trkpt lat="48.36934" lon="2.80086">
        <ele>85.199996948242</ele>
        <time>2021-11-18T15:39:08Z</time>
      </trkpt>
      <trkpt lat="48.36934" lon="2.80094">
        <ele>85.199996948242</ele>
        <time>2021-11-18T15:39:13Z</time>
      </trkpt>
      <trkpt lat="48.36935" lon="2.80103">
        <ele>85.199996948242</ele>
        <time>2021-11-18T15:39:18Z</time>
      </trkpt>
      <trkpt lat="48.36936" lon="2.8011">
        <ele>85</ele>
        <time>2021-11-18T15:39:23Z</time>
      </trkpt>
      <trkpt lat="48.36936" lon="2.80113">
        <ele>85</ele>
        <time>2021-11-18T15:39:28Z</time>
      </trkpt>
      <trkpt lat="48.36937" lon="2.80117">
        <ele>85.199996948242</ele>
        <time>2021-11-18T15:39:33Z</time>
      </trkpt>
      <trkpt lat="48.36938" lon="2.80124">
        <ele>85.199996948242</ele>
        <time>2021-11-18T15:39:38Z</time>
      </trkpt>
      <trkpt lat="48.36938" lon="2.80132">
        <ele>85.199996948242</ele>
        <time>2021-11-18T15:39:43Z</time>
      </trkpt>
      <trkpt lat="48.36939" lon="2.80136">
        <ele>85</ele>
        <time>2021-11-18T15:39:48Z</time>
      </trkpt>
      <trkpt lat="48.36941" lon="2.80145">
        <ele>85</ele>
        <time>2021-11-18T15:39:53Z</time>
      </trkpt>
      <trkpt lat="48.36943" lon="2.80149">
        <ele>85</ele>
        <time>2021-11-18T15:39:58Z</time>
      </trkpt>
      <trkpt lat="48.36943" lon="2.80153">
        <ele>85.199996948242</ele>
        <time>2021-11-18T15:40:03Z</time>
      </trkpt>
      <trkpt lat="48.36943" lon="2.80166">
        <ele>85.199996948242</ele>
        <time>2021-11-18T15:40:08Z</time>
      </trkpt>
      <trkpt lat="48.36944" lon="2.80173">
        <ele>85.199996948242</ele>
        <time>2021-11-18T15:40:13Z</time>
      </trkpt>
      <trkpt lat="48.36944" lon="2.80179">
        <ele>85.199996948242</ele>
        <time>2021-11-18T15:40:18Z</time>
      </trkpt>
      <trkpt lat="48.36944" lon="2.80188">
        <ele>85.400001525879</ele>
        <time>2021-11-18T15:40:23Z</time>
      </trkpt>
      <trkpt lat="48.36944" lon="2.80194">
        <ele>85.400001525879</ele>
        <time>2021-11-18T15:40:28Z</time>
      </trkpt>
      <trkpt lat="48.36943" lon="2.80203">
        <ele>85.599998474121</ele>
        <time>2021-11-18T15:40:33Z</time>
      </trkpt>
      <trkpt lat="48.36941" lon="2.80213">
        <ele>85.599998474121</ele>
        <time>2021-11-18T15:40:38Z</time>
      </trkpt>
      <trkpt lat="48.36939" lon="2.8022">
        <ele>85.599998474121</ele>
        <time>2021-11-18T15:40:43Z</time>
      </trkpt>
      <trkpt lat="48.36938" lon="2.80228">
        <ele>85.800003051758</ele>
        <time>2021-11-18T15:40:48Z</time>
      </trkpt>
      <trkpt lat="48.36936" lon="2.80235">
        <ele>85.800003051758</ele>
        <time>2021-11-18T15:40:53Z</time>
      </trkpt>
      <trkpt lat="48.36933" lon="2.80241">
        <ele>86</ele>
        <time>2021-11-18T15:40:58Z</time>
      </trkpt>
      <trkpt lat="48.36929" lon="2.80246">
        <ele>86.400001525879</ele>
        <time>2021-11-18T15:41:03Z</time>
      </trkpt>
      <trkpt lat="48.36927" lon="2.80252">
        <ele>86.599998474121</ele>
        <time>2021-11-18T15:41:08Z</time>
      </trkpt>
      <trkpt lat="48.36926" lon="2.80255">
        <ele>86.800003051758</ele>
        <time>2021-11-18T15:41:13Z</time>
      </trkpt>
      <trkpt lat="48.36925" lon="2.80257">
        <ele>87.199996948242</ele>
        <time>2021-11-18T15:41:18Z</time>
      </trkpt>
      <trkpt lat="48.36919" lon="2.80263">
        <ele>87.400001525879</ele>
        <time>2021-11-18T15:41:23Z</time>
      </trkpt>
      <trkpt lat="48.36915" lon="2.80268">
        <ele>87.800003051758</ele>
        <time>2021-11-18T15:41:28Z</time>
      </trkpt>
      <trkpt lat="48.36913" lon="2.80272">
        <ele>87.800003051758</ele>
        <time>2021-11-18T15:41:33Z</time>
      </trkpt>
      <trkpt lat="48.36911" lon="2.80278">
        <ele>87.800003051758</ele>
        <time>2021-11-18T15:41:38Z</time>
      </trkpt>
      <trkpt lat="48.3691" lon="2.80285">
        <ele>87.800003051758</ele>
        <time>2021-11-18T15:41:43Z</time>
      </trkpt>
      <trkpt lat="48.36909" lon="2.80292">
        <ele>87.800003051758</ele>
        <time>2021-11-18T15:41:48Z</time>
      </trkpt>
      <trkpt lat="48.36907" lon="2.80299">
        <ele>87.800003051758</ele>
        <time>2021-11-18T15:41:53Z</time>
      </trkpt>
      <trkpt lat="48.36908" lon="2.80306">
        <ele>88</ele>
        <time>2021-11-18T15:41:58Z</time>
      </trkpt>
      <trkpt lat="48.36908" lon="2.80313">
        <ele>88</ele>
        <time>2021-11-18T15:42:03Z</time>
      </trkpt>
      <trkpt lat="48.36909" lon="2.80321">
        <ele>88</ele>
        <time>2021-11-18T15:42:08Z</time>
      </trkpt>
      <trkpt lat="48.36911" lon="2.8033">
        <ele>88</ele>
        <time>2021-11-18T15:42:13Z</time>
      </trkpt>
      <trkpt lat="48.36911" lon="2.80338">
        <ele>88.199996948242</ele>
        <time>2021-11-18T15:42:18Z</time>
      </trkpt>
      <trkpt lat="48.36912" lon="2.80345">
        <ele>88.400001525879</ele>
        <time>2021-11-18T15:42:23Z</time>
      </trkpt>
      <trkpt lat="48.36912" lon="2.80351">
        <ele>88.400001525879</ele>
        <time>2021-11-18T15:42:28Z</time>
      </trkpt>
      <trkpt lat="48.36913" lon="2.80356">
        <ele>88.599998474121</ele>
        <time>2021-11-18T15:42:33Z</time>
      </trkpt>
      <trkpt lat="48.36912" lon="2.80363">
        <ele>88.800003051758</ele>
        <time>2021-11-18T15:42:38Z</time>
      </trkpt>
      <trkpt lat="48.36911" lon="2.80369">
        <ele>88.800003051758</ele>
        <time>2021-11-18T15:42:43Z</time>
      </trkpt>
      <trkpt lat="48.36909" lon="2.80375">
        <ele>89</ele>
        <time>2021-11-18T15:42:48Z</time>
      </trkpt>
      <trkpt lat="48.36906" lon="2.80383">
        <ele>89.199996948242</ele>
        <time>2021-11-18T15:42:53Z</time>
      </trkpt>
      <trkpt lat="48.36904" lon="2.80388">
        <ele>89.199996948242</ele>
        <time>2021-11-18T15:42:58Z</time>
      </trkpt>
      <trkpt lat="48.369" lon="2.80395">
        <ele>89.400001525879</ele>
        <time>2021-11-18T15:43:03Z</time>
      </trkpt>
      <trkpt lat="48.36896" lon="2.80401">
        <ele>89.400001525879</ele>
        <time>2021-11-18T15:43:08Z</time>
      </trkpt>
      <trkpt lat="48.36893" lon="2.80407">
        <ele>89.599998474121</ele>
        <time>2021-11-18T15:43:13Z</time>
      </trkpt>
      <trkpt lat="48.36889" lon="2.80413">
        <ele>89.800003051758</ele>
        <time>2021-11-18T15:43:18Z</time>
      </trkpt>
      <trkpt lat="48.36884" lon="2.80418">
        <ele>89.800003051758</ele>
        <time>2021-11-18T15:43:23Z</time>
      </trkpt>
      <trkpt lat="48.36881" lon="2.80422">
        <ele>90</ele>
        <time>2021-11-18T15:43:28Z</time>
      </trkpt>
      <trkpt lat="48.36877" lon="2.80426">
        <ele>90.199996948242</ele>
        <time>2021-11-18T15:43:33Z</time>
      </trkpt>
      <trkpt lat="48.36874" lon="2.80429">
        <ele>90.199996948242</ele>
        <time>2021-11-18T15:43:38Z</time>
      </trkpt>
      <trkpt lat="48.36871" lon="2.80433">
        <ele>90.199996948242</ele>
        <time>2021-11-18T15:43:43Z</time>
      </trkpt>
      <trkpt lat="48.36867" lon="2.80436">
        <ele>90.400001525879</ele>
        <time>2021-11-18T15:43:48Z</time>
      </trkpt>
      <trkpt lat="48.36861" lon="2.8044">
        <ele>90.400001525879</ele>
        <time>2021-11-18T15:43:53Z</time>
      </trkpt>
      <trkpt lat="48.36858" lon="2.80443">
        <ele>90.599998474121</ele>
        <time>2021-11-18T15:43:58Z</time>
      </trkpt>
      <trkpt lat="48.36855" lon="2.80445">
        <ele>90.800003051758</ele>
        <time>2021-11-18T15:44:03Z</time>
      </trkpt>
      <trkpt lat="48.36849" lon="2.8045">
        <ele>90.800003051758</ele>
        <time>2021-11-18T15:44:08Z</time>
      </trkpt>
      <trkpt lat="48.36844" lon="2.80452">
        <ele>90.800003051758</ele>
        <time>2021-11-18T15:44:13Z</time>
      </trkpt>
      <trkpt lat="48.36842" lon="2.80454">
        <ele>90.800003051758</ele>
        <time>2021-11-18T15:44:18Z</time>
      </trkpt>
      <trkpt lat="48.36839" lon="2.80458">
        <ele>90.800003051758</ele>
        <time>2021-11-18T15:44:23Z</time>
      </trkpt>
      <trkpt lat="48.36837" lon="2.80459">
        <ele>91</ele>
        <time>2021-11-18T15:44:28Z</time>
      </trkpt>
      <trkpt lat="48.36834" lon="2.8046">
        <ele>91.199996948242</ele>
        <time>2021-11-18T15:44:33Z</time>
      </trkpt>
      <trkpt lat="48.36827" lon="2.80465">
        <ele>91.199996948242</ele>
        <time>2021-11-18T15:44:38Z</time>
      </trkpt>
      <trkpt lat="48.36825" lon="2.80468">
        <ele>91.199996948242</ele>
        <time>2021-11-18T15:44:43Z</time>
      </trkpt>
      <trkpt lat="48.36821" lon="2.80473">
        <ele>91.400001525879</ele>
        <time>2021-11-18T15:44:48Z</time>
      </trkpt>
      <trkpt lat="48.36819" lon="2.80476">
        <ele>91.599998474121</ele>
        <time>2021-11-18T15:44:53Z</time>
      </trkpt>
      <trkpt lat="48.36814" lon="2.80481">
        <ele>91.800003051758</ele>
        <time>2021-11-18T15:44:58Z</time>
      </trkpt>
      <trkpt lat="48.3681" lon="2.80484">
        <ele>92</ele>
        <time>2021-11-18T15:45:03Z</time>
      </trkpt>
      <trkpt lat="48.36808" lon="2.80485">
        <ele>92.199996948242</ele>
        <time>2021-11-18T15:45:08Z</time>
      </trkpt>
      <trkpt lat="48.36806" lon="2.80488">
        <ele>92.199996948242</ele>
        <time>2021-11-18T15:45:13Z</time>
      </trkpt>
      <trkpt lat="48.36801" lon="2.8049">
        <ele>92</ele>
        <time>2021-11-18T15:45:18Z</time>
      </trkpt>
      <trkpt lat="48.36799" lon="2.80504">
        <ele>92</ele>
        <time>2021-11-18T15:45:23Z</time>
      </trkpt>
      <trkpt lat="48.368" lon="2.80513">
        <ele>91.800003051758</ele>
        <time>2021-11-18T15:45:28Z</time>
      </trkpt>
      <trkpt lat="48.36802" lon="2.8052">
        <ele>91.800003051758</ele>
        <time>2021-11-18T15:45:33Z</time>
      </trkpt>
      <trkpt lat="48.36804" lon="2.80527">
        <ele>91.599998474121</ele>
        <time>2021-11-18T15:45:38Z</time>
      </trkpt>
      <trkpt lat="48.36808" lon="2.80532">
        <ele>91.400001525879</ele>
        <time>2021-11-18T15:45:43Z</time>
      </trkpt>
      <trkpt lat="48.36811" lon="2.80538">
        <ele>91.199996948242</ele>
        <time>2021-11-18T15:45:48Z</time>
      </trkpt>
      <trkpt lat="48.36813" lon="2.80544">
        <ele>91.199996948242</ele>
        <time>2021-11-18T15:45:53Z</time>
      </trkpt>
      <trkpt lat="48.36814" lon="2.80548">
        <ele>91.199996948242</ele>
        <time>2021-11-18T15:45:58Z</time>
      </trkpt>
      <trkpt lat="48.36815" lon="2.8055">
        <ele>91.199996948242</ele>
        <time>2021-11-18T15:46:03Z</time>
      </trkpt>
      <trkpt lat="48.36816" lon="2.80551">
        <ele>91.199996948242</ele>
        <time>2021-11-18T15:46:08Z</time>
      </trkpt>
      <trkpt lat="48.36816" lon="2.80552">
        <ele>91.199996948242</ele>
        <time>2021-11-18T15:46:13Z</time>
      </trkpt>
      <trkpt lat="48.36816" lon="2.80552">
        <ele>91.199996948242</ele>
        <time>2021-11-18T15:46:18Z</time>
      </trkpt>
      <trkpt lat="48.36817" lon="2.80554">
        <ele>91.199996948242</ele>
        <time>2021-11-18T15:46:23Z</time>
      </trkpt>
      <trkpt lat="48.36819" lon="2.80558">
        <ele>91.199996948242</ele>
        <time>2021-11-18T15:46:28Z</time>
      </trkpt>
      <trkpt lat="48.3682" lon="2.80561">
        <ele>91.199996948242</ele>
        <time>2021-11-18T15:46:33Z</time>
      </trkpt>
      <trkpt lat="48.3682" lon="2.80561">
        <ele>91.199996948242</ele>
        <time>2021-11-18T15:46:38Z</time>
      </trkpt>
      <trkpt lat="48.3682" lon="2.80563">
        <ele>91.199996948242</ele>
        <time>2021-11-18T15:46:43Z</time>
      </trkpt>
      <trkpt lat="48.36821" lon="2.80564">
        <ele>91.199996948242</ele>
        <time>2021-11-18T15:46:48Z</time>
      </trkpt>
      <trkpt lat="48.36825" lon="2.80567">
        <ele>91.199996948242</ele>
        <time>2021-11-18T15:46:53Z</time>
      </trkpt>
      <trkpt lat="48.36827" lon="2.80568">
        <ele>91.199996948242</ele>
        <time>2021-11-18T15:46:58Z</time>
      </trkpt>
      <trkpt lat="48.36828" lon="2.80569">
        <ele>91.199996948242</ele>
        <time>2021-11-18T15:47:03Z</time>
      </trkpt>
      <trkpt lat="48.36828" lon="2.80568">
        <ele>91.199996948242</ele>
        <time>2021-11-18T15:47:08Z</time>
      </trkpt>
      <trkpt lat="48.36829" lon="2.80567">
        <ele>91.199996948242</ele>
        <time>2021-11-18T15:47:13Z</time>
      </trkpt>
      <trkpt lat="48.36829" lon="2.80566">
        <ele>91.199996948242</ele>
        <time>2021-11-18T15:47:18Z</time>
      </trkpt>
      <trkpt lat="48.3683" lon="2.80566">
        <ele>91.199996948242</ele>
        <time>2021-11-18T15:47:23Z</time>
      </trkpt>
      <trkpt lat="48.3683" lon="2.80565">
        <ele>91.199996948242</ele>
        <time>2021-11-18T15:47:28Z</time>
      </trkpt>
      <trkpt lat="48.36831" lon="2.80565">
        <ele>91.199996948242</ele>
        <time>2021-11-18T15:47:33Z</time>
      </trkpt>
      <trkpt lat="48.36832" lon="2.80566">
        <ele>91.199996948242</ele>
        <time>2021-11-18T15:47:38Z</time>
      </trkpt>
      <trkpt lat="48.36833" lon="2.80567">
        <ele>91.199996948242</ele>
        <time>2021-11-18T15:47:43Z</time>
      </trkpt>
      <trkpt lat="48.36834" lon="2.80569">
        <ele>91.199996948242</ele>
        <time>2021-11-18T15:47:48Z</time>
      </trkpt>
      <trkpt lat="48.36835" lon="2.80571">
        <ele>91.199996948242</ele>
        <time>2021-11-18T15:47:53Z</time>
      </trkpt>
      <trkpt lat="48.36837" lon="2.80575">
        <ele>91.199996948242</ele>
        <time>2021-11-18T15:47:58Z</time>
      </trkpt>
      <trkpt lat="48.36838" lon="2.80577">
        <ele>91.199996948242</ele>
        <time>2021-11-18T15:48:02Z</time>
      </trkpt>
    </trkseg>
  </trk>
</gpx>